[[[{"header":{"parameterUnit":"kt","parameterCategory":2,"dx":1,"dy":1,"la1":29.587661999999998,"la2":31.0,"lo1":-88.76705300000003,"lo2":-86.6583820000003,"nx":115,"ny":88,"refTime":"2022-10-31T18:00:00:Z","depth":0,"parameterNumber":1,"parameterNumberName":"U-component_of_WINDS"},"data":[-2.9509,-2.9509,-2.9509,-2.9509,-2.9509,-2.9509,-2.9509,-2.9509,-2.9509,-2.9509,-2.9509,-2.9509,-2.9509,-2.9509,-2.9509,-2.9509,-2.9509,-2.9509,-2.9509,-2.9509,-2.9509,-2.9509,-2.9509,-2.9509,-2.9509,-2.9509,-2.9509,-2.9509,-2.9509,-2.9509,-2.9509,-2.9509,-2.9509,-2.9509,-2.9509,-2.9601,-2.9786,-3.0114,-3.0377,-3.0682,-3.1078,-3.1359,-3.1359,-3.1359,-3.1359,-3.1359,-3.1359,-3.1359,-3.1359,-3.1359,-3.1359,-3.1359,-3.1359,-3.1359,-3.0076,-2.7039,-2.0789,-1.582,-1.0949,-0.4311,0.0,0.0,0.0,0.0,0.0,0.0,0.0,0.0,0.0,0.0,0.0,0.0,0.0,0.0,0.0,0.0,0.0,0.0,0.0,0.0,0.0,0.0,0.0,0.0,0.0,0.0,0.0,0.0,0.0,0.0,0.0,0.0,0.0,0.0,0.0,0.0,0.0,0.0,0.0,0.0,0.0,0.0,0.0,0.0,0.0,0.0,0.0,0.0,0.0,0.0,0.0,0.0,0.0,1.5138,1.8844,-2.9509,-2.9509,-2.9509,-2.9509,-2.9509,-2.9509,-2.9509,-2.9509,-2.9509,-2.9509,-2.9509,-2.9509,-2.9509,-2.9509,-2.9509,-2.9509,-2.9509,-2.9509,-2.9509,-2.9509,-2.9509,-2.9509,-2.9509,-2.9509,-2.9509,-2.9509,-2.9509,-2.9509,-2.9509,-2.9509,-2.9509,-2.9509,-2.9509,-2.9509,-2.9509,-2.9575,-2.9799,-3.0154,-3.0377,-3.0735,-3.1025,-3.1359,-3.1359,-3.1359,-3.1359,-3.1359,-3.1359,-3.1359,-3.1359,-3.1359,-3.1359,-3.1359,-3.1359,-3.1249,-2.9289,-2.5079,-1.8934,-1.4163,-0.9293,0.0,0.0,0.0,0.0,0.0,0.0,0.0,0.0,0.0,0.0,0.0,0.0,0.0,0.0,0.0,0.0,0.0,0.0,0.0,0.0,0.0,0.0,0.0,0.0,0.0,0.0,0.0,0.0,0.0,0.0,0.0,0.0,0.0,0.0,0.0,0.0,0.0,0.0,0.0,0.0,0.0,0.0,0.0,0.0,0.0,0.0,0.0,0.0,0.0,0.0,0.0,0.0,0.0,0.8804,1.4066,1.8455,-2.9509,-2.9509,-2.9509,-2.9509,-2.9509,-2.9509,-2.9509,-2.9509,-2.9509,-2.9509,-2.9509,-2.9509,-2.9509,-2.9509,-2.9509,-2.9509,-2.9509,-2.9509,-2.9509,-2.9509,-2.9509,-2.9509,-2.9509,-2.9509,-2.9509,-2.9509,-2.9509,-2.9509,-2.9509,-2.9509,-2.9509,-2.9509,-2.9509,-2.9509,-2.9509,-2.9548,-2.9799,-3.0272,-3.0298,-3.0722,-3.1293,-3.1359,-3.1359,-3.1359,-3.1359,-3.1359,-3.1359,-3.1359,-3.1359,-3.1359,-3.1359,-3.1359,-3.1359,-3.1359,-2.8612,-2.3517,-1.835,-1.3286,-0.8217,0.0,0.0,0.0,0.0,0.0,0.0,0.0,0.0,0.0,0.0,0.0,0.0,0.0,0.0,0.0,0.0,0.0,0.0,0.0,0.0,0.0,0.0,0.0,0.0,0.0,0.0,0.0,0.0,0.0,0.0,0.0,0.0,0.0,0.0,0.0,0.0,0.0,0.0,0.0,0.0,0.0,0.0,0.0,0.0,0.0,0.0,0.0,0.0,0.0,0.0,0.0,0.0,0.0,0.6852,1.2408,1.7572,-2.9509,-2.9509,-2.9509,-2.9509,-2.9509,-2.9509,-2.9509,-2.9509,-2.9509,-2.9509,-2.9509,-2.9509,-2.9509,-2.9509,-2.9509,-2.9509,-2.9509,-2.9509,-2.9509,-2.9509,-2.9509,-2.9509,-2.9509,-2.9509,-2.9509,-2.9509,-2.9509,-2.9509,-2.9509,-2.9509,-2.9509,-2.9509,-2.9509,-2.9509,-2.9509,-2.9509,-2.9799,-3.0259,-3.0338,-3.0695,-3.1267,-3.1359,-3.1359,-3.1359,-3.1359,-3.1359,-3.1359,-3.1359,-3.1359,-3.1359,-3.1359,-3.1359,-3.1359,-3.1359,-2.8019,-2.2449,-1.7572,-1.1828,-0.6656,0.0,0.0,0.0,0.0,0.0,0.0,0.0,0.0,0.0,0.0,0.0,0.0,0.0,0.0,0.0,0.0,0.0,0.0,0.0,0.0,0.0,0.0,0.0,0.0,0.0,0.0,0.0,0.0,0.0,0.0,0.0,0.0,0.0,0.0,0.0,0.0,0.0,0.0,0.0,0.0,0.0,0.0,0.0,0.0,0.0,0.0,0.0,0.0,0.0,0.0,0.0,0.0,0.0,0.6754,1.2018,1.728,-2.9509,-2.9509,-2.9509,-2.9509,-2.9509,-2.9509,-2.9509,-2.9509,-2.9509,-2.9509,-2.9509,-2.9509,-2.9509,-2.9509,-2.9509,-2.9509,-2.9509,-2.9509,-2.9509,-2.9509,-2.9509,-2.9509,-2.9509,-2.9509,-2.9509,-2.9509,-2.9509,-2.9509,-2.9509,-2.9509,-2.9509,-2.9509,-2.9509,-2.9509,-2.9509,-2.9509,-2.9772,-3.014,-3.0324,-3.063,-3.1065,-3.1346,-3.1359,-3.1359,-3.1359,-3.1359,-3.1359,-3.1359,-3.1359,-3.1359,-3.1359,-3.1359,-3.1359,-3.1056,-2.5089,-1.9817,-1.5722,-0.9879,-0.3921,0.0,0.0,0.0,0.0,0.0,0.0,0.0,0.0,0.0,0.0,0.0,0.0,0.0,0.0,0.0,0.0,0.0,0.0,0.0,0.0,0.0,0.0,0.0,0.0,0.0,0.0,0.0,0.0,0.0,0.0,0.0,0.0,0.0,0.0,0.0,0.0,0.0,0.0,0.0,0.0,0.0,0.0,0.0,0.0,0.0,0.0,0.0,0.0,0.0,0.0,0.0,0.0,0.0,0.6852,1.2213,1.7864,-2.9509,-2.9509,-2.9509,-2.9509,-2.9509,-2.9509,-2.9509,-2.9509,-2.9509,-2.9509,-2.9509,-2.9509,-2.9509,-2.9509,-2.9509,-2.9509,-2.9509,-2.9509,-2.9509,-2.9509,-2.9509,-2.9509,-2.9509,-2.9509,-2.9509,-2.9509,-2.9509,-2.9509,-2.9509,-2.9509,-2.9509,-2.9509,-2.9509,-2.9509,-2.9509,-2.9548,-2.9772,-3.0049,-3.0259,-3.0616,-3.0906,-3.1253,-3.1319,-3.1359,-3.1359,-3.1359,-3.1359,-3.1359,-3.1359,-3.1359,-3.1359,-3.1359,-3.1359,-3.0959,-2.6361,-1.7774,-1.3481,-0.7145,0.0,0.0,0.0,0.0,0.0,0.0,0.0,0.0,0.0,0.0,0.0,0.0,0.0,0.0,0.0,0.0,0.0,0.0,0.0,0.0,0.0,0.0,0.0,0.0,0.0,0.0,0.0,0.0,0.0,0.0,0.0,0.0,0.0,0.0,0.0,0.0,0.0,0.0,0.0,0.0,0.0,0.0,0.0,0.0,0.0,0.0,0.0,0.0,0.0,0.0,0.0,0.0,0.0,0.0,0.9488,1.3481,1.8553,-2.9509,-2.9509,-2.9509,-2.9509,-2.9509,-2.9509,-2.9509,-2.9509,-2.9509,-2.9509,-2.9509,-2.9509,-2.9509,-2.9509,-2.9509,-2.9509,-2.9509,-2.9509,-2.9509,-2.9509,-2.9509,-2.9509,-2.9509,-2.9509,-2.9509,-2.9509,-2.9509,-2.9509,-2.9509,-2.9509,-2.9509,-2.9509,-2.9509,-2.9509,-2.9509,-2.9509,-2.972,-2.997,-3.018,-3.055,-3.0923,-3.1214,-3.1319,-3.1359,-3.1359,-3.1359,-3.1359,-3.1359,-3.1359,-3.1359,-3.1359,-3.1359,-3.1359,-3.0863,-2.8116,-1.8447,-1.1335,0.0,0.0,0.0,0.0,0.0,0.0,0.0,0.0,0.0,0.0,0.0,0.0,0.0,0.0,0.0,0.0,0.0,0.0,0.0,0.0,0.0,0.0,0.0,0.0,0.0,0.0,0.0,0.0,0.0,0.0,0.0,0.0,0.0,0.0,0.0,0.0,0.0,0.0,0.0,0.0,0.0,0.0,0.0,0.0,0.0,0.0,0.0,0.0,0.0,0.0,0.0,0.0,0.0,0.0,0.0,1.173,1.4072,1.8066,-2.9509,-2.9509,-2.9509,-2.9509,-2.9509,-2.9509,-2.9509,-2.9509,-2.9509,-2.9509,-2.9509,-2.9509,-2.9509,-2.9509,-2.9509,-2.9509,-2.9509,-2.9509,-2.9509,-2.9509,-2.9509,-2.9509,-2.9509,-2.9509,-2.9509,-2.9509,-2.9509,-2.9509,-2.9509,-2.9509,-2.9509,-2.9509,-2.9509,-2.9509,-2.9509,-2.9535,-2.9654,-2.9904,-3.0194,-3.0498,-3.0761,-3.1161,-3.1333,-3.1359,-3.1359,-3.1359,-3.1359,-3.1359,-3.1359,-3.1359,-3.1359,-3.1359,-3.1359,-3.1359,-2.7922,-2.2051,-1.3091,-0.646,0.0,0.0,0.0,0.0,0.0,0.0,0.0,0.0,0.0,0.0,0.0,0.0,0.0,0.0,0.0,0.0,0.0,0.0,0.0,0.0,0.0,0.0,0.0,0.0,0.0,0.0,0.0,0.0,0.0,0.0,0.0,0.0,0.0,0.0,0.0,0.0,0.0,0.0,0.0,0.0,0.0,0.0,0.0,0.0,0.0,0.0,0.0,0.0,0.0,0.0,0.0,0.0,0.0,0.0,1.3389,1.5436,1.8261,-2.9509,-2.9509,-2.9509,-2.9509,-2.9509,-2.9509,-2.9509,-2.9509,-2.9509,-2.9509,-2.9509,-2.9509,-2.9509,-2.9509,-2.9509,-2.9509,-2.9509,-2.9509,-2.9509,-2.9509,-2.9509,-2.9509,-2.9509,-2.9509,-2.9509,-2.9509,-2.9509,-2.9509,-2.9509,-2.9509,-2.9509,-2.9509,-2.9509,-2.9509,-2.9509,-2.9509,-2.9588,-2.9759,-3.0168,-3.0377,-3.0656,-3.0972,-3.1346,-3.1359,-3.1359,-3.1359,-3.1359,-3.1359,-3.1359,-3.1359,-3.1359,-3.1359,-3.1359,-3.0173,-2.6748,-2.0789,-1.3578,-0.8902,0.0,0.0,0.0,0.0,0.0,0.0,0.0,0.0,0.0,0.0,0.0,0.0,0.0,0.0,0.0,0.0,0.0,0.0,0.0,0.0,0.0,0.0,0.0,0.0,0.0,0.0,0.0,0.0,0.0,0.0,0.0,0.0,0.0,0.0,0.0,0.0,0.0,0.0,0.0,0.0,0.0,0.0,0.0,0.0,0.0,0.0,0.0,0.0,0.0,0.0,0.0,0.0,0.0,0.0,0.0,1.719,1.9331,-2.9509,-2.9509,-2.9509,-2.9509,-2.9509,-2.9509,-2.9509,-2.9509,-2.9509,-2.9509,-2.9509,-2.9509,-2.9509,-2.9509,-2.9509,-2.9509,-2.9509,-2.9509,-2.9509,-2.9509,-2.9509,-2.9509,-2.9509,-2.9509,-2.9509,-2.9509,-2.9509,-2.9509,-2.9509,-2.9509,-2.9509,-2.9509,-2.9509,-2.9509,-2.9509,-2.9509,-2.9509,-2.9614,-3.0049,-3.0311,-3.0377,-3.0933,-3.1359,-3.1359,-3.1359,-3.1359,-3.1359,-3.1359,-3.1359,-3.1359,-3.1359,-3.1359,-3.1359,-2.8309,-2.44,-1.8066,-1.2798,-0.8706,0.0,0.0,0.0,0.0,0.0,0.0,0.0,0.0,0.0,0.0,0.0,0.0,0.0,0.0,0.0,0.0,0.0,0.0,0.0,0.0,0.0,0.0,0.0,0.0,0.0,0.0,0.0,0.0,0.0,0.0,0.0,0.0,0.0,0.0,0.0,0.0,0.0,0.0,0.0,0.0,0.0,0.0,0.0,0.0,0.0,0.0,0.0,0.0,0.0,0.0,0.0,0.0,0.0,0.0,0.0,1.719,2.0603,-2.9509,-2.9509,-2.9509,-2.9509,-2.9509,-2.9509,-2.9509,-2.9509,-2.9509,-2.9509,-2.9509,-2.9509,-2.9509,-2.9509,-2.9509,-2.9509,-2.9509,-2.9509,-2.9509,-2.9509,-2.9509,-2.9509,-2.9509,-2.9509,-2.9509,-2.9509,-2.9509,-2.9509,-2.9509,-2.9509,-2.9509,-2.9509,-2.9509,-2.9509,-2.9509,-2.9509,-2.9509,-2.9601,-3.0115,-3.0246,-3.043,-3.0959,-3.1306,-3.1359,-3.1359,-3.1359,-3.1359,-3.1359,-3.1359,-3.1359,-3.1359,-3.0669,-2.9979,-2.6349,-2.1372,-1.5332,-1.0558,-0.5876,0.0,0.0,0.0,0.0,0.0,0.0,0.0,0.0,0.0,0.0,0.0,0.0,0.0,0.0,0.0,0.0,0.0,0.0,0.0,0.0,0.0,0.0,0.0,0.0,0.0,0.0,0.0,0.0,0.0,0.0,0.0,0.0,0.0,0.0,0.0,0.0,0.0,0.0,0.0,0.0,0.0,0.0,0.0,0.0,0.0,0.0,0.0,0.0,0.0,0.0,0.0,0.0,0.0,0.0,0.0,1.7287,2.2352,-2.9509,-2.9509,-2.9509,-2.9509,-2.9509,-2.9509,-2.9509,-2.9509,-2.9509,-2.9509,-2.9509,-2.9509,-2.9509,-2.9509,-2.9509,-2.9509,-2.9509,-2.9509,-2.9509,-2.9509,-2.9509,-2.9509,-2.9509,-2.9509,-2.9509,-2.9509,-2.9509,-2.9509,-2.9509,-2.9509,-2.9509,-2.9509,-2.9509,-2.9509,-2.9509,-2.9509,-2.9509,-2.9654,-3.0049,-3.0285,-3.0377,-3.0946,-3.1346,-3.1359,-3.1359,-3.1359,-3.1359,-3.1359,-3.1359,-3.1359,-3.0959,-2.9483,-2.6737,-2.342,-1.8642,-1.2993,-0.812,-0.5484,0.0,0.0,0.0,0.0,0.0,0.0,0.0,0.0,0.0,0.0,0.0,0.0,0.0,0.0,0.0,0.0,0.0,0.0,0.0,0.0,0.0,0.0,0.0,0.0,0.0,0.0,0.0,0.0,0.0,0.0,0.0,0.0,0.0,0.0,0.0,0.0,0.0,0.0,0.0,0.0,0.0,0.0,0.0,0.0,0.0,0.0,0.0,0.0,0.0,0.0,0.0,0.0,0.0,0.0,1.1144,1.7864,2.3333,-2.9509,-2.9509,-2.9509,-2.9509,-2.9509,-2.9509,-2.9509,-2.9509,-2.9509,-2.9509,-2.9509,-2.9509,-2.9509,-2.9509,-2.9509,-2.9509,-2.9509,-2.9509,-2.9509,-2.9509,-2.9509,-2.9509,-2.9509,-2.9509,-2.9509,-2.9509,-2.9509,-2.9509,-2.9509,-2.9509,-2.9509,-2.9509,-2.9509,-2.9509,-2.9509,-2.9509,-2.9509,-2.9667,-2.9956,-3.0285,-3.0511,-3.0933,-3.1359,-3.1359,-3.1359,-3.1359,-3.1359,-3.1359,-3.1359,-3.1359,-3.1359,-2.8309,-2.4788,-2.1469,-1.6112,-0.9386,-0.558,-0.3137,0.0,0.0,0.0,0.0,0.0,0.0,0.0,0.0,0.0,0.0,0.0,0.0,0.0,0.0,0.0,0.0,0.0,0.0,0.0,0.0,0.0,0.0,0.0,0.0,0.0,0.0,0.0,0.0,0.0,0.0,0.0,0.0,0.0,0.0,0.0,0.0,0.0,0.0,0.0,0.0,0.0,0.0,0.0,0.0,0.0,0.0,0.0,0.0,0.0,0.0,0.0,0.0,0.0,0.5288,1.1242,1.8058,2.3915,-2.9509,-2.9509,-2.9509,-2.9509,-2.9509,-2.9509,-2.9509,-2.9509,-2.9509,-2.9509,-2.9509,-2.9509,-2.9509,-2.9509,-2.9509,-2.9509,-2.9509,-2.9509,-2.9509,-2.9509,-2.9509,-2.9509,-2.9509,-2.9509,-2.9509,-2.9509,-2.9509,-2.9509,-2.9509,-2.9509,-2.9509,-2.9509,-2.9509,-2.9509,-2.9509,-2.9509,-2.9509,-2.9627,-3.0009,-3.0285,-3.0456,-3.0906,-3.1333,-3.1359,-3.1359,-3.1359,-3.1359,-3.1359,-3.1359,-3.1359,-3.1359,-2.8806,-2.2352,-1.8642,-1.3481,-0.7142,-0.2941,0.0,0.0,0.0,0.0,0.0,0.0,0.0,0.0,0.0,0.0,0.0,0.0,0.0,0.0,0.0,0.0,0.0,0.0,0.0,0.0,0.0,0.0,0.0,0.0,0.0,0.0,0.0,0.0,0.0,0.0,0.0,0.0,0.0,0.0,0.0,0.0,0.0,0.0,0.0,0.0,0.0,0.0,0.0,0.0,0.0,0.0,0.0,0.0,0.0,0.0,0.0,0.0,0.0,0.3527,0.7047,1.231,1.8642,2.4497,-2.9509,-2.9509,-2.9509,-2.9509,-2.9509,-2.9509,-2.9509,-2.9509,-2.9509,-2.9509,-2.9509,-2.9509,-2.9509,-2.9509,-2.9509,-2.9509,-2.9509,-2.9509,-2.9509,-2.9509,-2.9509,-2.9509,-2.9509,-2.9509,-2.9509,-2.9509,-2.9509,-2.9509,-2.9509,-2.9509,-2.9509,-2.9509,-2.9509,-2.9509,-2.9509,-2.9509,-2.9509,-2.9548,-2.997,-3.0246,-3.0403,-3.0972,-3.1293,-3.1359,-3.1359,-3.1359,-3.1359,-3.1359,-3.1359,-3.1262,-3.1056,-2.6458,-1.9525,-1.5722,-1.1144,0.0,0.0,0.0,0.0,0.0,0.0,0.0,0.0,0.0,0.0,0.0,0.0,0.0,0.0,0.0,0.0,0.0,0.0,0.0,0.0,0.0,0.0,0.0,0.0,0.0,0.0,0.0,0.0,0.0,0.0,0.0,0.0,0.0,0.0,0.0,0.0,0.0,0.0,0.0,0.0,0.0,0.0,0.0,0.0,0.0,0.0,0.0,0.0,0.0,0.0,0.0,0.0,0.0,0.0,0.0,0.5484,0.8902,1.3676,1.9128,2.4853,-2.9509,-2.9509,-2.9509,-2.9509,-2.9509,-2.9509,-2.9509,-2.9509,-2.9509,-2.9509,-2.9509,-2.9509,-2.9509,-2.9509,-2.9509,-2.9509,-2.9509,-2.9509,-2.9509,-2.9509,-2.9509,-2.9509,-2.9509,-2.9509,-2.9509,-2.9509,-2.9509,-2.9509,-2.9509,-2.9509,-2.9509,-2.9509,-2.9509,-2.9509,-2.9509,-2.9509,-2.9509,-2.9601,-2.9825,-3.0142,-3.039,-3.092,-3.1359,-3.1359,-3.1359,-3.1359,-3.1359,-3.1359,-3.1359,-3.0959,-2.86,-2.3808,-1.7475,-1.2798,0.0,0.0,0.0,0.0,0.0,0.0,0.0,0.0,0.0,0.0,0.0,0.0,0.0,0.0,0.0,0.0,0.0,0.0,0.0,0.0,0.0,0.0,0.0,0.0,0.0,0.0,0.0,0.0,0.0,0.0,0.0,0.0,0.0,0.0,0.0,0.0,0.0,0.0,0.0,0.0,0.0,0.0,0.0,0.0,0.0,0.0,0.0,0.0,0.0,0.0,0.0,0.0,0.0,0.0,0.0,0.0,0.7435,1.2993,1.8447,2.341,2.672,-2.9509,-2.9509,-2.9509,-2.9509,-2.9509,-2.9509,-2.9509,-2.9509,-2.9509,-2.9509,-2.9509,-2.9509,-2.9509,-2.9509,-2.9509,-2.9509,-2.9509,-2.9509,-2.9509,-2.9509,-2.9509,-2.9509,-2.9509,-2.9509,-2.9509,-2.9509,-2.9509,-2.9509,-2.9509,-2.9509,-2.9509,-2.9509,-2.9509,-2.9509,-2.9509,-2.9509,-2.9509,-2.9509,-2.9522,-2.9825,-3.0298,-3.0959,-3.1306,-3.1359,-3.1359,-3.1359,-3.1359,-3.1359,-3.0476,-2.9882,-2.5768,-2.0886,-1.504,-1.007,-0.5386,0.0,0.0,0.0,0.0,0.0,0.0,0.0,0.0,0.0,0.0,0.0,0.0,0.0,0.0,0.0,0.0,0.0,0.0,0.0,0.0,0.0,0.0,0.0,0.0,0.0,0.0,0.0,0.0,0.0,0.0,0.0,0.0,0.0,0.0,0.0,0.0,0.0,0.0,0.0,0.0,0.0,0.0,0.0,0.0,0.0,0.0,0.0,0.0,0.0,0.0,0.0,0.0,0.0,0.0,0.5873,0.9972,1.5917,2.2537,2.6465,2.9802,-2.9509,-2.9509,-2.9509,-2.9509,-2.9509,-2.9509,-2.9509,-2.9509,-2.9509,-2.9509,-2.9509,-2.9509,-2.9509,-2.9509,-2.9509,-2.9509,-2.9509,-2.9509,-2.9509,-2.9509,-2.9509,-2.9509,-2.9509,-2.9509,-2.9509,-2.9509,-2.9509,-2.9509,-2.9509,-2.9509,-2.9509,-2.9509,-2.9509,-2.9509,-2.9509,-2.9509,-2.9509,-2.9509,-2.9522,-2.9812,-3.0379,-3.0933,-3.1359,-3.1359,-3.1359,-3.1359,-3.1359,-3.1359,-2.9592,-2.6349,-2.3323,-1.9128,-1.114,-0.8409,-0.5386,0.0,0.0,0.0,0.0,0.0,0.0,0.0,0.0,0.0,0.0,0.0,0.0,0.0,0.0,0.0,0.0,0.0,0.0,0.0,0.0,0.0,0.0,0.0,0.0,0.0,0.0,0.0,0.0,0.0,0.0,0.0,0.0,0.0,0.0,0.0,0.0,0.0,0.0,0.0,0.0,0.0,0.0,0.0,0.0,0.0,0.0,0.0,0.0,0.0,0.0,0.0,0.0,0.0,0.0,0.8022,1.2316,1.746,2.334,2.7938,3.0415,-2.9509,-2.9509,-2.9509,-2.9509,-2.9509,-2.9509,-2.9509,-2.9509,-2.9509,-2.9509,-2.9509,-2.9509,-2.9509,-2.9509,-2.9509,-2.9509,-2.9509,-2.9509,-2.9509,-2.9509,-2.9509,-2.9509,-2.9509,-2.9509,-2.9509,-2.9509,-2.9509,-2.9509,-2.9509,-2.9509,-2.9509,-2.9509,-2.9509,-2.9509,-2.9509,-2.9509,-2.9509,-2.9561,-2.9667,-2.9957,-3.0405,-3.0801,-3.1214,-3.1306,-3.1359,-3.1359,-3.1359,-3.1359,-2.8697,-2.4099,-2.0983,-1.543,-0.9679,-0.5582,-0.2745,0.0,0.0,0.0,0.0,0.0,0.0,0.0,0.0,0.0,0.0,0.0,0.0,0.0,0.0,0.0,0.0,0.0,0.0,0.0,0.0,0.0,0.0,0.0,0.0,0.0,0.0,0.0,0.0,0.0,0.0,0.0,0.0,0.0,0.0,0.0,0.0,0.0,0.0,0.0,0.0,0.0,0.0,0.0,0.0,0.0,0.0,0.0,0.0,0.0,0.0,0.0,0.0,0.0,0.0,0.9972,1.4145,1.8684,2.4341,2.8262,2.9789,-2.9509,-2.9509,-2.9509,-2.9509,-2.9509,-2.9509,-2.9509,-2.9509,-2.9509,-2.9509,-2.9509,-2.9509,-2.9509,-2.9509,-2.9509,-2.9509,-2.9509,-2.9509,-2.9509,-2.9509,-2.9509,-2.9509,-2.9509,-2.9509,-2.9509,-2.9509,-2.9509,-2.9509,-2.9509,-2.9509,-2.9509,-2.9509,-2.9509,-2.9509,-2.9509,-2.9509,-2.9509,-2.9535,-2.9772,-3.0049,-3.0392,-3.0709,-3.1068,-3.1333,-3.1359,-3.1359,-3.1359,-3.0366,-2.762,-2.2449,-1.7085,-1.1823,-0.6558,-0.2452,0.0,0.0,0.0,0.0,0.0,0.0,0.0,0.0,0.0,0.0,0.0,0.0,0.0,0.0,0.0,0.0,0.0,0.0,0.0,0.0,0.0,0.0,0.0,0.0,0.0,0.0,0.0,0.0,0.0,0.0,0.0,0.0,0.0,0.0,0.0,0.0,0.0,0.0,0.0,0.0,0.0,0.0,0.0,0.0,0.0,0.0,0.0,0.0,0.0,0.0,0.0,0.0,0.0,0.0,0.5873,1.2013,1.6064,2.0006,2.4877,2.9182,3.0405,-2.9509,-2.9509,-2.9509,-2.9509,-2.9509,-2.9509,-2.9509,-2.9509,-2.9509,-2.9509,-2.9509,-2.9509,-2.9509,-2.9509,-2.9509,-2.9509,-2.9509,-2.9509,-2.9509,-2.9509,-2.9509,-2.9509,-2.9509,-2.9509,-2.9509,-2.9509,-2.9509,-2.9509,-2.9509,-2.9509,-2.9509,-2.9509,-2.9509,-2.9509,-2.9509,-2.9509,-2.9509,-2.9561,-2.9825,-3.0048,-3.0298,-3.0695,-3.1068,-3.1113,-3.0959,-3.0572,-2.9786,-2.6543,-2.2246,-1.6988,-1.1823,-0.6656,-0.2549,0.0,0.0,0.0,0.0,0.0,0.0,0.0,0.0,0.0,0.0,0.0,0.0,0.0,0.0,0.0,0.0,0.0,0.0,0.0,0.0,0.0,0.0,0.0,0.0,0.0,0.0,0.0,0.0,0.0,0.0,0.0,0.0,0.0,0.0,0.0,0.0,0.0,0.0,0.0,0.0,0.0,0.0,0.0,0.0,0.0,0.0,0.0,0.0,0.0,0.0,0.0,0.0,0.0,0.0,0.0,0.7514,1.3756,1.8458,2.2356,2.6099,2.9708,3.0194,-2.9509,-2.9509,-2.9509,-2.9509,-2.9509,-2.9509,-2.9509,-2.9509,-2.9509,-2.9509,-2.9509,-2.9509,-2.9509,-2.9509,-2.9509,-2.9509,-2.9509,-2.9509,-2.9509,-2.9509,-2.9509,-2.9509,-2.9509,-2.9509,-2.9509,-2.9509,-2.9509,-2.9509,-2.9509,-2.9509,-2.9509,-2.9509,-2.9509,-2.9509,-2.9509,-2.9509,-2.9509,-2.9575,-2.9944,-3.0154,-3.0364,-3.0814,-3.124,-3.1139,-2.86,-2.7136,-2.6748,-2.2051,-1.6891,-1.1627,-0.646,-0.2354,0.0,0.0,0.0,0.0,0.0,0.0,0.0,0.0,0.0,0.0,0.0,0.0,0.0,0.0,0.0,0.0,0.0,0.0,0.0,0.0,0.0,0.0,0.0,0.0,0.0,0.0,0.0,0.0,0.0,0.0,0.0,0.0,0.0,0.0,0.0,0.0,0.0,0.0,0.0,0.0,0.0,0.0,0.0,0.0,0.0,0.0,0.0,0.0,0.0,0.0,0.0,0.0,0.0,0.0,0.0,0.0,0.8923,1.4894,2.0106,2.4538,2.7884,2.9502,2.9983,-2.9509,-2.9509,-2.9509,-2.9509,-2.9509,-2.9509,-2.9509,-2.9509,-2.9509,-2.9509,-2.9509,-2.9509,-2.9509,-2.9509,-2.9509,-2.9509,-2.9509,-2.9509,-2.9509,-2.9509,-2.9509,-2.9509,-2.9509,-2.9509,-2.9509,-2.9509,-2.9509,-2.9509,-2.9509,-2.9509,-2.9509,-2.9509,-2.9509,-2.9509,-2.9509,-2.9509,-2.9509,-2.9601,-3.001,-3.0193,-3.0364,-3.0867,-3.1253,-3.0863,-2.6446,-2.3517,-2.1177,-1.6696,-1.153,-0.6656,0.0,0.0,0.0,0.0,0.0,0.0,0.0,0.0,0.0,0.0,0.0,0.0,0.0,0.0,0.0,0.0,0.0,0.0,0.0,0.0,0.0,0.0,0.0,0.0,0.0,0.0,0.0,0.0,0.0,0.0,0.0,0.0,0.0,0.0,0.0,0.0,0.0,0.0,0.0,0.0,0.0,0.0,0.0,0.0,0.0,0.0,0.0,0.0,0.0,0.0,0.0,0.0,0.0,0.0,0.0,0.0,0.0,0.6563,1.1627,1.6261,2.1244,2.5476,2.853,2.9017,2.9786,-2.9509,-2.9509,-2.9509,-2.9509,-2.9509,-2.9509,-2.9509,-2.9509,-2.9509,-2.9509,-2.9509,-2.9509,-2.9509,-2.9509,-2.9509,-2.9509,-2.9509,-2.9509,-2.9509,-2.9509,-2.9509,-2.9509,-2.9509,-2.9509,-2.9509,-2.9509,-2.9509,-2.9509,-2.9509,-2.9509,-2.9509,-2.9509,-2.9509,-2.9509,-2.9509,-2.9509,-2.9509,-2.9575,-2.9878,-3.0048,-3.0285,-3.0031,-3.0027,-2.9421,-2.5251,-2.0886,-1.6209,-1.134,-0.6452,0.0,-0.0393,0.0,0.0,0.0,0.0,0.0,0.0,0.0,0.0,0.0,0.0,0.0,0.0,0.0,0.0,0.0,0.0,0.0,0.0,0.0,0.0,0.0,0.0,0.0,0.0,0.0,0.0,0.0,0.0,0.0,0.0,0.0,0.0,0.0,0.0,0.0,0.0,0.0,0.0,0.0,0.0,0.0,0.0,0.0,0.0,0.0,0.0,0.0,0.0,0.0,0.0,0.0,0.0,0.0,0.0,0.0,0.4607,1.0131,1.5323,1.9899,2.3658,2.7116,2.9653,2.9667,2.968,-2.9509,-2.9509,-2.9509,-2.9509,-2.9509,-2.9509,-2.9509,-2.9509,-2.9509,-2.9509,-2.9509,-2.9509,-2.9509,-2.9509,-2.9509,-2.9509,-2.9509,-2.9509,-2.9509,-2.9509,-2.9509,-2.9509,-2.9509,-2.9509,-2.9509,-2.9509,-2.9509,-2.9509,-2.9509,-2.9509,-2.9509,-2.9509,-2.9509,-2.9509,-2.9509,-2.9509,-2.9509,-2.9561,-2.9799,-2.9997,-2.9795,-2.77,-2.6707,-2.5454,-2.152,-1.6404,-1.1237,-0.6069,0.0,0.0,0.0,0.0,0.0,0.0,0.0,0.0,0.0,0.0,0.0,0.0,0.0,0.0,0.0,0.0,0.0,0.0,0.0,0.0,0.0,0.0,0.0,0.0,0.0,0.0,0.0,0.0,0.0,0.0,0.0,0.0,0.0,0.0,0.0,0.0,0.0,0.0,0.0,0.0,0.0,0.0,0.0,0.0,0.0,0.0,0.0,0.0,0.0,0.0,0.0,0.0,0.0,0.0,0.0,0.0,0.0,0.1717,0.77,1.3365,1.8206,2.2331,2.6371,2.9155,2.9405,2.9588,2.9561,-2.9509,-2.9509,-2.9509,-2.9509,-2.9509,-2.9509,-2.9509,-2.9509,-2.9509,-2.9509,-2.9509,-2.9509,-2.9509,-2.9509,-2.9509,-2.9509,-2.9509,-2.9509,-2.9509,-2.9509,-2.9509,-2.9509,-2.9509,-2.9509,-2.9509,-2.9509,-2.9509,-2.9509,-2.9509,-2.9509,-2.9509,-2.9509,-2.9509,-2.9509,-2.9509,-2.9509,-2.9509,-2.9548,-2.8721,-2.7713,-2.7278,-2.4483,-2.2859,-2.2441,-1.8244,-1.385,-0.9897,-0.3502,0.0,0.0,0.0,0.0,0.0,0.0,0.0,0.0,0.0,0.0,0.0,0.0,0.0,0.0,0.0,0.0,0.0,0.0,0.0,0.0,0.0,0.0,0.0,0.0,0.0,0.0,0.0,0.0,0.0,0.0,0.0,0.0,0.0,0.0,0.0,0.0,0.0,0.0,0.0,0.0,0.0,0.0,0.0,0.0,0.0,0.0,0.0,0.0,0.0,0.0,0.0,0.0,0.0,0.0,0.0,0.6522,0.471,0.8262,1.3324,1.6247,2.0113,2.4314,2.7438,2.9235,2.9444,2.9522,2.9509,-2.9509,-2.9509,-2.9509,-2.9509,-2.9509,-2.9509,-2.9509,-2.9509,-2.9509,-2.9509,-2.9509,-2.9509,-2.9509,-2.9509,-2.9509,-2.9509,-2.9509,-2.9509,-2.9509,-2.9509,-2.9509,-2.9509,-2.9509,-2.9509,-2.9509,-2.9509,-2.9509,-2.9509,-2.9509,-2.9509,-2.9509,-2.9509,-2.9509,-2.9509,-2.9509,-2.9509,-2.9509,-2.8961,-2.5473,-2.3838,-2.3832,-2.2601,-2.2316,-2.2124,-1.7133,-1.3631,-1.1352,0.0,0.0,0.0,0.0,0.0,0.0,0.0,0.0,0.0,0.0,0.0,0.0,0.0,0.0,0.0,0.0,0.0,0.0,0.0,0.0,0.0,0.0,0.0,0.0,0.0,0.0,0.0,0.0,0.0,0.0,0.0,0.0,0.0,0.0,0.0,0.0,0.0,0.0,0.0,0.0,0.0,0.0,0.0,0.0,0.0,0.0,0.0,0.0,0.0,0.0,0.0,0.0,0.0,0.0,0.0,0.0,0.6512,0.9365,1.5081,1.9246,1.9843,2.2323,2.5645,2.7572,2.8895,2.9509,2.9509,2.9509,-2.9509,-2.9509,-2.9509,-2.9509,-2.9509,-2.9509,-2.9509,-2.9509,-2.9509,-2.9509,-2.9509,-2.9509,-2.9509,-2.9509,-2.9509,-2.9509,-2.9509,-2.9509,-2.9509,-2.9509,-2.9509,-2.9509,-2.9509,-2.9509,-2.9509,-2.9509,-2.9509,-2.9509,-2.9509,-2.9509,-2.9509,-2.9509,-2.9509,-2.9509,-2.9509,-2.9509,-2.9509,-2.9326,-2.7486,-2.6882,-2.569,-2.0886,-1.7721,-1.6658,-0.9858,-0.5992,-0.5421,0.0,0.0,0.0,0.0,0.0,0.0,0.0,0.0,0.0,0.0,0.0,0.0,0.0,0.0,0.0,0.0,0.0,0.0,0.0,0.0,0.0,0.0,0.0,0.0,0.0,0.0,0.0,0.0,0.0,0.0,0.0,0.0,0.0,0.0,0.0,0.0,0.0,0.0,0.0,0.0,0.0,0.0,0.0,0.0,0.0,0.0,0.0,0.0,0.0,0.0,0.0,0.0,0.0,0.0,0.0,0.2316,0.7208,1.1535,1.6604,2.3425,2.3974,2.3974,2.6377,2.9065,2.9509,2.9509,2.9509,2.9509,-2.9509,-2.9509,-2.9509,-2.9509,-2.9509,-2.9509,-2.9509,-2.9509,-2.9509,-2.9509,-2.9509,-2.9509,-2.9509,-2.9509,-2.9509,-2.9509,-2.9509,-2.9509,-2.9509,-2.9509,-2.9509,-2.9509,-2.9509,-2.9509,-2.9509,-2.9509,-2.9509,-2.9509,-2.9509,-2.9509,-2.9509,-2.9509,-2.9509,-2.9509,-2.9509,-2.8035,-2.72,-2.6834,-2.433,-2.2671,-2.1948,-1.5783,-1.2492,-1.1758,-0.6015,-0.1418,0.0,0.0,0.0,0.0,0.0,0.0,0.0,0.0,0.0,0.0,0.0,0.0,0.0,0.0,0.0,0.0,0.0,0.0,0.0,0.0,0.0,0.0,0.0,0.0,0.0,0.0,0.0,0.0,0.0,0.0,0.0,0.0,0.0,0.0,0.0,0.0,0.0,0.0,0.0,0.0,0.0,0.0,0.0,0.0,0.0,0.0,0.0,0.0,0.0,0.0,0.0,0.0,0.0,0.0,0.0,0.0,0.0,0.8131,1.2186,1.7616,2.5073,2.7852,2.72,2.8491,2.9326,2.9509,2.9509,2.9509,2.9509,-2.9496,-2.9496,-2.9509,-2.9509,-2.9509,-2.9509,-2.9509,-2.9509,-2.9509,-2.9509,-2.9509,-2.9509,-2.9509,-2.9509,-2.9509,-2.9509,-2.9509,-2.9509,-2.9509,-2.9509,-2.9509,-2.9509,-2.9509,-2.9509,-2.9509,-2.9509,-2.9417,-2.9144,-2.84,-2.8583,-2.8491,-2.8961,-2.8217,-2.7657,-2.8961,-2.4249,-2.2223,-2.0755,-1.4482,-0.9604,-0.767,-0.8504,-0.8142,-0.7861,-0.6851,-0.4174,0.0,0.0,0.0,0.0,0.0,0.0,0.0,0.0,0.0,0.0,0.0,0.0,0.0,0.0,0.0,0.0,0.0,0.0,0.0,0.0,0.0,0.0,0.0,0.0,0.0,0.0,0.0,0.0,0.0,0.0,0.0,0.0,0.0,0.0,0.0,0.0,0.0,0.0,0.0,0.0,0.0,0.0,0.0,0.0,0.0,0.0,0.0,0.0,0.0,0.0,0.0,0.0,0.0,0.0,0.0,0.0,0.0,1.0618,1.4672,1.9452,2.6926,2.9052,2.8765,2.8765,2.9144,2.9509,2.9509,2.9509,2.9509,-2.9047,-2.9336,-2.9521,-2.9509,-2.9509,-2.9509,-2.9509,-2.9509,-2.9509,-2.9509,-2.9509,-2.9509,-2.9509,-2.9509,-2.9509,-2.9509,-2.9509,-2.9509,-2.9509,-2.9509,-2.9509,-2.9509,-2.9509,-2.9509,-2.9509,-2.9052,-2.6285,-2.2681,-2.0278,-2.2875,-2.2681,-1.9828,-1.9544,-1.9544,-1.9361,-1.8075,-1.7156,-1.6788,-1.412,-1.2278,-1.1904,-0.9143,-0.7393,-0.6931,-0.4072,-0.1576,0.0,0.0,0.0,0.0,0.0,0.0,0.0,0.0,0.0,0.0,0.0,0.0,0.0,0.0,0.0,0.0,0.0,0.0,0.0,0.0,0.0,0.0,0.0,0.0,0.0,0.0,0.0,0.0,0.0,0.0,0.0,0.0,0.0,0.0,0.0,0.0,0.0,0.0,0.0,0.0,0.0,0.0,0.0,0.0,0.0,0.0,0.0,0.0,0.0,0.0,0.0,0.0,0.0,0.0,0.0,0.0,0.7577,1.3107,1.8075,2.2681,2.6274,2.8765,2.9509,2.9417,2.9509,2.9509,2.9509,2.9509,2.9509,-2.8665,-2.8968,-2.9245,-2.9364,-2.9377,-2.956,-2.9509,-2.9509,-2.9509,-2.9509,-2.9509,-2.9509,-2.9509,-2.9509,-2.9509,-2.9509,-2.9509,-2.9509,-2.9509,-2.9509,-2.9509,-2.9509,-2.9326,-2.7565,-2.6926,-2.6194,-2.1856,-1.7799,-1.5409,-1.7891,-1.7799,-1.5126,-1.4758,-1.4758,-1.439,-1.3015,-1.2088,-1.1909,-1.0157,-0.9424,-0.8685,-0.6379,-0.4718,-0.4535,-0.1576,0.0,0.0,0.0,0.0,0.0,0.0,0.0,0.0,0.0,0.0,0.0,0.0,0.0,0.0,0.0,0.0,0.0,0.0,0.0,0.0,0.0,0.0,0.0,0.0,0.0,0.0,0.0,0.0,0.0,0.0,0.0,0.0,0.0,0.0,0.0,0.0,0.0,0.0,0.0,0.0,0.0,0.0,0.0,0.0,0.0,0.0,0.0,0.0,0.0,0.0,0.0,0.0,0.0,0.0,0.0,0.0,0.0,0.8408,1.3752,1.8726,2.3241,2.7383,2.9509,2.9509,2.9509,2.9509,2.9509,2.9509,2.9509,2.9509,-2.8362,-2.8652,-2.8942,-2.906,-2.91,-2.9455,-2.9482,-2.9469,-2.9496,-2.9509,-2.9509,-2.9509,-2.9496,-2.9469,-2.9496,-2.9509,-2.9509,-2.9509,-2.9326,-2.8765,-2.887,-2.8961,-2.8583,-2.4158,-2.1856,-2.1398,-1.688,-1.458,-1.4758,-1.458,-1.4396,-1.3844,-1.3291,-1.3752,-1.2738,-0.9054,-0.7115,-0.6749,-0.3148,0.0,0.0,0.0,0.0,0.0,0.0,0.0,0.0,0.0,0.0,0.0,0.0,0.0,0.0,0.0,0.0,0.0,0.0,0.0,0.0,0.0,0.0,0.0,0.0,0.0,0.0,0.0,0.0,0.0,0.0,0.0,0.0,0.0,0.0,0.0,0.0,0.0,0.0,0.0,0.0,0.0,0.0,0.0,0.0,0.0,0.0,0.0,0.0,0.0,0.0,0.0,0.0,0.0,0.0,0.0,0.0,0.0,0.0,0.0,0.0,0.0,0.0,0.4257,0.9147,1.412,1.992,2.4615,2.8035,2.9509,2.9509,2.9509,2.9509,2.9509,2.9509,2.9509,2.9509,-2.8072,-2.8234,-2.8414,-2.8573,-2.8797,-2.9087,-2.9219,-2.9245,-2.943,-2.9509,-2.9509,-2.9509,-2.9403,-2.9258,-2.9521,-2.9509,-2.9509,-2.9509,-2.7669,-2.4341,-2.4168,-2.2223,-1.8993,-1.7248,-1.6788,-1.6053,-1.1817,-1.1264,-1.412,-1.1351,-0.7485,-0.4535,-0.4074,-0.4074,-0.3889,-0.2872,-0.2038,0.0,0.0,0.0,0.0,0.0,0.0,0.0,0.0,0.0,0.0,0.0,0.0,0.0,0.0,0.0,0.0,0.0,0.0,0.0,0.0,0.0,0.0,0.0,0.0,0.0,0.0,0.0,0.0,0.0,0.0,0.0,0.0,0.0,0.0,0.0,0.0,0.0,0.0,0.0,0.0,0.0,0.0,0.0,0.0,0.0,0.0,0.0,0.0,0.0,0.0,0.0,0.0,0.0,0.0,0.0,0.0,0.0,0.0,0.0,0.0,0.0,0.0,0.0,0.0,0.0,1.4022,1.5961,2.2956,2.7748,2.9144,2.9509,2.9509,2.9509,2.9509,2.9509,2.9482,2.9509,2.9509,-2.7887,-2.8045,-2.8045,-2.8116,-2.8405,-2.8784,-2.8915,-2.8929,-2.91,-2.9166,-2.9166,-2.9153,-2.7981,-2.6115,-2.6258,-2.5233,-2.3493,-2.3493,-2.1813,-1.9339,-1.9156,-1.7636,-1.4666,-1.2825,-1.1725,-1.1356,-0.6749,-0.5828,-0.7765,-0.5828,-0.2963,0.0,0.0,0.0,0.0,0.0,0.0,0.0,0.0,0.0,0.0,0.0,0.0,0.0,0.0,0.0,0.0,0.0,0.0,0.0,0.0,0.0,0.0,0.0,0.0,0.0,0.0,0.0,0.0,0.0,0.0,0.0,0.0,0.0,0.0,0.0,0.0,0.0,0.0,0.0,0.0,0.0,0.0,0.0,0.0,0.0,0.0,0.0,0.0,0.0,0.0,0.0,0.0,0.0,0.0,0.0,0.0,0.0,0.0,0.0,0.0,0.0,0.0,0.0,0.0,0.0,0.0,0.0,0.0,0.0,0.0,0.0,1.5593,1.7616,2.4249,2.8765,2.9482,2.9509,2.9509,2.9509,2.9509,2.9469,2.9364,2.9351,2.9271,-2.7729,-2.7755,-2.7755,-2.7913,-2.819,-2.8392,-2.8524,-2.8524,-2.8563,-2.855,-2.8409,-2.8068,-2.5474,-2.198,-2.1388,-1.9081,-1.5406,-1.4863,-1.467,-1.4241,-1.4067,-1.3773,-1.259,-0.8746,-0.6728,-0.6175,-0.24,0.0,0.0,0.0,0.0,0.0,0.0,0.0,0.0,0.0,0.0,0.0,0.0,0.0,0.0,0.0,0.0,0.0,0.0,0.0,0.0,0.0,0.0,0.0,0.0,0.0,0.0,0.0,0.0,0.0,0.0,0.0,0.0,0.0,0.0,0.0,0.0,0.0,0.0,0.0,0.0,0.0,0.0,0.0,0.0,0.0,0.0,0.0,0.0,0.0,0.0,0.0,0.0,0.0,0.0,0.0,0.0,0.0,0.0,0.0,0.0,0.0,0.0,0.0,0.0,0.0,0.0,0.0,0.0,0.0,0.0,0.0,0.0,0.0,0.6564,1.1448,1.6589,2.0507,2.6124,2.913,2.9403,2.943,2.939,2.9311,2.9311,2.9324,2.914,2.906,2.8915,-2.7241,-2.7452,-2.7537,-2.7623,-2.7913,-2.819,-2.8309,-2.8335,-2.8458,-2.8401,-2.7525,-2.4323,-2.2274,-2.0966,-1.7831,-1.5749,-1.4857,-1.4767,-1.2641,-0.9269,-0.9089,-0.703,-0.3437,-0.2263,-0.163,-0.154,-0.0634,0.0,0.0,0.0,0.0,0.0,0.0,0.0,0.0,0.0,0.0,0.0,0.0,0.0,0.0,0.0,0.0,0.0,0.0,0.0,0.0,0.0,0.0,0.0,0.0,0.0,0.0,0.0,0.0,0.0,0.0,0.0,0.0,0.0,0.0,0.0,0.0,0.0,0.0,0.0,0.0,0.0,0.0,0.0,0.0,0.0,0.0,0.0,0.0,0.0,0.0,0.0,0.0,0.0,0.0,0.0,0.0,0.0,0.0,0.0,0.0,0.0,0.0,0.0,0.0,0.0,0.0,0.0,0.0,0.0,0.0,0.0,0.2962,0.5633,0.8308,1.5034,2.0516,2.2115,2.6094,2.8663,2.8902,2.8773,2.88,2.8902,2.8915,2.8863,2.8784,2.8681,2.8599,-2.692,-2.7135,-2.7149,-2.7241,-2.7327,-2.7702,-2.7887,-2.8006,-2.7814,-2.655,-2.4246,-2.1957,-1.8587,-1.4698,-1.2309,-1.0073,-0.8047,-0.8047,-0.6563,-0.4103,-0.4016,-0.2595,0.0,0.0,0.0,0.0,0.0,0.0,0.0,0.0,0.0,0.0,0.0,0.0,0.0,0.0,0.0,0.0,0.0,0.0,0.0,0.0,0.0,0.0,0.0,0.0,0.0,0.0,0.0,0.0,0.0,0.0,0.0,0.0,0.0,0.0,0.0,0.0,0.0,0.0,0.0,0.0,0.0,0.0,0.0,0.0,0.0,0.0,0.0,0.0,0.0,0.0,0.0,0.0,0.0,0.0,0.0,0.0,0.0,0.0,0.0,0.0,0.0,0.0,0.0,0.0,0.0,0.0,0.0,0.0,0.0,0.0,0.0,0.0,0.0,0.0,0.0,0.0,0.0,0.7763,1.1092,1.632,2.2015,2.4804,2.697,2.8569,2.8616,2.8563,2.8563,2.8563,2.8563,2.8563,2.8537,2.8445,2.8256,-2.6723,-2.6762,-2.6762,-2.6789,-2.6841,-2.7188,-2.7439,-2.7623,-2.7051,-2.4791,-2.1276,-2.062,-1.5686,-0.7861,-0.7158,-0.4336,0.0,0.0,0.0,0.0,0.0,0.0,0.0,0.0,0.0,0.0,0.0,0.0,0.0,0.0,0.0,0.0,0.0,0.0,0.0,0.0,0.0,0.0,0.0,0.0,0.0,0.0,0.0,0.0,0.0,0.0,0.0,0.0,0.0,0.0,0.0,0.0,0.0,0.0,0.0,0.0,0.0,0.0,0.0,0.0,0.0,0.0,0.0,0.0,0.0,0.0,0.0,0.0,0.0,0.0,0.0,0.0,0.0,0.0,0.0,0.0,0.0,0.0,0.0,0.0,0.0,0.0,0.0,0.0,0.0,0.0,0.0,0.0,0.0,0.0,0.0,0.0,0.0,0.0,0.0,0.0,0.0,0.0,0.0,0.9907,1.3505,1.9016,2.3987,2.811,2.8464,2.8484,2.8405,2.8445,2.8392,2.8366,2.8366,2.8392,2.8379,2.8103,2.7847,-2.6263,-2.6473,-2.6486,-2.6618,-2.6828,-2.6867,-2.6933,-2.6973,-2.6867,0.0,0.0,-2.1725,-1.7191,-1.2063,-0.8207,-0.4155,0.0,0.0,0.0,0.0,0.0,0.0,0.0,0.0,0.0,0.0,0.0,0.0,0.0,0.0,0.0,0.0,0.0,0.0,0.0,0.0,0.0,0.0,0.0,0.0,0.0,0.0,0.0,0.0,0.0,0.0,0.0,0.0,0.0,0.0,0.0,0.0,0.0,0.0,0.0,0.0,0.0,0.0,0.0,0.0,0.0,0.0,0.0,0.0,0.0,0.0,0.0,0.0,0.0,0.0,0.0,0.0,0.0,0.0,0.0,0.0,0.0,0.0,0.0,0.0,0.0,0.0,0.0,0.0,0.0,0.0,0.0,0.0,0.0,0.0,0.0,0.0,0.0,0.0,0.0,0.0,0.0,0.0,0.7161,1.3077,1.5421,2.1497,2.6867,2.8225,2.8335,2.8177,2.7992,2.794,2.7953,2.794,2.7953,2.7953,2.79,2.7433,2.7051,-2.5711,-2.583,-2.583,-2.5988,0.0,-2.641,-2.6305,-2.6041,-2.6041,-2.4726,-2.2386,-1.8188,-1.3813,-0.9441,-0.5117,-0.2026,0.0,0.0,0.0,0.0,0.0,0.0,0.0,0.0,0.0,0.0,0.0,0.0,0.0,0.0,0.0,0.0,0.0,0.0,0.0,0.0,0.0,0.0,0.0,0.0,0.0,0.0,0.0,0.0,0.0,0.0,0.0,0.0,0.0,0.0,0.0,0.0,0.0,0.0,0.0,0.0,0.0,0.0,0.0,0.0,0.0,0.0,0.0,0.0,0.0,0.0,0.0,0.0,0.0,0.0,0.0,0.0,0.0,0.0,0.0,0.0,0.0,0.0,0.0,0.0,0.0,0.0,0.0,0.0,0.0,0.0,0.0,0.0,0.0,0.0,0.0,0.0,0.0,0.0,0.0,0.0,0.0,0.0,0.5915,1.0965,1.3722,1.9844,2.5262,2.7352,2.765,2.7433,2.7373,2.7346,2.7346,2.7262,2.7262,2.7346,2.7235,2.692,2.6605,-2.4561,-2.5275,-2.5275,-2.5394,-2.5527,-2.488,-2.3926,-2.3059,-2.3771,-2.167,-1.7412,-1.4119,-1.028,-0.6005,-0.2646,-0.0751,0.0,0.0,0.0,0.0,0.0,0.0,0.0,0.0,0.0,0.0,0.0,0.0,0.0,0.0,0.0,0.0,0.0,0.0,0.0,0.0,0.0,0.0,0.0,0.0,0.0,0.0,0.0,0.0,0.0,0.0,0.0,0.0,0.0,0.0,0.0,0.0,0.0,0.0,0.0,0.0,0.0,0.0,0.0,0.0,0.0,0.0,0.0,0.0,0.0,0.0,0.0,0.0,0.0,0.0,0.0,0.0,0.0,0.0,0.0,0.0,0.0,0.0,0.0,0.0,0.0,0.0,0.0,0.0,0.0,0.0,0.0,0.0,0.0,0.0,0.0,0.0,0.0,0.0,0.1098,0.0,0.0,0.2954,0.6319,1.09,1.4716,1.9036,2.3298,2.636,2.7069,2.6841,2.6828,2.6815,2.6854,2.6828,2.6828,2.6762,2.6539,2.6397,2.6252,-2.195,-2.5262,-2.5275,-2.5302,-2.5028,-2.1002,-1.7452,-1.4874,-1.8352,-1.7598,-1.3693,-1.3256,-1.0596,-0.6573,-0.5879,-0.3504,0.0,0.0,0.0,0.0,0.0,0.0,0.0,0.0,0.0,0.0,0.0,0.0,0.0,0.0,0.0,0.0,0.0,0.0,0.0,0.0,0.0,0.0,0.0,0.0,0.0,0.0,0.0,0.0,0.0,0.0,0.0,0.0,0.0,0.0,0.0,0.0,0.0,0.0,0.0,0.0,0.0,0.0,0.0,0.0,0.0,0.0,0.0,0.0,0.0,0.0,0.0,0.0,0.0,0.0,0.0,0.0,0.0,0.0,0.0,0.0,0.0,0.0,0.0,0.0,0.0,0.0,0.0,0.0,0.0,0.0,0.0,0.0,0.0,0.0,0.0,0.0,0.0,0.0,0.4031,0.5214,0.6556,1.059,1.425,1.8497,1.8822,2.2578,2.6053,2.6661,2.6775,2.6762,2.6815,2.6789,2.6789,2.6736,2.6723,2.6447,2.5831,2.554,2.5434,-1.7611,-2.1173,-2.1184,-1.9972,-1.7912,-1.5834,-1.4041,-1.276,-1.448,-1.4295,-1.2557,-1.2557,-1.0261,-0.6204,-0.3859,-0.1782,0.0,0.0,0.0,0.0,0.0,0.0,0.0,0.0,0.0,0.0,0.0,0.0,0.0,0.0,0.0,0.0,0.0,0.0,0.0,0.0,0.0,0.0,0.0,0.0,0.0,0.0,0.0,0.0,0.0,0.0,0.0,0.0,0.0,0.0,0.0,0.0,0.0,0.0,0.0,0.0,0.0,0.0,0.0,0.0,0.0,0.0,0.0,0.0,0.0,0.0,0.0,0.0,0.0,0.0,0.0,0.0,0.0,0.0,0.0,0.0,0.0,0.0,0.0,0.0,0.0,0.0,0.0,0.0,0.0,0.0,0.0,0.0,0.0,0.0,0.0,0.0,0.0,0.0815,0.2442,0.4714,0.6904,0.909,1.2816,1.6533,1.8891,2.0996,2.3192,2.5387,2.5962,2.5962,2.5949,2.5949,2.5962,2.5962,2.5962,2.5764,2.5381,2.5275,2.5275,-1.4348,-1.7833,-1.756,-1.5843,-1.3218,-1.2289,-1.1463,-1.0649,-1.0727,-1.0218,-0.9416,-1.032,-0.8962,-0.5687,-0.2612,-0.1276,-0.1205,-0.0377,0.0,0.0,0.0,0.0,0.0,0.0,0.0,0.0,0.0,0.0,0.0,0.0,0.0,0.0,0.0,0.0,0.0,0.0,0.0,0.0,0.0,0.0,0.0,0.0,0.0,0.0,0.0,0.0,0.0,0.0,0.0,0.0,0.0,0.0,0.0,0.0,0.0,0.0,0.0,0.0,0.0,0.0,0.0,0.0,0.0,0.0,0.0,0.0,0.0,0.0,0.0,0.0,0.0,0.0,0.0,0.0,0.0,0.0,0.0,0.0,0.0,0.0,0.0,0.0,0.0,0.0,0.0,0.0,0.0,0.0,0.0,0.0,0.0,0.0,0.0,0.0,0.0,0.3451,0.6918,0.8733,1.1808,1.5331,1.9516,2.022,2.1247,2.4405,2.5275,2.5275,2.5302,2.5275,2.5209,2.4918,2.4865,2.4865,2.4852,2.4839,2.4839,-1.4129,-1.7783,-1.671,-1.6219,-1.5822,-1.2434,-0.9166,-0.6198,-0.6418,-0.4405,-0.1303,-0.4896,-0.6089,-0.5325,-0.4976,0.0,-0.4704,-0.1451,0.0,0.0,0.0,0.0,0.0,0.0,0.0,0.0,0.0,0.0,0.0,0.0,0.0,0.0,0.0,0.0,0.0,0.0,0.0,0.0,0.0,0.0,0.0,0.0,0.0,0.0,0.0,0.0,0.0,0.0,0.0,0.0,0.0,0.0,0.0,0.0,0.0,0.0,0.0,0.0,0.0,0.0,0.0,0.0,0.0,0.0,0.0,0.0,0.0,0.0,0.0,0.0,0.0,0.0,0.0,0.0,0.0,0.0,0.0,0.0,0.0,0.0,0.0,0.0,0.0,0.0,0.0,0.0,0.0,0.0,0.0,0.0,0.0,0.0,0.0,0.0,0.0,0.3384,0.8359,1.5047,1.8314,1.9668,2.3202,2.4341,2.4613,2.5196,2.5262,2.5235,2.5262,2.5196,2.4944,2.39,2.3701,2.3688,2.3741,2.3754,2.3767,-1.1101,-1.6005,-1.3284,-1.221,-1.2138,-1.0675,-0.938,-0.8244,-0.8312,-0.7489,-0.6123,-0.7668,-0.8155,-0.7806,-0.7878,0.0,0.0,0.0,-0.1867,0.0,0.0,0.0,0.0,0.0,0.0,0.0,0.0,0.0,0.0,0.0,0.0,0.0,0.0,0.0,0.0,0.0,0.0,0.0,0.0,0.0,0.0,0.0,0.0,0.0,0.0,0.0,0.0,0.0,0.0,0.0,0.0,0.0,0.0,0.0,0.0,0.0,0.0,0.0,0.0,0.0,0.0,0.0,0.0,0.0,0.0,0.0,0.0,0.0,0.0,0.0,0.0,0.0,0.0,0.0,0.0,0.0,0.0,0.0,0.0,0.0,0.0,0.0,0.0,0.0,0.0,0.0,0.0,0.0,0.0,0.0,0.0,0.0,0.0,0.0,0.0,0.1473,0.4559,1.0248,1.4986,1.8937,2.0662,2.2747,2.4129,2.4217,2.4217,2.4217,2.4217,2.4217,2.4032,2.3609,2.3516,2.3516,2.3516,2.3516,2.3516,-1.1113,0.0,0.0,0.0,0.0,-1.1195,-1.0896,-1.1101,-1.0065,-0.9584,-0.9554,-0.959,0.0,0.0,0.0,0.0,0.0,0.0,-0.3023,0.0,0.0,0.0,0.0,0.0,0.0,0.0,0.0,0.0,0.0,0.0,0.0,0.0,0.0,0.0,0.0,0.0,0.0,0.0,0.0,0.0,0.0,0.0,0.0,0.0,0.0,0.0,0.0,0.0,0.0,0.0,0.0,0.0,0.0,0.0,0.0,0.0,0.0,0.0,0.0,0.0,0.0,0.0,0.0,0.0,0.0,0.0,0.0,0.0,0.0,0.0,0.0,0.0,0.0,0.0,0.0,0.0,0.0,0.0,0.0,0.0,0.0,0.0,0.0,0.0,0.0,0.0,0.0,0.0,0.0,0.0,0.0,0.0,0.0,0.0,0.1349,0.0637,0.1341,0.5156,1.0627,1.5243,1.7327,2.0727,2.3193,2.3278,2.3259,2.3167,2.2894,2.2692,2.2692,2.2775,2.2762,2.2705,2.2775,2.2775,2.2705,0.0,0.0,0.0,0.0,-1.8573,0.0,0.0,0.0,-1.0498,-0.8998,0.0,-0.901,0.0,0.0,0.0,0.0,-0.9239,-0.5837,0.0,0.0,0.0,0.0,0.0,0.0,0.0,0.0,0.0,0.0,0.0,0.0,0.0,0.0,0.0,0.0,0.0,0.0,0.0,0.0,0.0,0.0,0.0,0.0,0.0,0.0,0.0,0.0,0.0,0.0,0.0,0.0,0.0,0.0,0.0,0.0,0.0,0.0,0.0,0.0,0.0,0.0,0.0,0.0,0.0,0.0,0.0,0.0,0.0,0.0,0.0,0.0,0.0,0.0,0.0,0.0,0.0,0.0,0.0,0.0,0.0,0.0,0.0,0.0,0.0,0.0,0.0,0.0,0.0,0.0,0.0,0.0,0.0,0.0,0.0,0.116,0.4501,0.2275,0.1256,0.4789,0.0,0.0,1.6092,2.0208,2.26,2.2613,2.2714,2.2503,2.1136,2.0913,2.0978,2.09,2.0991,2.0874,2.0874,2.0979,2.1031,0.0,0.0,0.0,0.0,0.0,0.0,0.0,0.0,0.0,-1.4727,-1.4721,-1.468,0.0,0.0,0.0,0.0,0.0,0.0,0.0,0.0,0.0,0.0,0.0,0.0,0.0,0.0,0.0,0.0,0.0,0.0,0.0,0.0,0.0,0.0,0.0,0.0,0.0,0.0,0.0,0.0,0.0,0.0,0.0,0.0,0.0,0.0,0.0,0.0,0.0,0.0,0.0,0.0,0.0,0.0,0.0,0.0,0.0,0.0,0.0,0.0,0.0,0.0,0.0,0.0,0.0,0.0,0.0,0.0,0.0,0.0,0.0,0.0,0.0,0.0,0.0,0.0,0.0,0.0,0.0,0.0,0.0,0.0,0.0,0.0,0.0,0.0,0.0,0.0,0.0,0.0,0.0,0.0,0.0,0.0,0.0,0.0,0.4575,0.7757,0.8435,1.019,1.5116,1.8966,2.1386,2.1439,0.0,0.0,2.0124,2.0147,2.0279,2.0279,2.0279,2.0342,2.0279,2.0342,2.0358,0.0,0.0,0.0,0.0,0.0,0.0,0.0,0.0,0.0,-1.7406,-1.7406,0.0,0.0,0.0,0.0,0.0,0.0,0.0,0.0,0.0,0.0,0.0,0.0,0.0,0.0,0.0,0.0,0.0,0.0,0.0,0.0,0.0,0.0,0.0,0.0,0.0,0.0,0.0,0.0,0.0,0.0,0.0,0.0,0.0,0.0,0.0,0.0,0.0,0.0,0.0,0.0,0.0,0.0,0.0,0.0,0.0,0.0,0.0,0.0,0.0,0.0,0.0,0.0,0.0,0.0,0.0,0.0,0.0,0.0,0.0,0.0,0.0,0.0,0.0,0.0,0.0,0.0,0.0,0.0,0.0,0.0,0.0,0.0,0.0,0.0,0.0,0.0,0.0,0.0,0.0,0.0,0.0,0.0,0.0,0.0,0.0,0.0,0.0,0.0,0.0,0.0,0.0,0.0,0.0,0.0,1.9778,1.9138,1.9264,1.9429,1.9323,0.0,0.0,0.0,0.0,0.0,0.0,0.0,0.0,0.0,0.0,0.0,0.0,0.0,0.0,0.0,-1.6482,0.0,0.0,-1.6519,0.0,0.0,0.0,0.0,0.0,0.0,0.0,0.0,0.0,0.0,0.0,0.0,0.0,0.0,0.0,0.0,0.0,0.0,0.0,0.0,0.0,0.0,0.0,0.0,0.0,0.0,0.0,0.0,0.0,0.0,0.0,0.0,0.0,0.0,0.0,0.0,0.0,0.0,0.0,0.0,0.0,0.0,0.0,0.0,0.0,0.0,0.0,0.0,0.0,0.0,0.0,0.0,0.0,0.0,0.0,0.0,0.0,0.0,0.0,0.0,0.0,0.0,0.0,0.0,0.0,0.0,0.0,0.0,0.0,0.0,0.0,0.0,0.0,0.0,0.0,0.0,0.0,0.0,0.0,0.1224,0.4689,0.2483,0.2351,0.0,0.0,0.0,0.0,0.0,0.0,0.0,0.0,0.0,0.0,0.0,0.0,0.0,0.0,0.0,0.0,0.0,0.0,0.0,0.0,0.0,0.0,0.0,0.0,0.0,0.0,0.0,0.0,0.0,0.0,0.0,0.0,0.0,0.0,0.0,0.0,0.0,0.0,0.0,0.0,0.0,0.0,0.0,0.0,0.0,0.0,0.0,0.0,0.0,0.0,0.0,0.0,0.0,0.0,0.0,0.0,0.0,0.0,0.0,0.0,0.0,0.0,0.0,0.0,0.0,0.0,0.0,0.0,0.0,0.0,0.0,0.0,0.0,0.0,0.0,0.0,0.0,0.0,0.0,0.0,0.0,0.0,0.0,0.0,0.0,0.0,0.0,0.0,0.0,0.0,0.0,0.0,0.0,0.0,0.0,0.0,0.0,0.0,0.0,0.0,0.0,0.0,0.0,0.0,0.0,0.0,0.0,0.0,0.0,0.0,0.0,0.1246,0.4706,0.4409,0.579,1.2026,0.0,0.0,0.0,0.0,0.0,0.0,0.0,0.0,0.0,0.0,0.0,0.0,0.0,0.0,0.0,0.0,0.0,0.0,0.0,0.0,0.0,0.0,0.0,0.0,0.0,0.0,0.0,0.0,0.0,0.0,0.0,0.0,0.0,0.0,0.0,0.0,0.0,0.0,0.0,0.0,0.0,0.0,0.0,0.0,0.0,0.0,0.0,0.0,0.0,0.0,0.0,0.0,0.0,0.0,0.0,0.0,0.0,0.0,0.0,0.0,0.0,0.0,0.0,0.0,0.0,0.0,0.0,0.0,0.0,0.0,0.0,0.0,0.0,0.0,0.0,0.0,0.0,0.0,0.0,0.0,0.0,0.0,0.0,0.0,0.0,0.0,0.0,0.0,0.0,0.0,0.0,0.0,0.0,0.0,0.0,0.0,0.0,0.0,0.0,0.0,0.0,0.0,0.0,0.0,0.0,0.0,0.0,0.0,0.0,0.0,0.0766,0.2899,0.3248,0.4931,0.9922,1.0635,0.0,0.0,0.0,0.0,0.0,0.0,0.0,0.0,0.0,0.0,0.0,0.0,0.0,0.0,0.0,0.0,0.0,0.0,0.0,0.0,0.0,0.0,0.0,0.0,0.0,0.0,0.0,0.0,0.0,0.0,0.0,0.0,0.0,0.0,0.0,0.0,0.0,0.0,0.0,0.0,0.0,0.0,0.0,0.0,0.0,0.0,0.0,0.0,0.0,0.0,0.0,0.0,0.0,0.0,0.0,0.0,0.0,0.0,0.0,0.0,0.0,0.0,0.0,0.0,0.0,0.0,0.0,0.0,0.0,0.0,0.0,0.0,0.0,0.0,0.0,0.0,0.0,0.0,0.0,0.0,0.0,0.0,0.0,0.0,0.0,0.0,0.0,0.0,0.0,0.0,0.0,0.0,0.0,0.0,0.0,0.0,0.0,0.0,0.0,0.0,0.0,0.0,0.0,0.0,0.0,0.0,0.0,0.0,0.0,0.0,0.0,0.0,0.1111,0.4296,0.0,0.0,0.0,0.0,0.0,0.0,0.0,0.0,0.0,0.0,0.0,0.0,0.0,0.0,0.0,0.0,0.0,0.0,0.0,0.0,0.0,0.0,0.0,0.0,0.0,0.0,0.0,0.0,0.0,0.0,0.0,0.0,0.0,0.0,0.0,0.0,0.0,0.0,0.0,0.0,0.0,0.0,0.0,0.0,0.0,0.0,0.0,0.0,0.0,0.0,0.0,0.0,0.0,0.0,0.0,0.0,0.0,0.0,0.0,0.0,0.0,0.0,0.0,0.0,0.0,0.0,0.0,0.0,0.0,0.0,0.0,0.0,0.0,0.0,0.0,0.0,0.0,0.0,0.0,0.0,0.0,0.0,0.0,0.0,0.0,0.0,0.0,0.0,0.0,0.0,0.0,0.0,0.0,0.0,0.0,0.0,0.0,0.0,0.0,0.0,0.0,0.0,0.0,0.0,0.0,0.0,0.0,0.0,0.0,0.0,0.0,0.0,0.0,0.0981,0.0,0.0,0.0,0.0,0.0,0.0,0.0,0.0,0.0,0.0,0.0,0.0,0.0,0.0,0.0,0.0,0.0,0.0,0.0,0.0,0.0,0.0,0.0,0.0,0.0,0.0,0.0,0.0,0.0,0.0,0.0,0.0,0.0,0.0,0.0,0.0,0.0,0.0,0.0,0.0,0.0,0.0,0.0,0.0,0.0,0.0,0.0,0.0,0.0,0.0,0.0,0.0,0.0,0.0,0.0,0.0,0.0,0.0,0.0,0.0,0.0,0.0,0.0,0.0,0.0,0.0,0.0,0.0,0.0,0.0,0.0,0.0,0.0,0.0,0.0,0.0,0.0,0.0,0.0,0.0,0.0,0.0,0.0,0.0,0.0,0.0,0.0,0.0,0.0,0.0,0.0,0.0,0.0,0.0,0.0,0.0,0.0,0.0,0.0,0.0,0.0,0.0,0.0,0.0,0.0,0.0,0.0,0.0,0.0,0.0,0.0,0.0,0.0,0.0,0.0,0.0,0.0,0.0,0.0,0.0,0.0,0.0,0.0,0.0,0.0,0.0,0.0,0.0,0.0,0.0,0.0,0.0,0.0,0.0,0.0,0.0,0.0,0.0,0.0,0.0,0.0,0.0,0.0,0.0,0.0,0.0,0.0,0.0,0.0,0.0,0.0,0.0,0.0,0.0,0.0,0.0,0.0,0.0,0.0,0.0,0.0,0.0,0.0,0.0,0.0,0.0,0.0,0.0,0.0,0.0,0.0,0.0,0.0,0.0,0.0,0.0,0.0,0.0,0.0,0.0,0.0,0.0,0.0,0.0,0.0,0.0,0.0,0.0,0.0,0.0,0.0,0.0,0.0,0.0,0.0,0.0,0.0,0.0,0.0,0.0,0.0,0.0,0.0,0.0,0.0,0.0,0.0,0.0,0.0,0.0,0.0,0.0,0.0,0.0,0.0,0.0,0.0,0.0,0.0,0.0,0.0,0.0,0.0,0.0,0.0,0.0,0.0,0.0,0.0,0.0,0.0,0.0,0.0,0.0,0.0,0.0,0.0,0.0,0.0,0.0,0.0,0.0,0.0,0.0,0.0,0.0,0.0,0.0,0.0,0.0,0.0,0.0,0.0,0.0,0.0,0.0,0.0,0.0,0.0,0.0,0.0,0.0,0.0,0.0,0.0,0.0,0.0,0.0,0.0,0.0,0.0,0.0,0.0,0.0,0.0,0.0,0.0,0.0,0.0,0.0,0.0,0.0,0.0,0.0,0.0,0.0,0.0,0.0,0.0,0.0,0.0,0.0,0.0,0.0,0.0,0.0,0.0,0.0,0.0,0.0,0.0,0.0,0.0,0.0,0.0,0.0,0.0,0.0,0.0,0.0,0.0,0.0,0.0,0.0,0.0,0.0,0.0,0.0,0.0,0.0,0.0,0.0,0.0,0.0,0.0,0.0,0.0,0.0,0.0,0.0,0.0,0.0,0.0,0.0,0.0,0.0,0.0,0.0,0.0,0.0,0.0,0.0,0.0,0.0,0.0,0.0,0.0,0.0,0.0,0.0,0.0,0.0,0.0,0.0,0.0,0.0,0.0,0.0,0.0,0.0,0.0,0.0,0.0,0.0,0.0,0.0,0.0,0.0,0.0,0.0,0.0,0.0,0.0,0.0,0.0,0.0,0.0,0.0,0.0,0.0,0.0,0.0,0.0,0.0,0.0,0.0,0.0,0.0,0.0,0.0,0.0,0.0,0.0,0.0,0.0,0.0,0.0,0.0,0.0,0.0,0.0,0.0,0.0,0.0,0.0,0.0,0.0,0.0,0.0,0.0,0.0,0.0,0.0,0.0,0.0,0.0,0.0,0.0,0.0,0.0,0.0,0.0,0.0,0.0,0.0,0.0,0.0,0.0,0.0,0.0,0.0,0.0,0.0,0.0,0.0,0.0,0.0,0.0,0.0,0.0,0.0,0.0,0.0,0.0,0.0,0.0,0.0,0.0,0.0,0.0,0.0,0.0,0.0,0.0,0.0,0.0,0.0,0.0,0.0,0.0405,0.0,0.0,0.0,0.0,0.0,0.0,0.0,0.0,0.0,0.0,0.0,0.0,0.0,0.0,0.0,0.0,0.0,0.0,0.0,0.0,0.0,0.0,0.0,0.0,0.0,0.0,0.0,0.0,0.0,0.0,0.0,0.0,0.0,0.0,0.0,0.0,0.0,0.0,0.0,0.0,0.0,0.0,0.0,0.0,0.0,0.0,0.0,0.0,0.0,0.0,0.0,0.0,0.0,0.0,0.0,0.0,0.0,0.0,0.0,0.0,0.0,0.0,0.0,0.0,0.0,0.0,0.0,0.0,0.0,0.0,0.0,0.0,0.0,0.0,0.0,0.0,0.0,0.0,0.0,0.0,0.0,0.0,0.0,0.0,0.0,0.0,0.0,0.0,0.0,0.0,0.0,0.0,0.0,0.0,0.0,0.0,0.0,0.0,0.0,0.0,0.0,0.0,0.0,0.0,0.0,0.0,0.0,0.0,0.0,0.0,0.0,0.0,0.0,0.0,0.0758,0.0,0.0,0.0,0.0,0.0,0.0,0.0,0.0,0.0,0.0,0.0,0.0,0.0,0.0,0.0,0.0,0.0,0.0,0.0,0.0,0.0,0.0,0.0,0.0,0.0,0.0,0.0,0.0,0.0,0.0,0.0,0.0,0.0,0.0,0.0,0.0,0.0,0.0,0.0,0.0,0.0,0.0,0.0,0.0,0.0,0.0,0.0,0.0,0.0,0.0,0.0,0.0,0.0,0.0,0.0,0.0,0.0,0.0,0.0,0.0,0.0,0.0,0.0,0.0,0.0,0.0,0.0,0.0,0.0,0.0,0.0,0.0,0.0,0.0,0.0,0.0,0.0,0.0,0.0,0.0,0.0,0.0,0.0,0.0,0.0,0.0,0.0,0.0,0.0,0.0,0.0,0.0,0.0,0.0,0.0,0.0,0.0,0.0,0.0,0.0,0.0,0.0,0.0,0.0,0.0,0.0,0.0,0.0,0.0,0.0,0.0,0.0,0.0,0.0,0.0,0.0,0.0,0.0,0.0,0.0,0.0,0.0,0.0,0.0,0.0,0.0,0.0,0.0,0.0,0.0,0.0,0.0,0.0,0.0,0.0,0.0,0.0,0.0,0.0,0.0,0.0,0.0,0.0,0.0,0.0,0.0,0.0,0.0,0.0,0.0,0.0,0.0,0.0,0.0,0.0,0.0,0.0,0.0,0.0,0.0,0.0,0.0,0.0,0.0,0.0,0.0,0.0,0.0,0.0,0.0,0.0,0.0,0.0,0.0,0.0,0.0,0.0,0.0,0.0,0.0,0.0,0.0,0.0,0.0,0.0,0.0,0.0,0.0,0.0,0.0,0.0,0.0,0.0,0.0,0.0,0.0,0.0,0.0,0.0,0.0,0.0,0.0,0.0,0.0,0.0,0.0,0.0,0.0,0.0,0.0,0.0,0.0,0.0,0.0,0.0,0.0,0.0,0.0,0.0,0.0,0.0,0.0,0.0,0.0,0.0,0.0,0.0,0.0,0.0,0.0,0.0,0.0,0.0,0.0,0.0,0.0,0.0,0.0,0.0,0.0,0.0,0.0,0.0,0.0,0.0,0.0,0.0,0.0,0.0,0.0,0.0,0.0,0.0,0.0,0.0,0.0,0.0,0.0,0.0,0.0,0.0,0.0,0.0,0.0,0.0,0.0,0.0,0.0,0.0,0.0,0.0,0.0,0.0,0.0,0.0,0.0,0.0,0.0,0.0,0.0,0.0,0.0,0.0,0.0,0.0,0.0,0.0,0.0,0.0,0.0,0.0,0.0,0.0,0.0,0.0,0.0,0.0,0.0,0.0,0.0,0.0,0.0,0.0,0.0,0.0,0.0,0.0,0.0,0.0,0.0,0.0,0.0,0.0,0.0,0.0,0.0,0.0,0.0,0.0,0.0,0.0,0.0,0.0,0.0,0.0,0.0,0.0,0.0,0.0,0.0,0.0,0.0,0.0,0.0,0.0,0.0,0.0,0.0,0.0,0.0,0.0,0.0,0.0,0.0,0.0,0.0,0.0,0.0,0.0,0.0,0.0,0.0,0.0,0.0,0.0,0.0,0.0,0.0,0.0,0.0,0.0,0.0,0.0,0.0,0.0,0.0,0.0,0.0,0.0,0.0,0.0,0.0,0.0,0.0,0.0,0.0,0.0,0.0,0.0,0.0,0.0,0.0,0.0,0.0,0.0,0.0,0.0,0.0,0.0,0.0,0.0,0.0,0.0,0.0,0.0,0.0,0.0,0.0,0.0,0.0,0.0,0.0,0.0,0.0,0.0,0.0,0.0,0.0,0.0,0.0,0.0,0.0,0.0,0.0,0.0,0.0,0.0,0.0,0.0,0.0,0.0,0.0,0.0,0.0,0.0,0.0,0.0,0.0,0.0,0.0,0.0,0.0,0.0,0.0,0.0,0.0,0.0,0.0,0.0,0.0,0.0,0.0,0.0,0.0,0.0,0.0,0.0,0.0,0.0,0.0,0.0,0.0,0.0,0.0,0.0,0.0,0.0,0.0,0.0,0.0,0.0,0.0,0.0,0.0,0.0,0.0,0.0,0.0,0.0,0.0,0.0,0.0,0.0,0.0,0.0,0.0,0.0,0.0,0.0,0.0,0.0,0.0,0.0,0.0,0.0,0.0,0.0,0.0,0.0,0.0,0.0,0.0,0.0,0.0,0.0,0.0,0.0,0.0,0.0,0.0,0.0,0.0,0.0,0.0,0.0,0.0,0.0,0.0,0.0,0.0,0.0,0.0,0.0,0.0,0.0,0.0,0.0,-0.1542,0.0,0.0,0.0,0.0,0.0,0.0,0.0,0.0,0.0,0.0,0.0,0.0,0.0,0.0,0.0,0.0,0.0,0.0,0.0,0.0,0.0,0.0,0.0,0.0,0.0,0.0,0.0,0.0,0.0,0.0,0.0,0.0,0.0,0.0,0.0,0.0,0.0,0.0,0.0,0.0,0.0,0.0,0.0,0.0,0.0,0.0,0.0,0.0,0.0,0.0,0.0,0.0,0.0,0.0,0.0,0.0,0.0,0.0,0.0,0.0,0.0,0.0,0.0,0.0,0.0,0.0,0.0,0.0,0.0,0.0,0.0,0.0,0.0,0.0,0.0,0.0,0.0,0.0,0.0,0.0,0.0,0.0,0.0,0.0,0.0,0.0,0.0,0.0,0.0,0.0,0.0,0.0,0.0,0.0,0.0,0.0,0.0,0.0,0.0,0.0,0.0,0.0,0.0,0.0,0.0,0.0,0.0,0.0,0.0,0.0,0.0,0.0,0.0,0.0,0.0,0.0,0.0,0.0,0.0,0.0,0.0,0.0,0.0,0.0,0.0,0.0,0.0,0.0,0.0,0.0,0.0,0.0,0.0,0.0,0.0,0.0,0.0,0.0,0.0,0.0,0.0,0.0,0.0,0.0,0.0,0.0,0.0,0.0,0.0,0.0,0.0,0.0,0.0,0.0,0.0,0.0,0.0,0.0,0.0,0.0,0.0,0.0,0.0,0.0,0.0,0.0,0.0,0.0,0.0,0.0,0.0,0.0,0.0,0.0,0.0,0.0,0.0,0.0,0.0,0.0,0.0,0.0,0.0,0.0,0.0,0.0,0.0,0.0,0.0,0.0,0.0,0.0,0.0,0.0,0.0,0.0,0.0,0.0,0.0,0.0,0.0,0.0,0.0,0.0,0.0,0.0,0.0,0.0,0.0,0.0,0.0,0.0,0.0,0.0,0.0,0.0,0.0,0.0,0.0,0.0,0.0,0.0,0.0,0.0,0.0,0.0,0.0,0.0,0.0,0.0,-0.0051,0.0,0.0,0.0,0.0,0.0,0.0,0.0,0.0,0.0,0.0,0.0,0.0,0.0,0.0,0.0,0.0,0.0,0.0,0.0,0.0,0.0,0.0,0.0,0.0,0.0,0.0,0.0,0.0,0.0,0.0,0.0,0.0,0.0,0.0,0.0,0.0,0.0,0.0,0.0,0.0,0.0,0.0,0.0,0.0,0.0,0.0,0.0,0.0,0.0,0.0,0.0,0.0,0.0,0.0,0.0,0.0,0.0,0.0,0.0,0.0,0.0,0.0,0.0,0.0,0.0,0.0,0.0,0.0,0.0,0.0,0.0,0.0,0.0,0.0,0.0,0.0,0.0,0.0,0.0,0.0,0.0,0.0,0.0,0.0,0.0,0.0,0.0,0.0,0.0,0.0,0.0,0.0,0.0,0.0,0.0,0.0,0.0,0.0,0.0,0.0,0.0,0.0,0.0,0.0,0.0,0.0,0.0,0.0,0.0,0.0,0.0,0.0,0.0,0.0,-0.2294,-0.0802,0.0,0.0,0.0,0.0,0.0,0.0,0.0,0.0,0.0,0.0,0.0,0.0,0.0,0.0,0.0,0.0,0.0,0.0,0.0,0.0,0.0,0.0,0.0,0.0,0.0,0.0,0.0,0.0,0.0,0.0,0.0,0.0,0.0,0.0,0.0,0.0,0.0,0.0,0.0,0.0,0.0,0.0,0.0,0.0,0.0,0.0,0.0,0.0,0.0,0.0,0.0,0.0,0.0,0.0,0.0,0.0,0.0,0.0,0.0,0.0,0.0,0.0,0.0,0.0,0.0,0.0,0.0,0.0,0.0,0.0,0.0,0.0,0.0,0.0,0.0,0.0,0.0,0.0,0.0,0.0,0.0,0.0,0.0,0.0,0.0,0.0,0.0,0.0,0.0,0.0,0.0,0.0,0.0,0.0,0.0,0.0,0.0,0.0,0.0,0.0,0.0,0.0,0.0,0.0,0.0,0.0,0.0,0.0,0.0,0.0,0.0,0.0,0.0,-0.4665,-0.1596,0.0,0.0,-0.072,-0.1067,0.0,0.0,0.0,0.0,0.0,0.0,0.0,0.0,0.0,0.0,0.0,0.0,0.0,0.0,0.0,0.0,0.0,0.0,0.0,0.0,0.0,0.0,0.0,0.0,0.0,0.0,0.0,0.0,0.0,0.0,0.0,0.0,0.0,0.0,0.0,0.0,0.0,0.0,0.0,0.0,0.0,0.0,0.0,0.0,0.0,0.0,0.0,0.0,0.0,0.0,0.0,0.0,0.0,0.0,0.0,0.0,0.0,0.0,0.0,0.0,0.0,0.0,0.0,0.0,0.0,0.0,0.0,0.0,0.0,0.0,0.0,0.0,0.0,0.0,0.0,0.0,0.0,0.0,0.0,0.0,0.0,0.0,0.0,0.0,0.0,0.0,0.0,0.0,0.0,0.0,0.0,0.0,0.0,0.0,0.0,0.0,0.0,0.0,0.0,0.0,0.0,0.0,0.0,0.0,0.0,0.0,0.0,0.0,-1.1484,-0.7014,-0.2423,0.0,0.0,-0.2245,-0.3397,0.0,0.0,0.0,0.0,0.0,0.0,0.0,0.0,0.0,0.0,0.0,0.0,0.0,0.0,0.0,0.0,0.0,0.0,0.0,0.0,0.0,0.0,0.0,0.0,0.0,0.0,0.0,0.0,0.0,0.0,0.0,0.0,0.0,0.0,0.0,0.0,0.0,0.0,0.0,0.0,0.0,0.0,0.0,0.0,0.0,0.0,0.0,0.0,0.0,0.0,0.0,0.0,0.0,0.0,0.0,0.0,0.0,0.0,0.0,0.0,0.0,0.0,0.0,0.0,0.0,0.0,0.0,0.0,0.0,0.0,0.0,0.0,0.0,0.0,0.0,0.0,0.0,0.0,0.0,0.0,0.0,0.0,0.0,0.0,0.0,0.0,0.0,0.0,0.0,0.0,0.0,0.0,0.0,0.0,0.0,0.0,0.0,0.0,0.0,0.0,0.0,0.0,0.0,0.0,0.0,0.0,0.0,0.0,0.0,-0.9373,-0.4799,-0.2359,-0.2372,-0.3098,-0.3478,0.0,0.0,0.0,0.0,0.0,0.0,0.0,0.0,0.0,0.0,0.0,0.0,0.0,0.0,0.0,0.0,0.0,0.0,0.0,0.0,0.0,0.0,0.0,0.0,0.0,0.0,0.0,0.0,0.0,0.0,0.0,0.0,0.0,0.0,0.0,0.0,0.0,0.0,0.0,0.0,0.0,0.0,0.0,0.0,0.0,0.0,0.0,0.0,0.0,0.0,0.0,0.0,0.0,0.0,0.0,0.0,0.0,0.0,0.0,0.0,0.0,0.0,0.0,0.0,0.0,0.0,0.0,0.0,0.0,0.0,0.0,0.0,0.0,0.0,0.0,0.0,0.0,0.0,0.0,0.0,0.0,0.0,0.0,0.0,0.0,0.0,0.0,0.0,0.0,0.0,0.0,0.0,0.0,0.0,0.0,0.0,0.0,0.0,0.0,0.0,0.0,0.0,0.0,0.0,0.0,0.0,0.0,0.0,0.0,-1.0503,-0.7555,-0.5605,-0.478,-0.5605,-0.5995,0.0,0.0,0.0,0.0,0.0,0.0,0.0,0.0,0.0,0.0,0.0,0.0,0.0,0.0,0.0,0.0,0.0,0.0,0.0,0.0,0.0,0.0,0.0,0.0,0.0,0.0,0.0,0.0,0.0,0.0,0.0,0.0,0.0,0.0,0.0,0.0,0.0,0.0,0.0,0.0,0.0,0.0,0.0,0.0,0.0,0.0,0.0,0.0,0.0,0.0,0.0,0.0,0.0,0.0,0.0,0.0,0.0,0.0,0.0,0.0,0.0,0.0,0.0,0.0,0.0,0.0,0.0,0.0,0.0,0.0,0.0,0.0,0.0,0.0,0.0,0.0,0.0,0.0,0.0,0.0,0.0,0.0,0.0,0.0,0.0,0.0,0.0,0.0,0.0,0.0,0.0,0.0,0.0,0.0,0.0,0.0,0.0,0.0,0.0,0.0,0.0,0.0,0.0,0.0,0.0,0.0,0.0,0.0,0.0,-1.0762,-1.0632,-0.9501,-0.7245,-0.9285,-1.045,0.0,0.0,0.0,0.0,0.0,0.0,0.0,0.0,0.0,0.0,0.0,0.0,0.0,0.0,0.0,0.0,0.0,0.0,0.0,0.0,0.0,0.0,0.0,0.0,0.0,0.0,0.0,0.0,0.0,0.0,0.0,0.0,0.0,0.0,0.0,0.0,0.0,0.0,0.0,0.0,0.0,0.0,0.0,0.0,0.0,0.0,0.0,0.0,0.0,0.0,0.0,0.0,0.0,0.0,0.0,0.0,0.0,0.0,0.0,0.0,0.0,0.0,0.0,0.0,0.0,0.0,0.0,0.0,0.0,0.0,0.0,0.0,0.0,0.0,0.0,0.0,0.0,0.0,0.0,0.0,0.0,0.0,0.0,0.0,0.0,0.0,0.0,0.0,0.0,0.0,0.0,0.0,0.0,0.0,0.0,0.0,0.0,0.0,0.0,0.0,0.0,0.0,0.0,0.0,0.0,0.0,0.0,0.0,0.0,0.0,-1.2883,-1.1839,-0.9716,-1.0158,-1.038,-1.0094,0.0,0.0,0.0,0.0,0.0,0.0,0.0,0.0,0.0,0.0,0.0,0.0,0.0,0.0,0.0,0.0,0.0,0.0,0.0,0.0,0.0,0.0,0.0,0.0,0.0,0.0,0.0,0.0,0.0,0.0,0.0,0.0,0.0,0.0,0.0,0.0,0.0,0.0,0.0,0.0,0.0,0.0,0.0,0.0,0.0,0.0,0.0,0.0,0.0,0.0,0.0,0.0,0.0,0.0,0.0,0.0,0.0,0.0,0.0,0.0,0.0,0.0,0.0,0.0,0.0,0.0,0.0,0.0,0.0,0.0,0.0,0.0,0.0,0.0,0.0,0.0,0.0,0.0,0.0,0.0,0.0,0.0,0.0,0.0,0.0,0.0,0.0,0.0,0.0,0.0,0.0,0.0,0.0,0.0,0.0,0.0,0.0,0.0,0.0,0.0,0.0,0.0,0.0,0.0,0.0,0.0,0.0,0.0,0.0,0.0,-1.3184,-1.1882,-1.1839,-1.1684,0.0,0.0,0.0,0.0,0.0,0.0,0.0,0.0,0.0,0.0,0.0,0.0,0.0,0.0,0.0,0.0,0.0,0.0,0.0,0.0,0.0,0.0,0.0,0.0,0.0,0.0,0.0,0.0,0.0,0.0,0.0,0.0,0.0,0.0,0.0,0.0,0.0,0.0,0.0,0.0,0.0,0.0,0.0,0.0,0.0,0.0,0.0,0.0,0.0,0.0,0.0,0.0,0.0,0.0,0.0,0.0,0.0,0.0,0.0,0.0,0.0,0.0,0.0,0.0,0.0,0.0,0.0,0.0,0.0,0.0,0.0,0.0,0.0,0.0,0.0,0.0,0.0,0.0,0.0,0.0,0.0,0.0,0.0,0.0,0.0,0.0,0.0,0.0,0.0,0.0,0.0,0.0,0.0,0.0,0.0,0.0,0.0,0.0,0.0,0.0,0.0,0.0,0.0,0.0,0.0,0.0,0.0,0.0,0.0,0.0,0.0,-1.3828,-1.3759,-1.3759,0.0,-1.3381,0.0,0.0,0.0,0.0,0.0,0.0,0.0,0.0,0.0,0.0,0.0,0.0,0.0,0.0,0.0,0.0,0.0,0.0,0.0,0.0,0.0,0.0,0.0,0.0,0.0,0.0,0.0,0.0,0.0,0.0,0.0,0.0,0.0,0.0,0.0,0.0,0.0,0.0,0.0,0.0,0.0,0.0,0.0,0.0,0.0,0.0,0.0,0.0,0.0,0.0,0.0,0.0,0.0,0.0,0.0,0.0,0.0,0.0,0.0,0.0,0.0,0.0,0.0,0.0,0.0,0.0,0.0,0.0,0.0,0.0,0.0,0.0,0.0,0.0,0.0,0.0,0.0,0.0,0.0,0.0,0.0,0.0,0.0,0.0,0.0,0.0,0.0,0.0,0.0,0.0,0.0,0.0,0.0,0.0,0.0,0.0,0.0,0.0,0.0,0.0,0.0,0.0,0.0,0.0,0.0,0.0,0.0,0.0,0.0,0.0,0.0,0.0,-1.3484,-1.3381,-1.3133,0.0,0.0,0.0,0.0,0.0,0.0,0.0,0.0,0.0,0.0,0.0,0.0,0.0,0.0,0.0,0.0,0.0,0.0,0.0,0.0,0.0,0.0,0.0,0.0,0.0,0.0,0.0,0.0,0.0,0.0,0.0,0.0,0.0,0.0,0.0,0.0,0.0,0.0,0.0,0.0,0.0,0.0,0.0,0.0,0.0,0.0,0.0,0.0,0.0,0.0,0.0,0.0,0.0,0.0,0.0,0.0,0.0,0.0,0.0,0.0,0.0,0.0,0.0,0.0,0.0,0.0,0.0,0.0,0.0,0.0,0.0,0.0,0.0,0.0,0.0,0.0,0.0,0.0,0.0,0.0,0.0,0.0,0.0,0.0,0.0,0.0,0.0,0.0,0.0,0.0,0.0,0.0,0.0,0.0,0.0,0.0,0.0,0.0,0.0,0.0,0.0,0.0,0.0,0.0,0.0,0.0,0.0,0.0,0.0,0.0,-1.3513,-1.3237,-1.3264,-1.3079,-1.2843,0.0,0.0,0.0,0.0,0.0,0.0,0.0,0.0,0.0,0.0,0.0,0.0,0.0,0.0,0.0,0.0,0.0,0.0,0.0,0.0,0.0,0.0,0.0,0.0,0.0,0.0,0.0,0.0,0.0,0.0,0.0,0.0,0.0,0.0,0.0,0.0,0.0,0.0,0.0,0.0,0.0,0.0,0.0,0.0,0.0,0.0,0.0,0.0,0.0,0.0,0.0,0.0,0.0,0.0,0.0,0.0,0.0,0.0,0.0,0.0,0.0,0.0,0.0,0.0,0.0,0.0,0.0,0.0,0.0,0.0,0.0,0.0,0.0,0.0,0.0,0.0,0.0,0.0,0.0,0.0,0.0,0.0,0.0,0.0,0.0,0.0,0.0,0.0,0.0,0.0,0.0,0.0,0.0,0.0,0.0,0.0,0.0,0.0,0.0,0.0,0.0,0.0,0.0,0.0,0.0,0.0,0.0,0.0,0.0,0.0,-1.3223,0.0,0.0,0.0,-1.2578,0.0,0.0,0.0,0.0,0.0,0.0,0.0,0.0,0.0,0.0,0.0,0.0,0.0,0.0,0.0,0.0,0.0,0.0,0.0,0.0,0.0,0.0,0.0,0.0,0.0,0.0,0.0,0.0,0.0,0.0,0.0,0.0,0.0,0.0,0.0,0.0,0.0,0.0,0.0,0.0,0.0,0.0,0.0,0.0,0.0,0.0,0.0,0.0,0.0,0.0,0.0,0.0,0.0,0.0,0.0,0.0,0.0,0.0,0.0,0.0,0.0,0.0,0.0,0.0,0.0,0.0,0.0,0.0,0.0,0.0,0.0,0.0,0.0,0.0,0.0,0.0,0.0,0.0,0.0,0.0,0.0,0.0,0.0,0.0,0.0,0.0,0.0,0.0,0.0,0.0,0.0,0.0,0.0,0.0,0.0,0.0,0.0,0.0,0.0,0.0,0.0,0.0,0.0,0.0,0.0,0.0,0.0,0.0,0.0,0.0,0.0,0.0,0.0,0.0,0.0,0.0,0.0,0.0,0.0,0.0,0.0,0.0,0.0,0.0,0.0,0.0,0.0,0.0,0.0,0.0,0.0,0.0,0.0,0.0,0.0,0.0,0.0,0.0,0.0,0.0,0.0,0.0,0.0,0.0,0.0,0.0,0.0,0.0,0.0,0.0,0.0,0.0,0.0,0.0,0.0,0.0,0.0,0.0,0.0,0.0,0.0,0.0,0.0,0.0,0.0,0.0,0.0,0.0,0.0,0.0,0.0,0.0,0.0,0.0,0.0,0.0,0.0,0.0,0.0,0.0,0.0,0.0,0.0,0.0,0.0,0.0,0.0,0.0,0.0,0.0,0.0,0.0,0.0,0.0,0.0,0.0,0.0,0.0,0.0,0.0,0.0,0.0,0.0,0.0,0.0,0.0,0.0,0.0,0.0,0.0,0.0,0.0,0.0,0.0,0.0,0.0,0.0,0.0,0.0,0.0,0.0,0.0,0.0,0.0,0.0,0.0,0.0,0.0,0.0,0.0,0.0,0.0,0.0,0.0,0.0,0.0,0.0,0.0,0.0,0.0,0.0,0.0,0.0,0.0,0.0,0.0,0.0,0.0,0.0,0.0,0.0,0.0,0.0,0.0,0.0,0.0,0.0,0.0,0.0,0.0,0.0,0.0,0.0,0.0,0.0,0.0,0.0,0.0,0.0,0.0,0.0,0.0,0.0,0.0,0.0,0.0,0.0,0.0,0.0,0.0,0.0,0.0,0.0,0.0,0.0,0.0,0.0,0.0,0.0,0.0,0.0,0.0,0.0,0.0,0.0,0.0,0.0,0.0,0.0,0.0,0.0,0.0,0.0,0.0,0.0,0.0,0.0,0.0,0.0,0.0,0.0,0.0,0.0,0.0,0.0,0.0,0.0,0.0,0.0,0.0,0.0,0.0,0.0,0.0,0.0,0.0,0.0,0.0,0.0,0.0,0.0,0.0,0.0,0.0,0.0,0.0,0.0,0.0,0.0,0.0,0.0,0.0,0.0,0.0,0.0,0.0,0.0,0.0,0.0,0.0,0.0,0.0,0.0,0.0,0.0,0.0,0.0,0.0,0.0,0.0,0.0,0.0,0.0,0.0,0.0,0.0,0.0,0.0,0.0,0.0,0.0,0.0,0.0,0.0,0.0,0.0,0.0,0.0,0.0,0.0,0.0,0.0,0.0,0.0,0.0,0.0,0.0,0.0,0.0,0.0,0.0,0.0,0.0,0.0,0.0,0.0,0.0,0.0,0.0,0.0,0.0,0.0,0.0,0.0,0.0,0.0,0.0,0.0,0.0,0.0,0.0,0.0,0.0,0.0,0.0,0.0,0.0,0.0,0.0,0.0,0.0,0.0,0.0,0.0,0.0,0.0,0.0,0.0,0.0,0.0,0.0,0.0,0.0,0.0,0.0,0.0,0.0,0.0,0.0,0.0,0.0,0.0,0.0,0.0,0.0,0.0,0.0,0.0,0.0,0.0,0.0,0.0,0.0,0.0,0.0,0.0,0.0,0.0,0.0,0.0,0.0,0.0,0.0,0.0,0.0,0.0,0.0,0.0,0.0,0.0,0.0,0.0,0.0,0.0,0.0,0.0,0.0,0.0,0.0,0.0,0.0,0.0,0.0,0.0,0.0,0.0,0.0,0.0,0.0,0.0,0.0,0.0,0.0,0.0,0.0,0.0,0.0,0.0,0.0,0.0,0.0,0.0,0.0,0.0,0.0,0.0,0.0,0.0,0.0,0.0,0.0,0.0,0.0,0.0,0.0,0.0,0.0,0.0,0.0,0.0,0.0,0.0,0.0,0.0,0.0,0.0,0.0,0.0,0.0,0.0,0.0,0.0,0.0,0.0,0.0,0.0,0.0,0.0,0.0,0.0,0.0,0.0,0.0,0.0,0.0,0.0,0.0,0.0,0.0,0.0,0.0,0.0,0.0,0.0,0.0,0.0,0.0,0.0,0.0,0.0,0.0,0.0,0.0,0.0,0.0,0.0,0.0,0.0,0.0,0.0,0.0,0.0,0.0,0.0,0.0,0.0,0.0,0.0,0.0,0.0,0.0,0.0,0.0,0.0,0.0,0.0,0.0,0.0,0.0,0.0,0.0,0.0,0.0,0.0,0.0,0.0,0.0,0.0,0.0,0.0,0.0,0.0,0.0,0.0,0.0,0.0,0.0,0.0,0.0,0.0,0.0,0.0,0.0,0.0,0.0,0.0,0.0,0.0,0.0,0.0,0.0,0.0,0.0,0.0,0.0,0.0,0.0,0.0,0.0,0.0,0.0,0.0,0.0,0.0,0.0,0.0,0.0,0.0,0.0,0.0,0.0,0.0,0.0,0.0,0.0,0.0,0.0,0.0,0.0,0.0,0.0,0.0,0.0,0.0,0.0,0.0,0.0,0.0,0.0,0.0,0.0,0.0,0.0,0.0,0.0,0.0,0.0,0.0,0.0,0.0,0.0,0.0,0.0,0.0,0.0,0.0,0.0,0.0,0.0,0.0,0.0,0.0,0.0,0.0,0.0,0.0,0.0,0.0,0.0,0.0,0.0,0.0,0.0,0.0,0.0,0.0,0.0,0.0,0.0,0.0,0.0,0.0,0.0,0.0,0.0,0.0,0.0,0.0,0.0,0.0,0.0,0.0,0.0,0.0,0.0,0.0,0.0,0.0,0.0,0.0,0.0,0.0,0.0,0.0,0.0,0.0,0.0,0.0,0.0,0.0,0.0,0.0,0.0,0.0,0.0,0.0,0.0,0.0,0.0,0.0,0.0,0.0,0.0,0.0,0.0,0.0,0.0,0.0,0.0,0.0,0.0,0.0,0.0,0.0,0.0,0.0,0.0,0.0,0.0,0.0,0.0,0.0,0.0,0.0,0.0,0.0,0.0,0.0,0.0,0.0,0.0,0.0,0.0,0.0,0.0,0.0,0.0,0.0,0.0,0.0,0.0,0.0,0.0,0.0,0.0,0.0,0.0,0.0,0.0,0.0,0.0,0.0,0.0,0.0,0.0,0.0,0.0,0.0,0.0,0.0,0.0,0.0,0.0,0.0,0.0,0.0,0.0,0.0,0.0,0.0,0.0,0.0,0.0,0.0,0.0,0.0,0.0,0.0,0.0,0.0,0.0,0.0,0.0,0.0,0.0,0.0,0.0,0.0,0.0,0.0,0.0,0.0,0.0,0.0,0.0,0.0,0.0,0.0,0.0,0.0,0.0,0.0,0.0,0.0,0.0,0.0,0.0,0.0,0.0,0.0,0.0,0.0,0.0,0.0,0.0,0.0,0.0,0.0,0.0,0.0,0.0,0.0,0.0,0.0,0.0,0.0,0.0,0.0,0.0,0.0,0.0,0.0,0.0,0.0,0.0,0.0,0.0,0.0,0.0,0.0,0.0,0.0,0.0,0.0,0.0,0.0,0.0,0.0,0.0,0.0,0.0,0.0,0.0,0.0,0.0,0.0,0.0,0.0,0.0,0.0,0.0,0.0,0.0,0.0,0.0,0.0,0.0,0.0,0.0,0.0,0.0,0.0,0.0,0.0,0.0,0.0,0.0,0.0,0.0,0.0,0.0,0.0,0.0,0.0,0.0,0.0,0.0,0.0,0.0,0.0,0.0,0.0,0.0,0.0,0.0,0.0,0.0,0.0,0.0,0.0,0.0,0.0,0.0,0.0,0.0,0.0,0.0,0.0,0.0,0.0,0.0,0.0,0.0,0.0,0.0,0.0,0.0,0.0,0.0,0.0,0.0,0.0,0.0,0.0,0.0,0.0,0.0,0.0,0.0,0.0,0.0,0.0,0.0,0.0,0.0,0.0,0.0,0.0,0.0,0.0,0.0,0.0,0.0,0.0,0.0,0.0,0.0,0.0]}],[{"header":{"parameterUnit":"kt","parameterCategory":2,"dx":1,"dy":1,"la1":29.587661999999998,"la2":31.0,"lo1":-88.76705300000003,"lo2":-86.6583820000003,"nx":115,"ny":88,"refTime":"2022-10-31T18:00:00:Z","depth":0,"parameterNumber":2,"parameterNumberName":"V-component_of_WINDS"},"data":[16.7352,16.7352,16.7352,16.7352,16.7352,16.7352,16.7352,16.7352,16.7352,16.7352,16.7352,16.7352,16.7352,16.7352,16.7352,16.7352,16.7352,16.7352,16.7352,16.7352,16.7352,16.7352,16.7352,16.7352,16.7352,16.7352,16.7352,16.7352,16.7352,16.7352,16.7352,16.7352,16.7352,16.7352,16.7352,16.7876,16.8923,17.1332,17.2828,17.4008,17.6251,17.7281,17.7281,17.7281,17.7281,17.7281,17.7281,17.7281,17.7281,17.7281,17.7281,17.7281,17.7281,17.7281,17.7349,17.7607,17.8141,17.8574,17.9015,17.9602,17.9881,17.9957,17.9957,17.9957,17.9957,17.9957,17.9957,17.9957,17.9957,17.9957,17.9957,17.9957,17.9957,17.9957,17.9957,17.9957,17.9957,17.9957,17.9957,17.9957,17.9957,17.9957,17.9957,17.9957,17.9957,17.9957,17.9957,17.9957,17.9957,17.9957,17.9957,17.9957,17.9957,17.9957,17.9957,17.9957,17.9957,17.9957,17.9957,17.9957,17.9957,17.9957,17.9957,17.9957,17.9957,17.9957,17.9957,17.9957,17.9957,17.9957,17.9957,17.9805,17.9198,17.8633,17.8357,16.7352,16.7352,16.7352,16.7352,16.7352,16.7352,16.7352,16.7352,16.7352,16.7352,16.7352,16.7352,16.7352,16.7352,16.7352,16.7352,16.7352,16.7352,16.7352,16.7352,16.7352,16.7352,16.7352,16.7352,16.7352,16.7352,16.7352,16.7352,16.7352,16.7352,16.7352,16.7352,16.7352,16.7352,16.7352,16.7726,16.8998,17.1556,17.2828,17.4307,17.5952,17.7281,17.7281,17.7281,17.7281,17.7281,17.7281,17.7281,17.7281,17.7281,17.7281,17.7281,17.7281,17.7223,17.7404,17.7741,17.8271,17.8713,17.9185,17.9653,17.9881,17.9957,17.9957,17.9957,17.9957,17.9957,17.9957,17.9957,17.9957,17.9957,17.9957,17.9957,17.9957,17.9957,17.9957,17.9957,17.9957,17.9957,17.9957,17.9957,17.9957,17.9957,17.9957,17.9957,17.9957,17.9957,17.9957,17.9957,17.9957,17.9957,17.9957,17.9957,17.9957,17.9957,17.9957,17.9957,17.9957,17.9957,17.9957,17.9957,17.9957,17.9957,17.9957,17.9957,17.9957,17.9957,17.9957,17.9957,17.9957,17.9957,17.9957,17.9805,17.9209,17.8721,17.8398,16.7352,16.7352,16.7352,16.7352,16.7352,16.7352,16.7352,16.7352,16.7352,16.7352,16.7352,16.7352,16.7352,16.7352,16.7352,16.7352,16.7352,16.7352,16.7352,16.7352,16.7352,16.7352,16.7352,16.7352,16.7352,16.7352,16.7352,16.7352,16.7352,16.7352,16.7352,16.7352,16.7352,16.7352,16.7352,16.7577,16.8998,17.223,17.2379,17.4232,17.6907,17.7281,17.7281,17.7281,17.7281,17.7281,17.7281,17.7281,17.7281,17.7281,17.7281,17.7281,17.7281,17.7281,17.7514,17.7878,17.8332,17.8781,17.9237,17.9653,17.9957,17.9957,17.9957,17.9957,17.9957,17.9957,17.9957,17.9957,17.9957,17.9957,17.9957,17.9957,17.9957,17.9957,17.9957,17.9957,17.9957,17.9957,17.9957,17.9957,17.9957,17.9957,17.9957,17.9957,17.9957,17.9957,17.9957,17.9957,17.9957,17.9957,17.9957,17.9957,17.9957,17.9957,17.9957,17.9957,17.9957,17.9957,17.9957,17.9957,17.9957,17.9957,17.9957,17.9957,17.9957,17.9957,17.9957,17.9957,17.9957,17.9957,17.9957,17.9881,17.9371,17.8844,17.841,16.7352,16.7352,16.7352,16.7352,16.7352,16.7352,16.7352,16.7352,16.7352,16.7352,16.7352,16.7352,16.7352,16.7352,16.7352,16.7352,16.7352,16.7352,16.7352,16.7352,16.7352,16.7352,16.7352,16.7352,16.7352,16.7352,16.7352,16.7352,16.7352,16.7352,16.7352,16.7352,16.7352,16.7352,16.7352,16.7352,16.8998,17.2155,17.2603,17.4082,17.6757,17.7281,17.7281,17.7281,17.7281,17.7281,17.7281,17.7281,17.7281,17.7281,17.7281,17.7281,17.7281,17.7281,17.7532,17.8016,17.841,17.8959,17.9378,17.9805,17.9957,17.9957,17.9957,17.9957,17.9957,17.9957,17.9957,17.9957,17.9957,17.9957,17.9957,17.9957,17.9957,17.9957,17.9957,17.9957,17.9957,17.9957,17.9957,17.9957,17.9957,17.9957,17.9957,17.9957,17.9957,17.9957,17.9957,17.9957,17.9957,17.9957,17.9957,17.9957,17.9957,17.9957,17.9957,17.9957,17.9957,17.9957,17.9957,17.9957,17.9957,17.9957,17.9957,17.9957,17.9957,17.9957,17.9957,17.9957,17.9957,17.9957,17.9957,17.9729,17.9374,17.887,17.8439,16.7352,16.7352,16.7352,16.7352,16.7352,16.7352,16.7352,16.7352,16.7352,16.7352,16.7352,16.7352,16.7352,16.7352,16.7352,16.7352,16.7352,16.7352,16.7352,16.7352,16.7352,16.7352,16.7352,16.7352,16.7352,16.7352,16.7352,16.7352,16.7352,16.7352,16.7352,16.7352,16.7352,16.7352,16.7352,16.7352,16.8848,17.1482,17.2529,17.3709,17.6176,17.7206,17.7281,17.7281,17.7281,17.7281,17.7281,17.7281,17.7281,17.7281,17.7281,17.7281,17.7281,17.7257,17.7816,17.8251,17.8583,17.9153,17.9686,17.9881,17.9957,17.9957,17.9957,17.9957,17.9957,17.9957,17.9957,17.9957,17.9957,17.9957,17.9957,17.9957,17.9957,17.9957,17.9957,17.9957,17.9957,17.9957,17.9957,17.9957,17.9957,17.9957,17.9957,17.9957,17.9957,17.9957,17.9957,17.9957,17.9957,17.9957,17.9957,17.9957,17.9957,17.9957,17.9957,17.9957,17.9957,17.9957,17.9957,17.9957,17.9957,17.9957,17.9957,17.9957,17.9957,17.9957,17.9957,17.9957,17.9957,17.9957,17.9881,17.9729,17.9371,17.8857,17.8381,16.7352,16.7352,16.7352,16.7352,16.7352,16.7352,16.7352,16.7352,16.7352,16.7352,16.7352,16.7352,16.7352,16.7352,16.7352,16.7352,16.7352,16.7352,16.7352,16.7352,16.7352,16.7352,16.7352,16.7352,16.7352,16.7352,16.7352,16.7352,16.7352,16.7352,16.7352,16.7352,16.7352,16.7352,16.7352,16.7577,16.8848,17.0418,17.2155,17.3634,17.5279,17.6683,17.7057,17.7281,17.7281,17.7281,17.7281,17.7281,17.7281,17.7281,17.7281,17.7281,17.7281,17.7274,17.7709,17.8467,17.8766,17.9359,17.9805,17.9957,17.9957,17.9957,17.9957,17.9957,17.9957,17.9957,17.9957,17.9957,17.9957,17.9957,17.9957,17.9957,17.9957,17.9957,17.9957,17.9957,17.9957,17.9957,17.9957,17.9957,17.9957,17.9957,17.9957,17.9957,17.9957,17.9957,17.9957,17.9957,17.9957,17.9957,17.9957,17.9957,17.9957,17.9957,17.9957,17.9957,17.9957,17.9957,17.9957,17.9957,17.9957,17.9957,17.9957,17.9957,17.9957,17.9957,17.9957,17.9957,17.9957,17.9957,17.9957,17.9577,17.9174,17.8766,17.8387,16.7352,16.7352,16.7352,16.7352,16.7352,16.7352,16.7352,16.7352,16.7352,16.7352,16.7352,16.7352,16.7352,16.7352,16.7352,16.7352,16.7352,16.7352,16.7352,16.7352,16.7352,16.7352,16.7352,16.7352,16.7352,16.7352,16.7352,16.7352,16.7352,16.7352,16.7352,16.7352,16.7352,16.7352,16.7352,16.7352,16.8549,16.997,17.1706,17.326,17.4813,17.6458,17.7057,17.7281,17.7281,17.7281,17.7281,17.7281,17.7281,17.7281,17.7281,17.7281,17.7281,17.7291,17.7517,17.8322,17.8915,17.9426,17.9881,17.9957,17.9957,17.9957,17.9957,17.9957,17.9957,17.9957,17.9957,17.9957,17.9957,17.9957,17.9957,17.9957,17.9957,17.9957,17.9957,17.9957,17.9957,17.9957,17.9957,17.9957,17.9957,17.9957,17.9957,17.9957,17.9957,17.9957,17.9957,17.9957,17.9957,17.9957,17.9957,17.9957,17.9957,17.9957,17.9957,17.9957,17.9957,17.9957,17.9957,17.9957,17.9957,17.9957,17.9957,17.9957,17.9957,17.9957,17.9957,17.9957,17.9957,17.9957,17.9957,17.9426,17.8966,17.8797,17.8437,16.7352,16.7352,16.7352,16.7352,16.7352,16.7352,16.7352,16.7352,16.7352,16.7352,16.7352,16.7352,16.7352,16.7352,16.7352,16.7352,16.7352,16.7352,16.7352,16.7352,16.7352,16.7352,16.7352,16.7352,16.7352,16.7352,16.7352,16.7352,16.7352,16.7352,16.7352,16.7352,16.7352,16.7352,16.7352,16.7502,16.8175,16.9596,17.1241,17.2961,17.4456,17.6159,17.7131,17.7281,17.7281,17.7281,17.7281,17.7281,17.7281,17.7281,17.7281,17.7281,17.7281,17.7281,17.7547,17.7989,17.8795,17.9385,17.9881,17.9957,17.9957,17.9957,17.9957,17.9957,17.9957,17.9957,17.9957,17.9957,17.9957,17.9957,17.9957,17.9957,17.9957,17.9957,17.9957,17.9957,17.9957,17.9957,17.9957,17.9957,17.9957,17.9957,17.9957,17.9957,17.9957,17.9957,17.9957,17.9957,17.9957,17.9957,17.9957,17.9957,17.9957,17.9957,17.9957,17.9957,17.9957,17.9957,17.9957,17.9957,17.9957,17.9957,17.9957,17.9957,17.9957,17.9957,17.9957,17.9957,17.9957,17.9957,17.9957,17.9501,17.8849,17.8684,17.8418,16.7352,16.7352,16.7352,16.7352,16.7352,16.7352,16.7352,16.7352,16.7352,16.7352,16.7352,16.7352,16.7352,16.7352,16.7352,16.7352,16.7352,16.7352,16.7352,16.7352,16.7352,16.7352,16.7352,16.7352,16.7352,16.7352,16.7352,16.7352,16.7352,16.7352,16.7352,16.7352,16.7352,16.7352,16.7352,16.7352,16.7801,16.8773,17.1091,17.2828,17.3858,17.5653,17.7206,17.7281,17.7281,17.7281,17.7281,17.7281,17.7281,17.7281,17.7281,17.7281,17.7281,17.7333,17.7651,17.8141,17.8759,17.9205,17.9805,17.9957,17.9957,17.9957,17.9957,17.9957,17.9957,17.9957,17.9957,17.9957,17.9957,17.9957,17.9957,17.9957,17.9957,17.9957,17.9957,17.9957,17.9957,17.9957,17.9957,17.9957,17.9957,17.9957,17.9957,17.9957,17.9957,17.9957,17.9957,17.9957,17.9957,17.9957,17.9957,17.9957,17.9957,17.9957,17.9957,17.9957,17.9957,17.9957,17.9957,17.9957,17.9957,17.9957,17.9957,17.9957,17.9957,17.9957,17.9957,17.9957,17.9957,17.9957,17.9957,17.9501,17.8742,17.8524,17.8305,16.7352,16.7352,16.7352,16.7352,16.7352,16.7352,16.7352,16.7352,16.7352,16.7352,16.7352,16.7352,16.7352,16.7352,16.7352,16.7352,16.7352,16.7352,16.7352,16.7352,16.7352,16.7352,16.7352,16.7352,16.7352,16.7352,16.7352,16.7352,16.7352,16.7352,16.7352,16.7352,16.7352,16.7352,16.7352,16.7352,16.7352,16.7951,17.0418,17.2454,17.2828,17.5428,17.7281,17.7281,17.7281,17.7281,17.7281,17.7281,17.7281,17.7281,17.7281,17.7281,17.7281,17.7486,17.7835,17.8437,17.8816,17.9214,17.9729,17.9957,17.9957,17.9957,17.9957,17.9957,17.9957,17.9957,17.9957,17.9957,17.9957,17.9957,17.9957,17.9957,17.9957,17.9957,17.9957,17.9957,17.9957,17.9957,17.9957,17.9957,17.9957,17.9957,17.9957,17.9957,17.9957,17.9957,17.9957,17.9957,17.9957,17.9957,17.9957,17.9957,17.9957,17.9957,17.9957,17.9957,17.9957,17.9957,17.9957,17.9957,17.9957,17.9957,17.9957,17.9957,17.9957,17.9957,17.9957,17.9957,17.9957,17.9957,17.9957,17.9653,17.8894,17.8524,17.8239,16.7352,16.7352,16.7352,16.7352,16.7352,16.7352,16.7352,16.7352,16.7352,16.7352,16.7352,16.7352,16.7352,16.7352,16.7352,16.7352,16.7352,16.7352,16.7352,16.7352,16.7352,16.7352,16.7352,16.7352,16.7352,16.7352,16.7352,16.7352,16.7352,16.7352,16.7352,16.7352,16.7352,16.7352,16.7352,16.7352,16.7352,16.7876,17.0792,17.208,17.3127,17.5578,17.6982,17.7281,17.7281,17.7281,17.7281,17.7281,17.7281,17.7281,17.7281,17.7324,17.7365,17.7634,17.8072,17.8617,17.9039,17.9481,17.9957,17.9957,17.9957,17.9957,17.9957,17.9957,17.9957,17.9957,17.9957,17.9957,17.9957,17.9957,17.9957,17.9957,17.9957,17.9957,17.9957,17.9957,17.9957,17.9957,17.9957,17.9957,17.9957,17.9957,17.9957,17.9957,17.9957,17.9957,17.9957,17.9957,17.9957,17.9957,17.9957,17.9957,17.9957,17.9957,17.9957,17.9957,17.9957,17.9957,17.9957,17.9957,17.9957,17.9957,17.9957,17.9957,17.9957,17.9957,17.9957,17.9957,17.9957,17.9957,17.9957,17.9729,17.9046,17.8515,17.8028,16.7352,16.7352,16.7352,16.7352,16.7352,16.7352,16.7352,16.7352,16.7352,16.7352,16.7352,16.7352,16.7352,16.7352,16.7352,16.7352,16.7352,16.7352,16.7352,16.7352,16.7352,16.7352,16.7352,16.7352,16.7352,16.7352,16.7352,16.7352,16.7352,16.7352,16.7352,16.7352,16.7352,16.7352,16.7352,16.7352,16.7352,16.8175,17.0418,17.2304,17.2828,17.5503,17.7206,17.7281,17.7281,17.7281,17.7281,17.7281,17.7281,17.7281,17.7274,17.7372,17.7576,17.7891,17.8302,17.8802,17.9242,17.9494,17.9805,17.9957,17.9957,17.9957,17.9957,17.9957,17.9957,17.9957,17.9957,17.9957,17.9957,17.9957,17.9957,17.9957,17.9957,17.9957,17.9957,17.9957,17.9957,17.9957,17.9957,17.9957,17.9957,17.9957,17.9957,17.9957,17.9957,17.9957,17.9957,17.9957,17.9957,17.9957,17.9957,17.9957,17.9957,17.9957,17.9957,17.9957,17.9957,17.9957,17.9957,17.9957,17.9957,17.9957,17.9957,17.9957,17.9957,17.9957,17.9957,17.9957,17.9957,17.9957,17.9805,17.9653,17.9003,17.8381,17.7979,16.7352,16.7352,16.7352,16.7352,16.7352,16.7352,16.7352,16.7352,16.7352,16.7352,16.7352,16.7352,16.7352,16.7352,16.7352,16.7352,16.7352,16.7352,16.7352,16.7352,16.7352,16.7352,16.7352,16.7352,16.7352,16.7352,16.7352,16.7352,16.7352,16.7352,16.7352,16.7352,16.7352,16.7352,16.7352,16.7352,16.7352,16.825,17.0435,17.2304,17.3036,17.5428,17.7281,17.7281,17.7281,17.7281,17.7281,17.7281,17.7281,17.7281,17.7281,17.7486,17.7782,17.806,17.8548,17.9104,17.9415,17.9702,17.9957,17.9957,17.9957,17.9957,17.9957,17.9957,17.9957,17.9957,17.9957,17.9957,17.9957,17.9957,17.9957,17.9957,17.9957,17.9957,17.9957,17.9957,17.9957,17.9957,17.9957,17.9957,17.9957,17.9957,17.9957,17.9957,17.9957,17.9957,17.9957,17.9957,17.9957,17.9957,17.9957,17.9957,17.9957,17.9957,17.9957,17.9957,17.9957,17.9957,17.9957,17.9957,17.9957,17.9957,17.9957,17.9957,17.9957,17.9957,17.9957,17.9957,17.9957,17.9881,17.9729,17.95,17.8997,17.8362,17.7901,16.7352,16.7352,16.7352,16.7352,16.7352,16.7352,16.7352,16.7352,16.7352,16.7352,16.7352,16.7352,16.7352,16.7352,16.7352,16.7352,16.7352,16.7352,16.7352,16.7352,16.7352,16.7352,16.7352,16.7352,16.7352,16.7352,16.7352,16.7352,16.7352,16.7352,16.7352,16.7352,16.7352,16.7352,16.7352,16.7352,16.7352,16.8025,17.0734,17.2304,17.3277,17.5279,17.7131,17.7281,17.7281,17.7281,17.7281,17.7281,17.7281,17.7281,17.7281,17.7483,17.8028,17.8302,17.8766,17.9283,17.9705,17.9881,17.9957,17.9957,17.9957,17.9957,17.9957,17.9957,17.9957,17.9957,17.9957,17.9957,17.9957,17.9957,17.9957,17.9957,17.9957,17.9957,17.9957,17.9957,17.9957,17.9957,17.9957,17.9957,17.9957,17.9957,17.9957,17.9957,17.9957,17.9957,17.9957,17.9957,17.9957,17.9957,17.9957,17.9957,17.9957,17.9957,17.9957,17.9957,17.9957,17.9957,17.9957,17.9957,17.9957,17.9957,17.9957,17.9957,17.9957,17.9957,17.9957,17.9957,17.9957,17.9881,17.9619,17.9363,17.8851,17.8302,17.7822,16.7352,16.7352,16.7352,16.7352,16.7352,16.7352,16.7352,16.7352,16.7352,16.7352,16.7352,16.7352,16.7352,16.7352,16.7352,16.7352,16.7352,16.7352,16.7352,16.7352,16.7352,16.7352,16.7352,16.7352,16.7352,16.7352,16.7352,16.7352,16.7352,16.7352,16.7352,16.7352,16.7352,16.7352,16.7352,16.7352,16.7352,16.7577,17.0509,17.208,17.2977,17.5653,17.6907,17.7281,17.7281,17.7281,17.7281,17.7281,17.7281,17.7298,17.7257,17.7694,17.8284,17.8583,17.9003,17.9577,17.9805,17.9957,17.9957,17.9957,17.9957,17.9957,17.9957,17.9957,17.9957,17.9957,17.9957,17.9957,17.9957,17.9957,17.9957,17.9957,17.9957,17.9957,17.9957,17.9957,17.9957,17.9957,17.9957,17.9957,17.9957,17.9957,17.9957,17.9957,17.9957,17.9957,17.9957,17.9957,17.9957,17.9957,17.9957,17.9957,17.9957,17.9957,17.9957,17.9957,17.9957,17.9957,17.9957,17.9957,17.9957,17.9957,17.9957,17.9957,17.9957,17.9957,17.9957,17.9957,17.9957,17.9729,17.9494,17.9205,17.8751,17.825,17.7543,16.7352,16.7352,16.7352,16.7352,16.7352,16.7352,16.7352,16.7352,16.7352,16.7352,16.7352,16.7352,16.7352,16.7352,16.7352,16.7352,16.7352,16.7352,16.7352,16.7352,16.7352,16.7352,16.7352,16.7352,16.7352,16.7352,16.7352,16.7352,16.7352,16.7352,16.7352,16.7352,16.7352,16.7352,16.7352,16.7352,16.7352,16.7876,16.9147,17.0942,17.2903,17.5354,17.7281,17.7281,17.7281,17.7281,17.7281,17.7281,17.7281,17.7274,17.7439,17.7839,17.842,17.8816,17.9198,17.9881,17.9957,17.9957,17.9957,17.9957,17.9957,17.9957,17.9957,17.9957,17.9957,17.9957,17.9957,17.9957,17.9957,17.9957,17.9957,17.9957,17.9957,17.9957,17.9957,17.9957,17.9957,17.9957,17.9957,17.9957,17.9957,17.9957,17.9957,17.9957,17.9957,17.9957,17.9957,17.9957,17.9957,17.9957,17.9957,17.9957,17.9957,17.9957,17.9957,17.9957,17.9957,17.9957,17.9957,17.9957,17.9957,17.9957,17.9957,17.9957,17.9957,17.9957,17.9957,17.9957,17.9805,17.9577,17.9271,17.8802,17.8322,17.7815,17.681,16.7352,16.7352,16.7352,16.7352,16.7352,16.7352,16.7352,16.7352,16.7352,16.7352,16.7352,16.7352,16.7352,16.7352,16.7352,16.7352,16.7352,16.7352,16.7352,16.7352,16.7352,16.7352,16.7352,16.7352,16.7352,16.7352,16.7352,16.7352,16.7352,16.7352,16.7352,16.7352,16.7352,16.7352,16.7352,16.7352,16.7352,16.7352,16.7427,16.9147,17.2379,17.5578,17.6982,17.7281,17.7281,17.7281,17.7281,17.7281,17.7358,17.7382,17.7719,17.8129,17.8642,17.9067,17.9497,17.9805,17.9957,17.9957,17.9957,17.9957,17.9957,17.9957,17.9957,17.9957,17.9957,17.9957,17.9957,17.9957,17.9957,17.9957,17.9957,17.9957,17.9957,17.9957,17.9957,17.9957,17.9957,17.9957,17.9957,17.9957,17.9957,17.9957,17.9957,17.9957,17.9957,17.9957,17.9957,17.9957,17.9957,17.9957,17.9957,17.9957,17.9957,17.9957,17.9957,17.9957,17.9957,17.9957,17.9957,17.9957,17.9957,17.9957,17.9957,17.9957,17.9957,17.9957,17.9957,17.9881,17.9729,17.9405,17.9072,17.8566,17.7928,17.7079,17.6317,16.7352,16.7352,16.7352,16.7352,16.7352,16.7352,16.7352,16.7352,16.7352,16.7352,16.7352,16.7352,16.7352,16.7352,16.7352,16.7352,16.7352,16.7352,16.7352,16.7352,16.7352,16.7352,16.7352,16.7352,16.7352,16.7352,16.7352,16.7352,16.7352,16.7352,16.7352,16.7352,16.7352,16.7352,16.7352,16.7352,16.7352,16.7352,16.7427,16.9072,17.2288,17.5428,17.7281,17.7281,17.7281,17.7281,17.7281,17.7281,17.743,17.7634,17.7903,17.825,17.8927,17.9152,17.9497,17.9881,17.9957,17.9957,17.9957,17.9957,17.9957,17.9957,17.9957,17.9957,17.9957,17.9957,17.9957,17.9957,17.9957,17.9957,17.9957,17.9957,17.9957,17.9957,17.9957,17.9957,17.9957,17.9957,17.9957,17.9957,17.9957,17.9957,17.9957,17.9957,17.9957,17.9957,17.9957,17.9957,17.9957,17.9957,17.9957,17.9957,17.9957,17.9957,17.9957,17.9957,17.9957,17.9957,17.9957,17.9957,17.9957,17.9957,17.9957,17.9957,17.9957,17.9957,17.9957,17.9957,17.9577,17.9246,17.8926,17.8269,17.7288,17.6392,17.5288,16.7352,16.7352,16.7352,16.7352,16.7352,16.7352,16.7352,16.7352,16.7352,16.7352,16.7352,16.7352,16.7352,16.7352,16.7352,16.7352,16.7352,16.7352,16.7352,16.7352,16.7352,16.7352,16.7352,16.7352,16.7352,16.7352,16.7352,16.7352,16.7352,16.7352,16.7352,16.7352,16.7352,16.7352,16.7352,16.7352,16.7352,16.7652,16.825,16.9895,17.2437,17.4681,17.6458,17.6982,17.7281,17.7281,17.7281,17.7281,17.7424,17.78,17.8118,17.8608,17.9088,17.9491,17.9708,17.9957,17.9957,17.9957,17.9957,17.9957,17.9957,17.9957,17.9957,17.9957,17.9957,17.9957,17.9957,17.9957,17.9957,17.9957,17.9957,17.9957,17.9957,17.9957,17.9957,17.9957,17.9957,17.9957,17.9957,17.9957,17.9957,17.9957,17.9957,17.9957,17.9957,17.9957,17.9957,17.9957,17.9957,17.9957,17.9957,17.9957,17.9957,17.9957,17.9957,17.9957,17.9957,17.9957,17.9957,17.9957,17.9957,17.9957,17.9957,17.9957,17.9957,17.9957,17.9957,17.9881,17.9501,17.9072,17.8486,17.7763,17.6694,17.534,17.3932,16.7352,16.7352,16.7352,16.7352,16.7352,16.7352,16.7352,16.7352,16.7352,16.7352,16.7352,16.7352,16.7352,16.7352,16.7352,16.7352,16.7352,16.7352,16.7352,16.7352,16.7352,16.7352,16.7352,16.7352,16.7352,16.7352,16.7352,16.7352,16.7352,16.7352,16.7352,16.7352,16.7352,16.7352,16.7352,16.7352,16.7352,16.7502,16.8848,17.0418,17.2363,17.4157,17.5636,17.7131,17.7281,17.7281,17.7281,17.73,17.7517,17.8016,17.8458,17.8883,17.9382,17.9788,17.9957,17.9957,17.9957,17.9957,17.9957,17.9957,17.9957,17.9957,17.9957,17.9957,17.9957,17.9957,17.9957,17.9957,17.9957,17.9957,17.9957,17.9957,17.9957,17.9957,17.9957,17.9957,17.9957,17.9957,17.9957,17.9957,17.9957,17.9957,17.9957,17.9957,17.9957,17.9957,17.9957,17.9957,17.9957,17.9957,17.9957,17.9957,17.9957,17.9957,17.9957,17.9957,17.9957,17.9957,17.9957,17.9957,17.9957,17.9957,17.9957,17.9957,17.9957,17.9957,17.9957,17.9805,17.9405,17.8795,17.8019,17.7313,17.5622,17.3804,17.2437,16.7352,16.7352,16.7352,16.7352,16.7352,16.7352,16.7352,16.7352,16.7352,16.7352,16.7352,16.7352,16.7352,16.7352,16.7352,16.7352,16.7352,16.7352,16.7352,16.7352,16.7352,16.7352,16.7352,16.7352,16.7352,16.7352,16.7352,16.7352,16.7352,16.7352,16.7352,16.7352,16.7352,16.7352,16.7352,16.7352,16.7352,16.7652,16.9147,17.0958,17.2379,17.4082,17.5636,17.7016,17.7274,17.7341,17.7398,17.7605,17.7965,17.8467,17.8883,17.9378,17.9711,17.9957,17.9957,17.9957,17.9957,17.9957,17.9957,17.9957,17.9957,17.9957,17.9957,17.9957,17.9957,17.9957,17.9957,17.9957,17.9957,17.9957,17.9957,17.9957,17.9957,17.9957,17.9957,17.9957,17.9957,17.9957,17.9957,17.9957,17.9957,17.9957,17.9957,17.9957,17.9957,17.9957,17.9957,17.9957,17.9957,17.9957,17.9957,17.9957,17.9957,17.9957,17.9957,17.9957,17.9957,17.9957,17.9957,17.9957,17.9957,17.9957,17.9957,17.9957,17.9957,17.9957,17.9957,17.935,17.8812,17.8517,17.7481,17.5731,17.3986,17.2328,17.1241,16.7352,16.7352,16.7352,16.7352,16.7352,16.7352,16.7352,16.7352,16.7352,16.7352,16.7352,16.7352,16.7352,16.7352,16.7352,16.7352,16.7352,16.7352,16.7352,16.7352,16.7352,16.7352,16.7352,16.7352,16.7352,16.7352,16.7352,16.7352,16.7352,16.7352,16.7352,16.7352,16.7352,16.7352,16.7352,16.7352,16.7352,16.7726,16.982,17.1556,17.2753,17.4755,17.6608,17.7165,17.7439,17.7592,17.7651,17.7989,17.8476,17.8896,17.9385,17.979,17.9957,17.9957,17.9957,17.9957,17.9957,17.9957,17.9957,17.9957,17.9957,17.9957,17.9957,17.9957,17.9957,17.9957,17.9957,17.9957,17.9957,17.9957,17.9957,17.9957,17.9957,17.9957,17.9957,17.9957,17.9957,17.9957,17.9957,17.9957,17.9957,17.9957,17.9957,17.9957,17.9957,17.9957,17.9957,17.9957,17.9957,17.9957,17.9957,17.9957,17.9957,17.9957,17.9957,17.9957,17.9957,17.9957,17.9957,17.9957,17.9426,17.9501,17.9729,17.9881,17.9805,17.9881,17.9046,17.8363,17.7683,17.6901,17.5621,17.3906,17.2401,17.113,17.0044,16.7352,16.7352,16.7352,16.7352,16.7352,16.7352,16.7352,16.7352,16.7352,16.7352,16.7352,16.7352,16.7352,16.7352,16.7352,16.7352,16.7352,16.7352,16.7352,16.7352,16.7352,16.7352,16.7352,16.7352,16.7352,16.7352,16.7352,16.7352,16.7352,16.7352,16.7352,16.7352,16.7352,16.7352,16.7352,16.7352,16.7352,16.7876,17.0194,17.1781,17.2753,17.5055,17.6683,17.7291,17.7619,17.7878,17.8095,17.8495,17.8903,17.9378,17.9729,17.9957,17.9957,17.9957,17.9957,17.9957,17.9957,17.9957,17.9957,17.9957,17.9957,17.9957,17.9957,17.9957,17.9957,17.9957,17.9957,17.9957,17.9957,17.9957,17.9957,17.9957,17.9957,17.9957,17.9957,17.9957,17.9957,17.9957,17.9957,17.9957,17.9957,17.9957,17.9957,17.9957,17.9957,17.9957,17.9957,17.9957,17.9957,17.9957,17.9957,17.9957,17.9957,17.9957,17.9957,17.9957,17.9957,17.9957,17.9957,17.9957,17.8514,17.8059,17.7831,17.8211,17.9046,17.859,17.7603,17.6874,17.5929,17.4875,17.3804,17.239,17.1064,16.9981,16.8923,16.7352,16.7352,16.7352,16.7352,16.7352,16.7352,16.7352,16.7352,16.7352,16.7352,16.7352,16.7352,16.7352,16.7352,16.7352,16.7352,16.7352,16.7352,16.7352,16.7352,16.7352,16.7352,16.7352,16.7352,16.7352,16.7352,16.7352,16.7352,16.7352,16.7352,16.7352,16.7352,16.7352,16.7352,16.7352,16.7352,16.7352,16.7726,16.9446,17.0958,17.2304,17.4198,17.5894,17.6997,17.7563,17.8129,17.8539,17.8991,17.9158,17.9805,17.9957,17.9653,17.9729,17.9881,17.9805,17.9653,17.9577,17.9729,17.9881,17.9881,17.9957,17.9957,17.9957,17.9957,17.9957,17.9957,17.9957,17.9957,17.9957,17.9957,17.9957,17.9957,17.9957,17.9957,17.9957,17.9957,17.9957,17.9957,17.9957,17.9957,17.9957,17.9957,17.9957,17.9957,17.9805,17.8666,17.8894,17.8818,17.8742,17.8666,17.8818,17.9046,17.9198,17.9577,17.9653,17.9653,17.9426,17.9198,17.8894,17.8438,17.6996,17.654,17.6085,17.6009,17.6768,17.6692,17.5948,17.5032,17.4045,17.297,17.1729,17.0602,16.9794,16.8789,16.8325,16.7352,16.7352,16.7352,16.7352,16.7352,16.7352,16.7352,16.7352,16.7352,16.7352,16.7352,16.7352,16.7352,16.7352,16.7352,16.7352,16.7352,16.7352,16.7352,16.7352,16.7352,16.7352,16.7352,16.7352,16.7352,16.7352,16.7352,16.7352,16.7352,16.7352,16.7352,16.7352,16.7352,16.7352,16.7352,16.7352,16.7352,16.7652,16.8998,17.0119,17.1157,17.3662,17.543,17.623,17.7671,17.8522,17.8921,17.9399,17.8742,17.7451,17.7072,17.7072,17.7072,17.7072,17.7072,17.7148,17.7983,17.8514,17.8666,17.9501,17.9957,17.9957,17.9957,17.9957,17.9881,17.9957,17.9957,17.9881,17.9957,17.9957,17.9957,17.9957,17.9957,17.9957,17.9957,17.9957,17.9957,17.9881,17.9957,17.9729,17.9198,17.8514,17.8514,17.7527,17.7148,17.7148,17.7451,17.7375,17.7299,17.6996,17.6844,17.6616,17.6692,17.6996,17.7148,17.7148,17.6996,17.6768,17.6464,17.6388,17.5629,17.5477,17.5097,17.487,17.4946,17.4861,17.4168,17.3444,17.2316,17.1064,16.9489,16.857,16.8373,16.7801,16.7652,16.7352,16.7352,16.7352,16.7352,16.7352,16.7352,16.7352,16.7352,16.7352,16.7352,16.7352,16.7352,16.7352,16.7352,16.7352,16.7352,16.7352,16.7352,16.7352,16.7352,16.7352,16.7352,16.7352,16.7352,16.7352,16.7352,16.7352,16.7352,16.7352,16.7352,16.7352,16.7352,16.7352,16.7352,16.7352,16.7352,16.7352,16.7577,16.8799,16.9583,17.0422,17.284,17.4365,17.4878,17.6358,17.7215,17.7707,17.8328,17.7375,17.5097,17.4946,17.4946,17.5173,17.5173,17.5249,17.5401,17.6161,17.6768,17.6996,17.7907,17.8514,17.8666,17.8287,17.8666,17.8666,17.8666,17.8666,17.8666,17.8666,17.8742,17.9198,17.9274,17.9577,17.9805,17.8894,17.8363,17.8438,17.8666,17.8666,17.859,17.7527,17.692,17.6616,17.5933,17.5249,17.5249,17.5249,17.5325,17.5629,17.5553,17.5781,17.5173,17.4718,17.4794,17.4794,17.4794,17.4718,17.4566,17.4338,17.4262,17.3807,17.3655,17.3503,17.3228,17.2679,17.2014,17.1696,17.1673,17.0728,16.9643,16.8474,16.794,16.7518,16.7427,16.7352,16.7352,16.7352,16.7352,16.7352,16.7352,16.7352,16.7352,16.7352,16.7352,16.7352,16.7352,16.7352,16.7352,16.7352,16.7352,16.7352,16.7352,16.7352,16.7352,16.7352,16.7352,16.7352,16.7352,16.7352,16.7352,16.7352,16.7352,16.7352,16.7352,16.7352,16.7352,16.7352,16.7352,16.7352,16.7352,16.7352,16.7352,16.7448,16.7937,16.8944,17.0248,17.0952,17.1679,17.3158,17.3952,17.4414,17.4653,17.5022,17.5097,17.4946,17.449,17.4414,17.4794,17.487,17.4642,17.4566,17.487,17.5097,17.5097,17.5553,17.5705,17.5781,17.5781,17.5249,17.5705,17.5933,17.5933,17.5857,17.5705,17.6161,17.7299,17.7603,17.8287,17.9198,17.7375,17.5933,17.5325,17.5477,17.5857,17.5629,17.5249,17.5097,17.5022,17.4794,17.4566,17.4566,17.449,17.4262,17.4262,17.411,17.4642,17.4566,17.4034,17.3883,17.3427,17.3427,17.3427,17.3123,17.2592,17.1984,17.1301,17.1225,17.1149,17.0493,16.9828,16.9187,16.8917,16.923,16.8845,16.8449,16.8144,16.7614,16.7352,16.7352,16.7352,16.7352,16.7352,16.7352,16.7352,16.7352,16.7352,16.7352,16.7352,16.7352,16.7352,16.7352,16.7352,16.7352,16.7352,16.7352,16.7352,16.7352,16.7352,16.7352,16.7352,16.7352,16.7352,16.7352,16.7352,16.7352,16.7352,16.7352,16.7352,16.7352,16.7352,16.7352,16.7352,16.7352,16.7352,16.7352,16.7352,16.7352,16.7385,16.762,16.7948,16.8749,17.0099,17.1298,17.2015,17.3603,17.4311,17.433,17.2668,17.1908,17.1908,17.1908,17.1908,17.1908,17.1984,17.1908,17.206,17.2744,17.3351,17.3427,17.4186,17.4946,17.4946,17.4946,17.4946,17.4946,17.4946,17.4946,17.4946,17.487,17.5249,17.5705,17.5857,17.6161,17.6768,17.5553,17.5097,17.4946,17.4946,17.487,17.4566,17.3958,17.3503,17.3047,17.2668,17.1908,17.1908,17.1908,17.1908,17.1908,17.1984,17.1832,17.1832,17.2212,17.244,17.2136,17.2136,17.206,17.1605,17.1073,17.0466,17.0086,17.0086,16.9842,16.9325,16.8933,16.8587,16.8005,16.7928,16.7928,16.7721,16.7507,16.7352,16.7352,16.7352,16.7352,16.7352,16.7352,16.7352,16.7352,16.7352,16.7352,16.7352,16.7352,16.7352,16.7352,16.7352,16.7352,16.7352,16.7352,16.7352,16.7352,16.7352,16.7352,16.7352,16.7352,16.7352,16.7352,16.7352,16.7352,16.7352,16.7352,16.7352,16.7352,16.7352,16.7352,16.7352,16.7352,16.7352,16.7352,16.7352,16.7529,16.7589,16.7648,16.78,16.7955,16.8128,16.9733,17.0616,17.0821,17.2259,17.3269,17.3351,17.1301,17.0162,17.0162,17.0086,17.0086,17.0086,17.0086,17.0086,17.0238,17.1149,17.1681,17.1832,17.2744,17.3275,17.3351,17.3351,17.3427,17.3427,17.3351,17.3275,17.3351,17.3427,17.3731,17.4034,17.4186,17.3958,17.3503,17.3427,17.3275,17.3123,17.3275,17.3427,17.3275,17.244,17.1756,17.1453,17.0997,17.039,17.0314,17.0314,17.0314,17.0238,17.0466,17.0086,17.0086,17.0086,17.0542,17.0845,17.1073,17.1073,17.0769,17.0542,17.0162,17.0086,17.001,16.9706,16.9283,16.8964,16.8484,16.7767,16.7559,16.7589,16.7452,16.7385,16.7352,16.7352,16.7352,16.7352,16.7278,16.7278,16.7352,16.7352,16.7352,16.7352,16.7352,16.7352,16.7352,16.7352,16.7352,16.7352,16.7352,16.7352,16.7352,16.7352,16.7352,16.7352,16.7352,16.7352,16.7352,16.7352,16.7352,16.7352,16.7352,16.7352,16.7369,16.7416,16.7467,16.7436,16.7452,16.7448,16.7498,16.7515,16.7448,16.7888,16.8092,16.8279,16.8706,16.913,16.9305,16.9341,16.9511,16.9448,16.9644,17.0035,17.0314,17.0162,17.0086,17.0086,17.0086,17.0086,17.0086,17.0086,17.0086,17.0086,17.0162,17.0162,17.0238,17.039,17.0693,17.0618,17.039,17.0618,17.0769,17.0618,17.0618,17.0693,17.0618,17.0921,17.2212,17.244,17.1984,17.0542,17.0693,17.0693,17.0466,17.0238,17.0162,17.039,17.0466,17.0162,17.0162,17.0162,17.0086,17.0086,17.0086,17.0086,17.0086,17.0086,17.0086,17.0086,17.0086,17.0086,17.0086,17.0086,17.0086,17.0086,17.0086,17.0086,17.0086,16.9858,16.9554,16.9069,16.8766,16.8282,16.7634,16.7432,16.7405,16.7405,16.7416,16.7352,16.7352,16.7352,16.7352,16.4735,16.5841,16.6888,16.7352,16.7352,16.7352,16.7352,16.7352,16.7352,16.7352,16.7352,16.7352,16.7352,16.7352,16.7352,16.7352,16.7352,16.7352,16.7352,16.7352,16.7352,16.7352,16.7352,16.7352,16.7352,16.7432,16.7735,16.8031,16.8185,16.8081,16.8031,16.8315,16.8271,16.8271,16.8293,16.8436,16.8532,16.8569,16.8813,16.8957,16.8908,16.9156,16.9317,16.9337,16.9657,16.9927,17.0086,17.0086,17.0086,17.0086,17.0086,17.0086,17.0086,17.0086,17.0086,17.0086,17.0086,17.0086,17.0086,17.0086,17.0086,17.0086,17.0086,17.0086,17.0086,17.0086,17.0086,17.0086,17.0086,17.0162,17.0693,17.0845,17.0618,17.0238,17.0086,17.0086,17.0086,17.0086,17.0086,17.0086,17.0086,17.0086,17.0086,17.0086,17.0086,17.0086,17.0086,17.0086,17.0086,17.0086,17.0086,17.0086,17.0086,17.0086,17.0086,17.0086,17.0086,17.0086,17.0086,17.0086,17.001,16.9706,16.9309,16.8895,16.8436,16.8031,16.766,16.7405,16.7352,16.7369,16.7352,16.7352,16.7352,16.7352,16.7352,16.2567,16.4287,16.5857,16.653,16.6605,16.7112,16.7352,16.7352,16.7352,16.7352,16.7352,16.7352,16.7352,16.7352,16.7352,16.7352,16.7352,16.7352,16.7352,16.7352,16.7352,16.7352,16.7385,16.753,16.7634,16.775,16.814,16.8465,16.87,16.8455,16.8465,16.865,16.8682,16.8682,16.8714,16.8902,16.8895,16.8983,16.9098,16.9216,16.9256,16.9434,16.9565,16.9646,16.9927,17.0086,17.0086,17.0086,17.0086,17.0086,17.0086,17.0086,17.0086,17.0086,17.0086,17.0086,17.0086,17.0086,17.0086,17.0086,17.0086,17.0086,17.0086,17.0086,17.0086,17.0086,17.0086,17.0086,17.0086,17.0086,17.0086,17.0086,17.0086,17.0086,17.0086,17.0086,17.0086,17.0086,17.0086,17.0086,17.0086,17.0086,17.0086,17.0086,17.0086,17.0086,17.0086,17.0086,17.0086,17.0086,17.0086,17.0086,17.0086,17.0086,17.0086,17.0086,17.0086,17.0086,17.0086,17.0086,17.001,16.9706,16.927,16.8844,16.8441,16.8031,16.756,16.7352,16.7352,16.7352,16.7352,16.7352,16.7352,16.7352,16.7352,16.0847,16.2492,16.4137,16.481,16.5034,16.6514,16.7203,16.7128,16.7278,16.7352,16.7352,16.7352,16.7278,16.7128,16.7278,16.7352,16.7352,16.7352,16.7385,16.7405,16.7464,16.7448,16.7436,16.7901,16.814,16.8199,16.856,16.8774,16.8682,16.8774,16.879,16.8836,16.888,16.8844,16.8923,16.9237,16.9329,16.942,16.9753,17.001,17.001,17.001,17.001,17.0086,17.0086,17.0086,17.0086,17.0086,17.0086,17.0086,17.0086,17.0086,17.0086,17.0086,17.0086,17.0086,17.0086,17.0086,17.0086,17.0086,17.0086,17.0086,17.0086,17.0086,17.0086,17.0086,17.0086,17.0086,17.0086,17.0086,17.0086,17.0086,17.0086,17.0086,17.0086,17.0086,17.0086,17.0086,17.0086,17.0086,17.0086,17.0086,17.0086,17.0086,17.0086,17.0086,17.0086,17.0086,17.0086,17.0086,17.0086,17.0086,17.0086,17.0086,17.0086,17.0086,17.0086,17.0086,17.0086,17.0086,16.9934,16.9653,16.9232,16.8813,16.8304,16.7835,16.7529,16.7352,16.7352,16.7352,16.7352,16.7352,16.7352,16.7352,16.7352,15.9202,16.0638,16.1146,16.2043,16.3314,16.496,16.5707,16.5857,16.6904,16.7352,16.7352,16.7352,16.6754,16.5932,16.6888,16.7352,16.7352,16.7352,16.7589,16.7875,16.7977,16.8092,16.8334,16.8522,16.8569,16.864,16.899,16.9028,16.8813,16.8946,16.9313,16.9646,16.9733,16.9733,16.9738,16.9834,16.9846,16.9858,17.001,17.0086,17.0086,17.0086,17.0086,17.0086,17.0086,17.0086,17.0086,17.0086,17.0086,17.0086,17.0086,17.0086,17.0086,17.0086,17.0086,17.0086,17.0086,17.0086,17.0086,17.0086,17.0086,17.0086,17.0086,17.0086,17.0086,17.0086,17.0086,17.001,17.0086,17.001,17.0086,17.0086,17.0086,17.0086,17.0086,17.0086,17.0086,17.0086,17.0086,17.0086,17.0086,17.0086,17.0086,17.0086,17.0086,17.0086,17.0086,17.0086,17.0086,17.0086,17.0086,17.0086,17.0086,17.0086,17.0086,17.0086,17.0086,17.0086,17.0086,17.0086,17.001,16.9327,16.8745,16.8649,16.7993,16.7499,16.7416,16.7352,16.7352,16.7352,16.7352,16.7352,16.7203,16.7352,16.7352,15.8155,15.9052,15.9052,15.9965,16.161,16.324,16.3987,16.4062,16.5034,16.5408,16.5408,16.5333,16.4997,16.4303,16.5203,16.5746,16.5849,16.5849,16.6384,16.7302,16.7322,16.7795,16.869,16.884,16.8996,16.9022,16.942,16.953,16.9377,16.953,16.9756,17.0086,17.0086,17.0086,17.0086,17.0086,17.0086,17.0086,17.0086,17.0086,17.0086,17.0086,17.0086,17.0086,17.0086,16.9858,16.9175,16.9099,16.8719,16.8036,16.8036,16.8036,16.8036,16.8036,16.834,16.9023,16.9023,16.9327,17.001,17.0086,17.0086,17.0086,17.0086,17.0086,17.0086,17.0086,16.9782,16.9175,16.9023,16.9403,17.001,17.0086,17.0086,17.0086,17.0086,17.0086,17.0086,17.0086,17.0086,17.0086,17.0086,17.0086,17.0086,17.0086,17.0086,17.0086,17.0086,17.0086,17.0086,17.0086,17.0086,17.0086,17.0086,17.0086,17.0086,17.0086,17.0086,17.0086,17.0086,16.9934,16.9782,16.9099,16.8683,16.8484,16.7888,16.7405,16.7203,16.7352,16.7352,16.7352,16.7352,16.7128,16.653,16.6455,16.6006,15.7257,15.7407,15.7407,15.8304,15.9875,16.1535,16.2283,16.2283,16.2508,16.2433,16.2149,16.2286,16.2559,16.2838,16.3147,16.3509,16.3744,16.3718,16.4574,16.5907,16.5998,16.6861,16.8173,16.8644,16.8889,16.891,16.9234,16.9251,16.9251,16.9403,16.9479,16.963,16.9782,16.9858,17.0086,17.0086,17.0086,17.0086,16.9782,16.963,16.963,16.963,16.963,16.963,16.9554,16.8871,16.7428,16.7352,16.6593,16.5226,16.515,16.5075,16.515,16.5075,16.5758,16.7201,16.7352,16.796,16.9403,16.963,16.9479,16.963,16.9403,16.9403,16.9479,16.9479,16.8947,16.7732,16.7352,16.7884,16.9327,16.9479,16.9251,16.9175,16.9251,16.963,16.9403,16.963,16.963,16.963,16.9251,16.963,16.9251,16.9479,16.9706,16.9554,16.9782,17.0086,17.0086,17.0086,17.001,16.9782,17.0086,17.0086,17.0086,17.0086,17.0086,17.0086,17.0086,16.9782,16.9427,16.9015,16.8436,16.7774,16.7299,16.6802,16.6754,16.6904,16.6679,16.6231,16.6231,16.6306,16.5259,16.481,16.3987,15.4491,15.5687,15.5672,15.6659,15.8304,15.9875,16.0548,16.0697,16.1909,16.1071,15.9143,16.0355,16.1036,16.1288,16.281,16.3559,16.3642,16.365,16.4057,16.4814,16.4824,16.5153,16.5798,16.597,16.5978,16.6055,16.6136,16.6138,16.6138,16.6138,16.6138,16.6289,16.7504,16.8795,17.001,17.0086,17.0086,16.9934,16.7504,16.6138,16.6138,16.6214,16.6138,16.6214,16.6138,16.5986,16.5682,16.5606,16.5454,16.5075,16.4999,16.4999,16.4999,16.4999,16.5226,16.553,16.5606,16.5758,16.6138,16.6214,16.6138,16.6138,16.6138,16.6138,16.6214,16.6214,16.5986,16.5682,16.5454,16.5682,16.6214,16.6214,16.6214,16.6138,16.6214,16.6365,16.6214,16.6138,16.6138,16.6138,16.6138,16.6289,16.6441,16.7277,16.8036,16.834,16.9251,17.001,17.0086,17.0086,16.9479,16.8871,16.9251,16.9858,17.0086,16.9934,16.9934,17.0086,16.9681,16.9233,16.9123,16.8658,16.785,16.6574,16.5921,16.5188,16.3913,16.3704,16.3854,16.3913,16.3987,16.3688,16.324,16.3181,16.2193,15.3159,15.3892,15.3967,15.4491,15.5478,15.7108,15.8155,15.8828,15.8245,15.7076,15.5834,15.7477,15.8522,15.9006,16.0884,16.18,16.1989,16.1989,16.2512,16.3504,16.3583,16.4067,16.4923,16.4999,16.4999,16.4999,16.4999,16.4999,16.4999,16.4999,16.4999,16.5075,16.591,16.6897,16.7732,16.7732,16.7808,16.7732,16.515,16.386,16.386,16.31,16.2721,16.2721,16.2721,16.2417,16.1582,16.1582,16.1202,16.0443,15.9683,15.9683,16.0291,15.9759,15.9987,16.143,16.1582,16.1961,16.2721,16.2721,16.2721,16.2797,16.3404,16.2948,16.0671,16.0443,16.0746,16.1506,16.1582,16.2113,16.3708,16.386,16.4239,16.4923,16.4999,16.4999,16.4999,16.4999,16.4999,16.4999,16.4999,16.4999,16.4999,16.5834,16.6365,16.6441,16.7049,16.7656,16.7732,16.7732,16.7428,16.6669,16.7125,16.7732,16.7732,16.7808,16.7808,16.7808,16.7428,16.7324,16.7822,16.6631,16.5822,16.5351,16.4472,16.3586,16.2807,16.2508,16.2508,16.2508,16.2508,16.2508,16.2358,16.1834,16.0249,15.2038,15.2262,15.2262,15.2412,15.2711,15.4192,15.5612,15.6659,15.3907,15.2749,15.3202,15.467,15.5782,15.6525,15.8003,15.8941,15.9228,15.9304,16.0063,16.143,16.1658,16.2569,16.3936,16.4239,16.4315,16.4315,16.4315,16.4315,16.4315,16.4315,16.4315,16.4315,16.4543,16.4695,16.4695,16.4923,16.4467,16.3252,16.1885,16.1202,16.143,15.9987,15.9152,15.8924,15.8924,15.8165,15.6494,15.6418,15.5735,15.4292,15.2926,15.2698,15.3761,15.2698,15.3001,15.5431,15.5735,15.6418,15.8013,15.8241,15.8317,15.862,16.0139,15.9,15.4065,15.4216,15.5203,15.657,15.7102,15.8317,16.0974,16.1354,16.1734,16.3176,16.348,16.3556,16.3252,16.3252,16.3176,16.31,16.3784,16.3784,16.3556,16.4239,16.4695,16.4695,16.5226,16.5226,16.5302,16.4695,16.4391,16.4619,16.4847,16.4999,16.5378,16.5075,16.5302,16.4999,16.4847,16.4929,16.5816,16.4511,16.3553,16.4127,16.2987,16.2059,16.161,16.1834,16.1535,16.1386,16.1386,16.1535,16.1461,15.989,15.793,14.942,15.0617,15.0691,15.1439,15.2636,15.286,15.3234,15.3459,15.286,0.0,0.0,15.3369,15.3866,15.4353,15.4986,15.5452,15.5811,15.5811,15.5963,15.6342,15.7709,15.8469,15.8848,16.0215,16.0898,16.0822,16.0822,16.0822,16.0898,16.0898,16.0822,16.105,16.2265,16.2948,16.3024,16.4315,16.1658,15.5128,15.452,15.4976,15.6191,15.5963,15.5203,15.3913,15.3913,15.3077,15.1407,15.1407,15.1255,15.0951,15.0648,15.004,14.8901,14.8597,14.8066,14.7307,14.7231,14.7914,14.9585,14.9736,15.0344,15.1711,15.3381,15.2166,14.7155,15.0572,15.3153,15.3381,15.4672,15.5583,15.6191,15.6267,15.6418,15.6646,15.6722,15.6722,15.6798,15.6722,15.7026,15.6874,15.8165,15.8772,15.9,16.1126,16.2948,16.31,16.3784,16.4999,16.4695,16.2493,16.1278,16.2493,16.3404,16.4695,16.4923,16.4695,16.4999,16.4467,16.4007,16.387,16.3895,16.3286,16.2181,16.1102,16.0697,15.98,15.8753,15.8454,15.8529,15.8454,15.8529,15.8529,15.823,15.6076,15.3907,14.5816,14.6489,14.6489,14.7387,0.0,14.978,14.9181,14.7686,14.7686,14.7758,14.813,15.0158,15.1233,15.1645,15.3752,15.4735,15.4976,15.4976,15.4976,15.4976,15.5811,15.6191,15.6191,15.7026,15.7405,15.7405,15.7405,15.7405,15.7405,15.7405,15.7026,15.6267,15.7026,15.7026,15.6267,15.7026,15.5431,15.1331,15.2166,15.3001,15.3685,15.2926,15.209,15.1331,15.1331,0.0,0.0,0.0,0.0,0.0,0.0,0.0,0.0,14.3814,14.2447,14.2447,14.0852,14.0245,14.108,14.1232,14.1536,14.2371,14.3966,14.3206,13.903,14.2523,14.5256,14.6168,14.7686,14.9357,15.0951,15.1179,15.1559,15.2394,15.247,15.285,15.3609,15.3761,15.4065,15.4824,15.5659,15.6191,15.6191,15.7785,15.862,15.8772,16.0139,16.1126,16.0974,15.9,15.7709,15.8544,15.9456,15.9987,15.9911,15.9911,15.9835,15.9911,15.9422,15.9306,15.9855,15.8752,15.7826,15.7632,15.6809,15.6076,15.5238,15.5089,15.5089,15.5104,15.5104,15.5089,15.4954,15.3159,15.1365,14.2934,14.2886,14.2886,14.3559,14.477,14.5267,14.4427,14.2568,14.2528,14.2863,14.375,14.6628,14.8165,14.8704,15.1612,15.3,15.3077,15.3077,15.3077,15.3077,15.3685,15.3989,15.4065,15.4596,15.4976,15.4976,15.4976,15.4976,15.4976,15.4976,15.4292,15.3077,15.3001,15.2242,15.0572,0.0,0.0,0.0,15.0192,15.1483,15.2014,15.0799,14.9888,14.9585,14.9281,0.0,14.8597,14.8294,14.7534,14.6168,14.4497,0.0,0.0,0.0,0.0,0.0,0.0,0.0,0.0,0.0,0.0,0.0,13.4246,13.3943,13.1513,13.4398,13.7132,13.8499,14.0397,14.2523,14.4877,14.5181,14.5864,14.7458,14.761,14.8522,15.042,15.0648,15.1331,15.285,15.3609,15.3989,15.3989,15.4596,15.5052,15.5279,15.6115,15.6798,15.6646,15.5735,15.5052,15.4976,15.5355,15.5052,15.482,15.5052,15.5431,15.472,15.4391,15.4668,15.5496,15.4338,15.3598,15.4412,15.3519,15.2711,15.2636,15.2561,15.2785,15.2636,15.2636,15.2262,15.0991,14.9705,14.8882,14.3128,14.2812,14.2886,14.3036,14.2853,13.8971,13.9002,14.1516,14.1183,14.2044,14.3847,14.4269,14.4717,14.5108,14.5593,14.5974,14.6244,14.632,14.632,14.6471,14.9281,15.0648,15.0799,15.3609,15.4976,15.4976,15.4976,15.4976,15.4976,15.4976,15.4824,15.4672,15.4596,15.3837,15.2014,14.4953,14.1232,14.1308,14.4345,14.7458,15.0268,15.0192,14.9357,14.7914,14.6395,14.4953,14.351,14.1991,14.1156,14.0852,13.9334,13.7815,13.6373,13.2956,13.045,0.0,12.7337,0.0,0.0,0.0,0.0,0.0,0.0,0.0,0.0,13.0374,13.3259,13.3487,13.6297,13.7663,13.66,13.66,13.7284,13.8878,13.903,14.0321,14.3358,14.3738,14.4421,14.6092,14.8901,15.0648,15.0724,15.3229,15.49,15.4672,15.4596,15.3989,15.3457,15.3761,15.4292,15.4976,15.4976,15.4065,15.3936,15.4128,15.4001,15.3852,15.3252,15.3409,15.3293,15.2785,15.2616,15.2665,15.2337,15.2262,15.2561,15.2412,15.2412,15.2112,15.2038,15.0467,14.6027,14.4382,14.3784,13.7834,13.7562,13.7637,13.7742,13.7795,13.568,13.5724,13.7223,13.7052,13.7454,13.8309,13.8309,13.9108,14.0336,14.1483,14.2056,14.2219,14.2219,14.2751,14.3662,14.5181,14.6395,14.7307,14.8749,14.9433,14.9433,14.9433,14.9433,14.9433,14.9433,14.8901,14.799,14.799,14.632,14.2903,14.0017,13.903,13.9941,14.2371,14.4801,14.7155,14.7231,14.6927,14.6168,14.5408,14.4193,14.2599,14.1764,14.0473,13.865,13.7815,13.6297,13.3791,12.9615,12.6501,0.0,0.0,0.0,0.0,0.0,0.0,0.0,0.0,0.0,0.0,0.0,12.4983,12.6805,13.1741,13.4398,13.3715,13.3639,13.3563,13.3335,13.3335,13.4246,13.6676,13.7739,13.8954,14.0625,14.2979,14.4801,14.5712,14.7155,14.8673,15.0572,14.8446,14.6395,14.5864,14.7003,14.799,14.8066,14.8825,14.9355,14.9261,14.8978,14.8817,14.8623,14.8349,14.798,14.7851,14.7644,14.7468,14.726,14.7237,14.7237,14.7162,14.7162,14.7237,14.7237,14.7237,14.6116,14.3485,14.2886,14.2886,13.3707,13.321,13.1714,13.1397,13.1992,13.2158,13.2689,13.3443,13.3512,13.3552,13.3611,13.3925,13.448,13.5342,13.6803,13.7657,13.8038,13.8118,13.9106,14.0701,14.108,14.1991,14.3206,14.3662,14.3814,14.3814,14.3814,14.3814,14.3814,14.3358,14.2523,14.1308,14.0549,13.8043,13.4095,13.5461,13.6904,13.8195,14.0625,14.2523,14.3738,14.4573,14.4953,14.4953,14.4193,14.3206,14.1916,14.108,13.9486,13.698,13.5689,13.3943,13.1437,12.5818,0.0,0.0,0.0,0.0,0.0,0.0,0.0,0.0,0.0,11.3213,11.1467,0.0,11.8073,0.0,12.6274,12.9539,12.9615,12.9235,0.0,0.0,12.7868,12.8628,13.1133,13.2424,13.3791,13.5461,13.7132,13.8726,13.9941,14.0777,14.2143,14.4118,14.1536,13.9334,13.941,14.108,14.2371,14.2219,14.313,14.3814,14.389,14.3772,14.4027,14.4081,14.4014,14.3605,14.3403,14.3306,14.3234,14.2961,14.2886,14.2886,14.3036,14.2886,14.2513,14.0868,14.0569,14.0569,14.0494,14.0419,14.0419,13.373,13.2834,12.6925,12.5304,12.6579,12.6957,12.9062,13.2051,13.2116,13.2351,13.2721,13.3929,13.2816,13.0113,13.0279,0.0,13.2644,13.3024,13.4019,13.5537,13.7132,13.7891,13.8119,13.9638,14.0321,14.0397,14.0321,14.0321,14.0245,13.8802,13.7967,13.7739,13.4854,13.2348,13.0602,13.212,13.3032,13.3183,13.7815,14.0245,14.0397,14.3358,14.4953,14.4877,14.1991,14.0321,14.0017,13.7132,13.5385,13.5006,13.0754,12.8172,12.7716,0.0,0.0,0.0,0.0,0.0,0.0,0.0,0.0,0.0,0.0,0.0,0.0,0.0,0.0,11.7693,11.9668,0.0,12.0958,11.9516,0.0,0.0,0.0,12.2629,12.7413,12.802,12.8779,13.045,0.0,0.0,13.3335,13.5993,13.736,13.6297,13.698,13.7663,13.7587,14.0169,14.1916,14.0093,14.0169,14.0321,14.0245,14.0964,14.1745,14.2414,14.3332,14.2769,14.2468,14.2586,14.2771,14.2438,14.2812,14.2662,14.2812,14.2438,14.1017,13.511,13.3989,13.3914,13.4213,13.4288,13.4363,12.769,12.4184,12.1907,12.1256,12.1874,12.2011,12.3488,12.5776,12.5771,12.5823,12.6049,12.6497,12.5477,12.3217,12.3289,0.0,0.0,0.0,12.6791,13.045,13.1133,13.3032,13.5993,13.6676,13.6904,13.6904,13.6904,13.698,13.7056,13.6297,13.2348,12.5514,0.0,12.3616,12.4072,12.764,12.9994,13.1133,13.5006,13.698,13.6904,13.8195,13.8878,13.8878,13.7587,13.6448,13.5537,13.4171,13.212,12.9007,12.6046,12.316,0.0,0.0,0.0,0.0,0.0,0.0,0.0,0.0,0.0,0.0,0.0,10.3266,10.1672,0.0,0.0,0.0,11.2986,11.4352,11.534,11.663,0.0,0.0,0.0,0.0,0.0,0.0,0.0,12.5135,12.6957,12.8779,13.0754,12.9463,12.8552,12.8931,12.9539,12.9918,12.9918,0.0,13.3563,13.3943,13.4019,13.4322,13.5385,13.5074,13.4777,13.4921,13.547,13.5818,13.572,13.6387,13.6843,13.6905,13.6905,13.6905,13.6905,13.6905,13.5858,13.3465,13.2942,13.2942,13.2942,13.2942,13.2942,12.0218,0.0,0.0,0.0,0.0,11.6931,11.7874,11.938,11.9548,11.9283,11.8905,11.9359,0.0,0.0,0.0,0.0,0.0,0.0,12.0465,12.4603,12.559,12.7944,13.1437,13.1361,13.1361,13.1285,13.083,13.0678,13.0754,12.9691,12.4755,11.6175,0.0,0.0,0.0,0.0,12.6653,12.802,13.212,13.4322,13.4246,13.4702,13.493,13.493,13.4474,13.3487,13.1893,13.0905,12.8248,12.3768,12.1034,0.0,0.0,0.0,0.0,0.0,0.0,0.0,0.0,0.0,0.0,0.0,0.0,0.0,0.0,0.0,0.0,0.0,0.0,0.0,10.9493,11.215,11.3441,0.0,0.0,0.0,0.0,0.0,0.0,0.0,0.0,0.0,12.5514,12.3768,12.2933,0.0,0.0,12.6122,12.5135,12.6881,12.8324,12.8552,12.8552,0.0,13.0139,12.9765,12.938,12.9436,13.0473,13.1238,13.1056,13.133,13.1534,13.1596,13.1908,13.1384,12.9428,12.8692,12.8692,12.8755,12.868,12.8767,12.8755,12.8755,12.8767,0.0,0.0,0.0,0.0,11.0987,0.0,0.0,0.0,11.4251,11.3541,0.0,11.3692,0.0,0.0,0.0,0.0,11.1922,11.3747,0.0,0.0,12.0958,12.2705,12.2933,12.2933,12.2857,12.2781,12.1338,12.0503,12.0199,11.7238,11.4656,0.0,0.0,0.0,0.0,0.0,12.2629,12.3009,12.9311,13.2652,13.2652,13.4246,13.5006,13.5006,13.3487,13.1817,13.007,12.6957,12.3616,12.0123,11.5415,0.0,0.0,0.0,0.0,0.0,0.0,0.0,0.0,0.0,0.0,0.0,0.0,0.0,0.0,0.0,0.0,0.0,0.0,0.0,0.0,10.433,0.0,0.0,0.0,0.0,0.0,0.0,0.0,0.0,0.0,11.7162,11.5947,11.9516,12.2477,12.2477,0.0,0.0,0.0,0.0,12.8779,12.5666,12.5211,12.5129,12.4978,12.6405,12.7938,12.907,0.0,0.0,13.106,12.9413,12.8169,12.8244,12.9228,12.8032,12.0254,11.8983,11.8971,11.8908,11.9046,11.8758,11.8758,11.9357,11.9656,0.0,0.0,0.0,0.0,0.0,0.0,0.0,0.0,0.0,10.5202,10.4743,10.5285,0.0,0.0,0.0,0.0,0.0,0.0,0.0,0.0,11.215,11.4428,11.7618,11.7618,11.7693,11.7618,11.7086,11.3365,0.0,0.0,0.0,0.0,0.0,0.0,0.0,0.0,12.0275,12.2553,12.6957,12.9842,13.0905,13.1513,13.1817,13.1817,13.1209,12.9083,12.5211,12.187,11.7466,0.0,0.0,0.0,0.0,0.0,0.0,0.0,0.0,0.0,0.0,0.0,0.0,0.0,0.0,0.0,0.0,0.0,0.0,0.0,0.0,0.0,0.0,0.0,10.1292,0.0,0.0,0.0,0.0,0.0,0.0,0.0,0.0,0.0,11.048,11.3517,11.6782,11.8908,12.1642,12.3464,12.3388,0.0,0.0,0.0,0.0,0.0,0.0,0.0,12.3303,12.1394,12.1577,12.1824,12.1464,12.1461,12.1675,12.1589,0.0,0.0,11.4496,11.426,11.5008,11.5008,11.5008,11.4997,11.5008,11.4997,11.5457,0.0,0.0,0.0,0.0,0.0,0.0,0.0,0.0,0.0,9.8398,9.8398,0.0,0.0,0.0,0.0,0.0,0.0,0.0,0.0,0.0,0.0,0.0,11.0784,11.1391,0.0,0.0,0.0,0.0,0.0,0.0,0.0,0.0,0.0,0.0,0.0,0.0,11.7693,12.0123,12.4907,12.802,12.9159,12.9767,13.007,13.007,12.9463,12.7033,12.2629,0.0,0.0,0.0,0.0,0.0,0.0,0.0,0.0,0.0,0.0,0.0,0.0,0.0,0.0,0.0,0.0,0.0,0.0,0.0,0.0,0.0,0.0,0.0,0.0,0.0,9.6964,0.0,0.0,0.0,0.0,0.0,0.0,0.0,0.0,0.0,0.0,10.843,11.2075,11.534,11.8225,12.0351,12.149,12.2553,12.3692,0.0,0.0,0.0,0.0,0.0,0.0,0.0,0.0,0.0,0.0,0.0,0.0,0.0,0.0,11.2167,10.8887,10.925,10.9838,10.924,0.0,0.0,0.0,0.0,0.0,0.0,0.0,0.0,0.0,0.0,0.0,0.0,0.0,0.0,0.0,9.3472,0.0,0.0,9.3388,0.0,0.0,0.0,0.0,0.0,0.0,0.0,0.0,0.0,0.0,0.0,0.0,0.0,0.0,0.0,0.0,0.0,0.0,0.0,0.0,0.0,0.0,11.4884,11.5264,12.3085,12.7337,12.7564,12.9159,12.9918,12.9918,12.8248,12.5818,12.2325,0.0,0.0,0.0,0.0,0.0,0.0,0.0,0.0,0.0,0.0,0.0,0.0,0.0,0.0,0.0,0.0,0.0,0.0,0.0,0.0,0.0,0.0,0.0,0.0,0.0,0.0,9.3168,9.704,9.9926,0.0,0.0,0.0,0.0,0.0,0.0,0.0,0.0,0.0,11.1847,11.663,11.9744,11.9895,11.9971,12.0123,12.0199,11.8756,11.8143,11.9348,11.9794,11.9721,0.0,0.0,0.0,0.0,0.0,0.0,0.0,0.0,0.0,0.0,0.0,0.0,0.0,0.0,0.0,0.0,0.0,0.0,0.0,0.0,0.0,0.0,0.0,0.0,0.0,0.0,0.0,0.0,0.0,0.0,0.0,0.0,0.0,0.0,0.0,0.0,0.0,0.0,0.0,0.0,0.0,0.0,0.0,0.0,0.0,0.0,0.0,0.0,0.0,0.0,0.0,0.0,0.0,0.0,11.0328,11.5036,11.9744,12.392,12.7413,12.802,12.8248,12.8172,12.5438,12.187,11.739,0.0,0.0,0.0,0.0,0.0,0.0,0.0,0.0,0.0,0.0,0.0,0.0,0.0,0.0,0.0,0.0,0.0,0.0,0.0,0.0,0.0,0.0,0.0,0.0,0.0,0.0,0.0,9.8103,9.7799,9.666,0.0,0.0,0.0,0.0,0.0,0.0,0.0,0.0,0.0,0.0,11.4201,11.7693,11.9212,12.0351,12.1566,12.1262,12.0193,11.8131,11.8827,11.7855,11.2649,0.0,0.0,0.0,0.0,0.0,0.0,0.0,0.0,0.0,0.0,0.0,0.0,0.0,0.0,0.0,0.0,0.0,0.0,0.0,0.0,0.0,0.0,0.0,0.0,0.0,0.0,0.0,0.0,0.0,0.0,0.0,0.0,0.0,0.0,0.0,0.0,0.0,0.0,0.0,0.0,0.0,0.0,0.0,0.0,0.0,0.0,0.0,0.0,0.0,0.0,0.0,0.0,0.0,10.7367,11.215,11.7314,12.1794,12.5438,12.6198,12.6501,12.6577,12.2629,11.8529,0.0,0.0,0.0,0.0,0.0,0.0,0.0,0.0,0.0,0.0,0.0,0.0,0.0,0.0,0.0,0.0,0.0,0.0,0.0,0.0,0.0,0.0,0.0,0.0,0.0,0.0,0.0,0.0,9.5446,9.5522,9.5142,0.0,0.0,0.0,0.0,0.0,0.0,0.0,0.0,0.0,0.0,10.9417,11.3138,11.5036,0.0,0.0,11.8073,11.7083,11.5531,11.6737,11.5842,10.9957,10.7983,0.0,0.0,0.0,0.0,0.0,0.0,0.0,0.0,0.0,0.0,0.0,0.0,0.0,0.0,0.0,0.0,0.0,0.0,0.0,0.0,0.0,0.0,0.0,0.0,0.0,0.0,0.0,0.0,0.0,0.0,0.0,0.0,0.0,0.0,0.0,0.0,0.0,0.0,0.0,0.0,0.0,0.0,0.0,0.0,0.0,0.0,0.0,0.0,0.0,0.0,0.0,0.0,10.5544,10.7519,11.5415,12.0503,12.2249,12.392,12.4755,12.4527,11.9744,11.5491,0.0,0.0,0.0,0.0,0.0,0.0,0.0,0.0,0.0,0.0,0.0,0.0,0.0,0.0,0.0,0.0,0.0,0.0,0.0,0.0,0.0,0.0,0.0,0.0,0.0,0.0,0.0,0.0,0.0,0.0,0.0,0.0,0.0,0.0,0.0,0.0,0.0,0.0,0.0,0.0,0.0,10.5089,10.6911,10.8582,11.0252,0.0,11.086,11.0328,11.1695,11.3213,11.3132,10.9333,0.0,0.0,0.0,0.0,0.0,0.0,0.0,0.0,0.0,0.0,0.0,0.0,0.0,0.0,0.0,0.0,0.0,0.0,0.0,0.0,0.0,0.0,0.0,0.0,0.0,0.0,0.0,0.0,0.0,0.0,0.0,0.0,0.0,0.0,0.0,0.0,0.0,0.0,0.0,0.0,0.0,0.0,0.0,0.0,0.0,0.0,0.0,0.0,0.0,0.0,0.0,0.0,0.0,0.0,10.5696,11.2682,11.7693,12.0503,12.2173,12.2477,12.1186,11.6403,0.0,0.0,0.0,0.0,0.0,0.0,0.0,0.0,0.0,0.0,0.0,0.0,0.0,0.0,0.0,0.0,0.0,0.0,0.0,0.0,0.0,0.0,0.0,0.0,0.0,0.0,0.0,8.6106,0.0,0.0,0.0,0.0,0.0,0.0,0.0,0.0,0.0,0.0,0.0,0.0,0.0,0.0,10.0457,10.3342,10.5165,10.6835,0.0,0.0,10.7367,10.5317,10.638,10.5844,0.0,0.0,0.0,0.0,0.0,0.0,0.0,0.0,0.0,0.0,0.0,0.0,0.0,0.0,0.0,0.0,0.0,0.0,0.0,0.0,0.0,0.0,0.0,0.0,0.0,0.0,0.0,0.0,0.0,0.0,0.0,0.0,0.0,0.0,0.0,0.0,0.0,0.0,0.0,0.0,0.0,0.0,0.0,0.0,0.0,0.0,0.0,0.0,0.0,0.0,0.0,0.0,0.0,0.0,9.9774,10.3874,10.9113,11.4049,11.8681,11.9136,11.9136,11.8832,11.3365,10.8658,0.0,0.0,0.0,0.0,0.0,0.0,0.0,0.0,0.0,0.0,0.0,0.0,0.0,0.0,0.0,0.0,0.0,0.0,0.0,0.0,0.0,0.0,0.0,0.0,0.0,0.0,0.0,0.0,0.0,0.0,0.0,0.0,0.0,0.0,0.0,0.0,0.0,0.0,0.0,0.0,0.0,0.0,10.0001,10.114,0.0,0.0,0.0,10.357,10.1672,0.0,0.0,0.0,0.0,0.0,0.0,0.0,0.0,0.0,0.0,0.0,0.0,0.0,0.0,0.0,0.0,0.0,0.0,0.0,0.0,0.0,0.0,0.0,0.0,0.0,0.0,0.0,0.0,0.0,0.0,0.0,0.0,0.0,0.0,0.0,0.0,0.0,0.0,0.0,0.0,0.0,0.0,0.0,0.0,0.0,0.0,0.0,0.0,0.0,0.0,0.0,0.0,0.0,0.0,0.0,0.0,0.0,10.2052,10.5696,11.048,11.6403,11.5719,11.5643,11.6706,11.0784,10.6532,0.0,0.0,0.0,0.0,0.0,0.0,0.0,0.0,0.0,0.0,0.0,0.0,0.0,0.0,0.0,0.0,0.0,0.0,0.0,0.0,0.0,0.0,0.0,0.0,0.0,0.0,0.0,0.0,0.0,0.0,0.0,0.0,0.0,0.0,0.0,0.0,0.0,0.0,0.0,0.0,0.0,9.537,9.704,9.7268,9.7268,0.0,0.0,9.9318,9.9394,10.0457,0.0,0.0,0.0,0.0,0.0,0.0,0.0,0.0,0.0,0.0,0.0,0.0,0.0,0.0,0.0,0.0,0.0,0.0,0.0,0.0,0.0,0.0,0.0,0.0,0.0,0.0,0.0,0.0,0.0,0.0,0.0,0.0,0.0,0.0,0.0,0.0,0.0,0.0,0.0,0.0,0.0,0.0,0.0,0.0,0.0,0.0,0.0,0.0,0.0,0.0,0.0,0.0,0.0,0.0,0.0,0.0,10.0457,10.5089,10.9493,11.3365,11.4504,11.458,11.3517,10.9645,10.5469,0.0,0.0,0.0,0.0,0.0,0.0,0.0,0.0,0.0,0.0,0.0,0.0,0.0,0.0,0.0,0.0,0.0,0.0,0.0,0.0,0.0,0.0,0.0,0.0,0.0,0.0,0.0,0.0,0.0,0.0,0.0,0.0,0.0,0.0,0.0,0.0,0.0,0.0,0.0,0.0,0.0,9.3623,9.537,9.5597,0.0,0.0,0.0,0.0,9.6053,9.5142,0.0,0.0,0.0,0.0,0.0,0.0,0.0,0.0,0.0,0.0,0.0,0.0,0.0,0.0,0.0,0.0,0.0,0.0,0.0,0.0,0.0,0.0,0.0,0.0,0.0,0.0,0.0,0.0,0.0,0.0,0.0,0.0,0.0,0.0,0.0,0.0,0.0,0.0,0.0,0.0,0.0,0.0,0.0,0.0,0.0,0.0,0.0,0.0,0.0,0.0,0.0,0.0,0.0,0.0,0.0,0.0,9.8711,10.2128,10.6304,11.1163,11.215,11.2226,11.1315,10.805,10.395,0.0,0.0,0.0,0.0,0.0,0.0,0.0,0.0,0.0,0.0,0.0,0.0,0.0,0.0,0.0,0.0,0.0,0.0,0.0,0.0,0.0,0.0,0.0,0.0,0.0,0.0,0.0,0.0,0.0,0.0,0.0,0.0,0.0,0.0,0.0,0.0,0.0,0.0,0.0,0.0,9.1801,9.1877,9.3623,0.0,0.0,0.0,0.0,0.0,0.0,9.3623,9.2787,0.0,0.0,0.0,0.0,0.0,0.0,0.0,0.0,0.0,0.0,0.0,0.0,0.0,0.0,0.0,0.0,0.0,0.0,0.0,0.0,0.0,0.0,0.0,0.0,0.0,0.0,0.0,0.0,0.0,0.0,0.0,0.0,0.0,0.0,0.0,0.0,0.0,0.0,0.0,0.0,0.0,0.0,0.0,0.0,0.0,0.0,0.0,0.0,0.0,0.0,0.0,0.0,0.0,0.0,0.0,9.7116,9.8711,10.2659,10.8961,10.9189,10.9341,10.9493,10.6076,10.1976,9.7344,0.0,0.0,0.0,0.0,0.0,0.0,0.0,0.0,0.0,0.0,0.0,0.0,0.0,0.0,0.0,0.0,0.0,0.0,0.0,0.0,0.0,0.0,0.0,0.0,0.0,0.0,0.0,0.0,0.0,0.0,0.0,0.0,0.0,0.0,0.0,0.0,0.0,0.0,0.0,9.0738,9.0586,0.0,0.0,0.0,0.0,0.0,0.0,0.0,0.0,9.2633,0.0,0.0,0.0,0.0,0.0,0.0,0.0,0.0,0.0,0.0,0.0,0.0,0.0,0.0,0.0,0.0,0.0,0.0,0.0,0.0,0.0,0.0,0.0,0.0,0.0,0.0,0.0,0.0,0.0,0.0,0.0,0.0,0.0,0.0,0.0,0.0,0.0,0.0,0.0,0.0,0.0,0.0,0.0,0.0,0.0,0.0,0.0,0.0,0.0,0.0,0.0,0.0,0.0,0.0,0.0,0.0,9.7116,10.0457,10.5469,10.5696,10.6456,10.7746,10.3191,9.9014,9.5597,0.0,0.0,0.0,0.0,0.0,0.0,0.0,0.0,0.0,0.0,0.0,0.0,0.0,0.0,0.0,0.0,0.0,0.0,0.0,0.0,0.0,0.0,0.0,0.0,0.0,0.0,0.0,0.0,0.0,0.0,0.0,0.0,0.0,0.0,0.0,0.0,0.0,0.0,8.8004,8.9219,0.0,0.0,0.0,0.0,0.0,0.0,0.0,0.0,9.1497,0.0,0.0,0.0,0.0,0.0,0.0,0.0,0.0,0.0,0.0,0.0,0.0,0.0,0.0,0.0,0.0,0.0,0.0,0.0,0.0,0.0,0.0,0.0,0.0,0.0,0.0,0.0,0.0,0.0,0.0,0.0,0.0,0.0,0.0,0.0,0.0,0.0,0.0,0.0,0.0,0.0,0.0,0.0,0.0,0.0,0.0,0.0,0.0,0.0,0.0,0.0,0.0,0.0,0.0,0.0,0.0,0.0,0.0,9.909,10.2203,10.4026,10.4937,10.4633,10.0001,9.666,0.0,0.0,0.0,0.0,0.0,0.0,0.0,0.0,0.0,0.0,0.0,0.0,0.0,0.0,0.0,0.0,0.0,0.0,0.0,0.0,0.0,0.0,0.0,0.0,0.0,0.0,0.0,0.0,0.0,0.0,0.0,0.0,0.0,0.0,0.0,0.0,0.0,0.0,0.0,0.0,0.0,0.0,0.0,0.0,0.0,0.0,0.0,0.0,0.0,0.0,0.0,0.0,0.0,0.0,0.0,0.0,0.0,0.0,0.0,0.0,0.0,0.0,0.0,0.0,0.0,0.0,0.0,0.0,0.0,0.0,0.0,0.0,0.0,0.0,0.0,0.0,0.0,0.0,0.0,0.0,0.0,0.0,0.0,0.0,0.0,0.0,0.0,0.0,0.0,0.0,0.0,0.0,0.0,0.0,0.0,0.0,0.0,0.0,0.0,0.0,0.0,0.0,0.0,0.0,0.0,0.0,0.0,0.0,9.7799,9.9394,10.2355,10.3418,10.2431,9.7648,9.4914,0.0,0.0,0.0,0.0,0.0,0.0,0.0,0.0,0.0,0.0,0.0,0.0,0.0,0.0,0.0,0.0,0.0,0.0,0.0,0.0,0.0,0.0,0.0,0.0,0.0,0.0,0.0,0.0,0.0,0.0,0.0,0.0,0.0,0.0,0.0,0.0,0.0,0.0,0.0,0.0,0.0,0.0,0.0,0.0,0.0,0.0,0.0,0.0,9.0662,0.0,0.0,0.0,0.0,0.0,0.0,0.0,0.0,0.0,0.0,0.0,0.0,0.0,0.0,0.0,0.0,0.0,0.0,0.0,0.0,0.0,0.0,0.0,0.0,0.0,0.0,0.0,0.0,0.0,0.0,0.0,0.0,0.0,0.0,0.0,0.0,0.0,0.0,0.0,0.0,0.0,0.0,0.0,0.0,0.0,0.0,0.0,0.0,0.0,0.0,0.0,0.0,0.0,0.0,0.0,0.0,0.0,0.0,0.0,9.6129,9.7799,9.9546,10.1064,10.2203,9.7648,9.4383,0.0,0.0,0.0,0.0,0.0,0.0,0.0,0.0,0.0,0.0,0.0,0.0,0.0,0.0,0.0,0.0,0.0,0.0,0.0,0.0,0.0,0.0,0.0,0.0,0.0,0.0,0.0,0.0,0.0,0.0,0.0,0.0,0.0,0.0,0.0,0.0,0.0,0.0,0.0,0.0,0.0,0.0,0.0,0.0,0.0,0.0,0.0,0.0,0.0,0.0,0.0,0.0,0.0,0.0,0.0,0.0,0.0,0.0,0.0,0.0,0.0,0.0,0.0,0.0,0.0,0.0,0.0,0.0,0.0,0.0,0.0,0.0,0.0,0.0,0.0,0.0,0.0,0.0,0.0,0.0,0.0,0.0,0.0,0.0,0.0,0.0,0.0,0.0,0.0,0.0,0.0,0.0,0.0,0.0,0.0,0.0,0.0,0.0,0.0,0.0,0.0,0.0,0.0,0.0,0.0,0.0,0.0,0.0,9.4218,9.6129,9.7724,9.8407,9.8103,9.4231,9.1801,0.0,0.0,0.0,0.0,0.0,0.0,0.0,0.0,0.0,0.0,0.0,0.0,0.0,0.0,0.0,0.0,0.0,0.0,0.0,0.0,0.0,0.0,0.0,0.0,0.0,0.0,0.0,0.0,0.0,0.0,0.0,0.0,0.0,0.0,0.0,0.0,0.0,0.0,0.0,0.0,0.0,0.0,0.0,0.0,0.0,0.0,0.0,0.0,0.0,0.0,0.0,0.0,0.0,0.0,0.0,0.0,0.0,0.0,0.0,0.0,0.0,0.0,0.0,0.0,0.0,0.0,0.0,0.0,0.0,0.0,0.0,0.0,0.0,0.0,0.0,0.0,0.0,0.0,0.0,0.0,0.0,0.0,0.0,0.0,0.0,0.0,0.0,0.0,0.0,0.0,0.0,0.0,0.0,0.0,0.0,0.0,0.0,0.0,0.0,0.0,0.0,0.0,0.0,0.0,0.0,0.0,0.0,0.0,0.0,9.4307,9.4762,9.4534,9.3699,9.089,8.9143,0.0,0.0,0.0,0.0,0.0,0.0,0.0,0.0,0.0,0.0,0.0,0.0,0.0,0.0,0.0,0.0,0.0,0.0,0.0,0.0,0.0,0.0,0.0,0.0,0.0,0.0,0.0,0.0,0.0,0.0,0.0,0.0,0.0,0.0,0.0,0.0,0.0,0.0,0.0,0.0,0.0,0.0,0.0,0.0,0.0,0.0,0.0,0.0,0.0,0.0,0.0,0.0,0.0,0.0,0.0,0.0,0.0,0.0,0.0,0.0,0.0,0.0,0.0,0.0,0.0,0.0,0.0,0.0,0.0,0.0,0.0,0.0,0.0,0.0,0.0,0.0,0.0,0.0,0.0,0.0,0.0,0.0,0.0,0.0,0.0,0.0,0.0,0.0,0.0,0.0,0.0,0.0,0.0,0.0,0.0,0.0,0.0,0.0,0.0,0.0,0.0,0.0,0.0,0.0,0.0,0.0,0.0,0.0,0.0,9.2636,8.9675,8.8764,9.0206,8.8536,8.6865,0.0,0.0,0.0,0.0,0.0,0.0,0.0,0.0,0.0,0.0,0.0,0.0,0.0,0.0,0.0,0.0,0.0,0.0,0.0,0.0,0.0,0.0,0.0,0.0,0.0,0.0,0.0,0.0,0.0,0.0,0.0,0.0,0.0,0.0,0.0,0.0,0.0,0.0,0.0,0.0,0.0,0.0,0.0,0.0,0.0,0.0,0.0,0.0,0.0,0.0,0.0,0.0,0.0,0.0,0.0,0.0,0.0,0.0,0.0,0.0,0.0,0.0,0.0,0.0,0.0,0.0,0.0,0.0,0.0,0.0,0.0,0.0,0.0,0.0,0.0,0.0,0.0,0.0,0.0,0.0,0.0,0.0,0.0,0.0,0.0,0.0,0.0,0.0,0.0,0.0,0.0,0.0,0.0,0.0,0.0,0.0,0.0,0.0,0.0,0.0,0.0,0.0,0.0,0.0,0.0,0.0,0.0,0.0,0.0,8.7595,8.6482,8.6182,8.6789,8.5195,8.398,8.3373,0.0,0.0,0.0,0.0,0.0,0.0,0.0,0.0,0.0,0.0,0.0,0.0,0.0,0.0,0.0,0.0,0.0,0.0,0.0,0.0,0.0,0.0,0.0,0.0,0.0,0.0,0.0,0.0,0.0,0.0,0.0,0.0,0.0,0.0,0.0,0.0,0.0,0.0,0.0,0.0,0.0,0.0,0.0,0.0,0.0,0.0,0.0,0.0,0.0,0.0,0.0,0.0,0.0,0.0,0.0,0.0,0.0,0.0,0.0,0.0,0.0,0.0,0.0,0.0,0.0,0.0,0.0,0.0,0.0,0.0,0.0,0.0,0.0,0.0,0.0,0.0,0.0,0.0,0.0,0.0,0.0,0.0,0.0,0.0,0.0,0.0,0.0,0.0,0.0,0.0,0.0,0.0,0.0,0.0,0.0,0.0,0.0,0.0,0.0,0.0,0.0,0.0,0.0,0.0,0.0,0.0,0.0,0.0,8.3774,8.3585,8.3676,8.4056,8.2458,8.1543,0.0,0.0,0.0,0.0,0.0,0.0,0.0,0.0,0.0,0.0,0.0,0.0,0.0,0.0,0.0,0.0,0.0,0.0,0.0,0.0,0.0,0.0,0.0,0.0,0.0,0.0,0.0,0.0,0.0,0.0,0.0,0.0,0.0,0.0,0.0,0.0,0.0,0.0,0.0,0.0,0.0,0.0,0.0,0.0,0.0,0.0,0.0,0.0,0.0,0.0,0.0,0.0,0.0,0.0,0.0,0.0,0.0,0.0,0.0,0.0,0.0,0.0,0.0,0.0,0.0,0.0,0.0,0.0,0.0,0.0,0.0,0.0,0.0,0.0,0.0,0.0,0.0,0.0,0.0,0.0,0.0,0.0,0.0,0.0,0.0,0.0,0.0,0.0,0.0,0.0,0.0,0.0,0.0,0.0,0.0,0.0,0.0,0.0,0.0,0.0,0.0,0.0,0.0,0.0,0.0,0.0,0.0,0.0,7.9817,8.1705,8.0755,8.1019,8.2309,8.0684,7.9807,0.0,0.0,0.0,0.0,0.0,0.0,0.0,0.0,0.0,0.0,0.0,0.0,0.0,0.0,0.0,0.0,0.0,0.0,0.0,0.0,0.0,0.0,0.0,0.0,0.0,0.0,0.0,0.0,0.0,0.0,0.0,0.0,0.0,0.0,0.0,0.0,0.0,0.0,0.0,0.0,0.0,0.0,0.0,0.0,0.0,0.0,0.0,0.0,0.0,0.0,0.0,0.0,0.0,0.0,0.0,0.0,0.0,0.0,0.0,0.0,0.0,0.0,0.0,0.0,0.0,0.0,0.0,0.0,0.0,0.0,0.0,0.0,0.0,0.0,0.0,0.0,0.0,0.0,0.0,0.0,0.0,0.0,0.0,0.0,0.0,0.0,0.0,0.0,0.0,0.0,0.0,0.0,0.0,0.0,0.0,0.0,0.0,0.0,0.0,0.0,0.0,0.0,0.0,0.0,0.0,0.0,0.0,0.0,0.0,7.9939,7.9888,8.0073,8.0528,7.9972,7.9652,0.0,0.0,0.0,0.0,0.0,0.0,0.0,0.0,0.0,0.0,0.0,0.0,0.0,0.0,0.0,0.0,0.0,0.0,0.0,0.0,0.0,0.0,0.0,0.0,0.0,0.0,0.0,0.0,0.0,0.0,0.0,0.0,0.0,0.0,0.0,0.0,0.0,0.0,0.0,0.0,0.0,0.0,0.0,0.0,0.0,0.0,0.0,0.0,0.0,0.0,0.0,0.0,0.0,0.0,0.0,0.0,0.0,0.0,0.0,0.0,0.0,0.0,0.0,0.0,0.0,0.0,0.0,0.0,0.0,0.0,0.0,0.0,0.0,0.0,0.0,0.0,0.0,0.0,0.0,0.0,0.0,0.0,0.0,0.0,0.0,0.0,0.0,0.0,0.0,0.0,0.0,0.0,0.0,0.0,0.0,0.0,0.0,0.0,0.0,0.0,0.0,0.0,0.0,0.0,0.0,0.0,0.0,0.0,0.0,7.911,7.9369,7.9531,7.9584,7.9531,7.9502,0.0,0.0,0.0,0.0,0.0,0.0,0.0,0.0,0.0,0.0,0.0,0.0,0.0,0.0,0.0,0.0,0.0,0.0,0.0,0.0,0.0,0.0,0.0,0.0,0.0,0.0,0.0,0.0,0.0,0.0,0.0,0.0,0.0,0.0,0.0,0.0,0.0,0.0,0.0,0.0,0.0,0.0,0.0,0.0,0.0,0.0,0.0,0.0,0.0,0.0,0.0,0.0,0.0,0.0,0.0,0.0,0.0,0.0,0.0,0.0,0.0,0.0,0.0,0.0,0.0,0.0,0.0,0.0,0.0,0.0,0.0,0.0,0.0,0.0,0.0,0.0,0.0,0.0,0.0,0.0,0.0,0.0,0.0,0.0,0.0,0.0,0.0,0.0,0.0,0.0,0.0,0.0,0.0,0.0,0.0,0.0,0.0,0.0,0.0,0.0,0.0,0.0,0.0,0.0,0.0,0.0,0.0,0.0,0.0,7.9075,7.9092,7.916,7.9322,7.9185,7.904,0.0,0.0,0.0,0.0,0.0,0.0,0.0,0.0,0.0,0.0,0.0,0.0,0.0,0.0,0.0,0.0,0.0,0.0,0.0,0.0,0.0,0.0,0.0,0.0,0.0,0.0,0.0,0.0,0.0,0.0,0.0,0.0,0.0,0.0,0.0,0.0,0.0,0.0,0.0,0.0,0.0,0.0,0.0,0.0,0.0,0.0,0.0,0.0,0.0,0.0,0.0,0.0,0.0,0.0,0.0,0.0,0.0,0.0,0.0,0.0,0.0,0.0,0.0,0.0,0.0,0.0,0.0,0.0,0.0,0.0,0.0,0.0,0.0,0.0,0.0,0.0,0.0,0.0,0.0,0.0,0.0,0.0,0.0,0.0,0.0,0.0,0.0,0.0,0.0,0.0,0.0,0.0,0.0,0.0,0.0,0.0,0.0,0.0,0.0,0.0,0.0,0.0,0.0,0.0,0.0,0.0,0.0,0.0,0.0,0.0,7.8834,7.8921,7.9134,7.9155,7.8513,7.7325,0.0,0.0,0.0,0.0,0.0,0.0,0.0,0.0,0.0,0.0,0.0,0.0,0.0,0.0,0.0,0.0,0.0,0.0,0.0,0.0,0.0,0.0,0.0,0.0,0.0,0.0,0.0,0.0,0.0,0.0,0.0,0.0,0.0,0.0,0.0,0.0,0.0,0.0,0.0,0.0,0.0,0.0,0.0,0.0,0.0,0.0,0.0,0.0,0.0,0.0,0.0,0.0,0.0,0.0,0.0,0.0,0.0,0.0,0.0,0.0,0.0,0.0,0.0,0.0,0.0,0.0,0.0,0.0,0.0,0.0,0.0,0.0,0.0,0.0,0.0,0.0,0.0,0.0,0.0,0.0,0.0,0.0,0.0,0.0,0.0,0.0,0.0,0.0,0.0,0.0,0.0,0.0,0.0,0.0,0.0,0.0,0.0,0.0,0.0,0.0,0.0,0.0,0.0,0.0,0.0,0.0,0.0,0.0,0.0,0.0,7.8784,7.8914,7.8921,7.8176,0.0,0.0,0.0,0.0,0.0,0.0,0.0,0.0,0.0,0.0,0.0,0.0,0.0,0.0,0.0,0.0,0.0,0.0,0.0,0.0,0.0,0.0,0.0,0.0,0.0,0.0,0.0,0.0,0.0,0.0,0.0,0.0,0.0,0.0,0.0,0.0,0.0,0.0,0.0,0.0,0.0,0.0,0.0,0.0,0.0,0.0,0.0,0.0,0.0,0.0,0.0,0.0,0.0,0.0,0.0,0.0,0.0,0.0,0.0,0.0,0.0,0.0,0.0,0.0,0.0,0.0,0.0,0.0,0.0,0.0,0.0,0.0,0.0,0.0,0.0,0.0,0.0,0.0,0.0,0.0,0.0,0.0,0.0,0.0,0.0,0.0,0.0,0.0,0.0,0.0,0.0,0.0,0.0,0.0,0.0,0.0,0.0,0.0,0.0,0.0,0.0,0.0,0.0,0.0,0.0,0.0,0.0,0.0,0.0,0.0,0.0,7.8674,7.8532,7.8532,0.0,7.6131,0.0,0.0,0.0,0.0,0.0,0.0,0.0,0.0,0.0,0.0,0.0,0.0,0.0,0.0,0.0,0.0,0.0,0.0,0.0,0.0,0.0,0.0,0.0,0.0,0.0,0.0,0.0,0.0,0.0,0.0,0.0,0.0,0.0,0.0,0.0,0.0,0.0,0.0,0.0,0.0,0.0,0.0,0.0,0.0,0.0,0.0,0.0,0.0,0.0,0.0,0.0,0.0,0.0,0.0,0.0,0.0,0.0,0.0,0.0,0.0,0.0,0.0,0.0,0.0,0.0,0.0,0.0,0.0,0.0,0.0,0.0,0.0,0.0,0.0,0.0,0.0,0.0,0.0,0.0,0.0,0.0,0.0,0.0,0.0,0.0,0.0,0.0,0.0,0.0,0.0,0.0,0.0,0.0,0.0,0.0,0.0,0.0,0.0,0.0,0.0,0.0,0.0,0.0,0.0,0.0,0.0,0.0,0.0,0.0,0.0,0.0,0.0,7.6961,7.6131,7.4479,0.0,0.0,0.0,0.0,0.0,0.0,0.0,0.0,0.0,0.0,0.0,0.0,0.0,0.0,0.0,0.0,0.0,0.0,0.0,0.0,0.0,0.0,0.0,0.0,0.0,0.0,0.0,0.0,0.0,0.0,0.0,0.0,0.0,0.0,0.0,0.0,0.0,0.0,0.0,0.0,0.0,0.0,0.0,0.0,0.0,0.0,0.0,0.0,0.0,0.0,0.0,0.0,0.0,0.0,0.0,0.0,0.0,0.0,0.0,0.0,0.0,0.0,0.0,0.0,0.0,0.0,0.0,0.0,0.0,0.0,0.0,0.0,0.0,0.0,0.0,0.0,0.0,0.0,0.0,0.0,0.0,0.0,0.0,0.0,0.0,0.0,0.0,0.0,0.0,0.0,0.0,0.0,0.0,0.0,0.0,0.0,0.0,0.0,0.0,0.0,0.0,0.0,0.0,0.0,0.0,0.0,0.0,0.0,0.0,0.0,7.6879,7.5308,7.5226,7.4411,7.2833,0.0,0.0,0.0,0.0,0.0,0.0,0.0,0.0,0.0,0.0,0.0,0.0,0.0,0.0,0.0,0.0,0.0,0.0,0.0,0.0,0.0,0.0,0.0,0.0,0.0,0.0,0.0,0.0,0.0,0.0,0.0,0.0,0.0,0.0,0.0,0.0,0.0,0.0,0.0,0.0,0.0,0.0,0.0,0.0,0.0,0.0,0.0,0.0,0.0,0.0,0.0,0.0,0.0,0.0,0.0,0.0,0.0,0.0,0.0,0.0,0.0,0.0,0.0,0.0,0.0,0.0,0.0,0.0,0.0,0.0,0.0,0.0,0.0,0.0,0.0,0.0,0.0,0.0,0.0,0.0,0.0,0.0,0.0,0.0,0.0,0.0,0.0,0.0,0.0,0.0,0.0,0.0,0.0,0.0,0.0,0.0,0.0,0.0,0.0,0.0,0.0,0.0,0.0,0.0,0.0,0.0,0.0,0.0,0.0,0.0,7.5234,0.0,0.0,0.0,7.1107,0.0,0.0,0.0,0.0,0.0,0.0,0.0,0.0,0.0,0.0,0.0,0.0,0.0,0.0,0.0,0.0,0.0,0.0,0.0,0.0,0.0,0.0,0.0,0.0,0.0,0.0,0.0,0.0,0.0,0.0,0.0,0.0,0.0,0.0,0.0,0.0,0.0,0.0,0.0,0.0,0.0,0.0,0.0,0.0,0.0,0.0,0.0,0.0,0.0,0.0,0.0,0.0,0.0,0.0,0.0,0.0,0.0,0.0,0.0,0.0,0.0,0.0,0.0,0.0,0.0,0.0,0.0,0.0,0.0,0.0,0.0,0.0,0.0,0.0,0.0,0.0,0.0,0.0,0.0,0.0,0.0,0.0,0.0,0.0,0.0,0.0,0.0,0.0,0.0,0.0,0.0,0.0,0.0,0.0,0.0,0.0,0.0,0.0,0.0,0.0,0.0,0.0,0.0,0.0,0.0,0.0,0.0,0.0,0.0,0.0,0.0,0.0,0.0,0.0,0.0,0.0,0.0,0.0,0.0,0.0,0.0,0.0,0.0,0.0,0.0,0.0,0.0,0.0,0.0,0.0,0.0,0.0,0.0,0.0,0.0,0.0,0.0,0.0,0.0,0.0,0.0,0.0,0.0,0.0,0.0,0.0,0.0,0.0,0.0,0.0,0.0,0.0,0.0,0.0,0.0,0.0,0.0,0.0,0.0,0.0,0.0,0.0,0.0,0.0,0.0,0.0,0.0,0.0,0.0,0.0,0.0,0.0,0.0,0.0,0.0,0.0,0.0,0.0,0.0,0.0,0.0,0.0,0.0,0.0,0.0,0.0,0.0,0.0,0.0,0.0,0.0,0.0,0.0,0.0,0.0,0.0,0.0,0.0,0.0,0.0,0.0,0.0,0.0,0.0,0.0,0.0,0.0,0.0,0.0,0.0,0.0,0.0,0.0,0.0,0.0,0.0,0.0,0.0,0.0,0.0,0.0,0.0,0.0,0.0,0.0,0.0,0.0,0.0,0.0,0.0,0.0,0.0,0.0,0.0,0.0,0.0,0.0,0.0,0.0,0.0,0.0,0.0,0.0,0.0,0.0,0.0,0.0,0.0,0.0,0.0,0.0,0.0,0.0,0.0,0.0,0.0,0.0,0.0,0.0,0.0,0.0,0.0,0.0,0.0,0.0,0.0,0.0,0.0,0.0,0.0,0.0,0.0,0.0,0.0,0.0,0.0,0.0,0.0,0.0,0.0,0.0,0.0,0.0,0.0,0.0,0.0,0.0,0.0,0.0,0.0,0.0,0.0,0.0,0.0,0.0,0.0,0.0,0.0,0.0,0.0,0.0,0.0,0.0,0.0,0.0,0.0,0.0,0.0,0.0,0.0,0.0,0.0,0.0,0.0,0.0,0.0,0.0,0.0,0.0,0.0,0.0,0.0,0.0,0.0,0.0,0.0,0.0,0.0,0.0,0.0,0.0,0.0,0.0,0.0,0.0,0.0,0.0,0.0,0.0,0.0,0.0,0.0,0.0,0.0,0.0,0.0,0.0,0.0,0.0,0.0,0.0,0.0,0.0,0.0,0.0,0.0,0.0,0.0,0.0,0.0,0.0,0.0,0.0,0.0,0.0,0.0,0.0,0.0,0.0,0.0,0.0,0.0,0.0,0.0,0.0,0.0,0.0,0.0,0.0,0.0,0.0,0.0,0.0,0.0,0.0,0.0,0.0,0.0,0.0,0.0,0.0,0.0,0.0,0.0,0.0,0.0,0.0,0.0,0.0,0.0,0.0,0.0,0.0,0.0,0.0,0.0,0.0,0.0,0.0,0.0,0.0,0.0,0.0,0.0,0.0,0.0,0.0,0.0,0.0,0.0,0.0,0.0,0.0,0.0,0.0,0.0,0.0,0.0,0.0,0.0,0.0,0.0,0.0,0.0,0.0,0.0,0.0,0.0,0.0,0.0,0.0,0.0,0.0,0.0,0.0,0.0,0.0,0.0,0.0,0.0,0.0,0.0,0.0,0.0,0.0,0.0,0.0,0.0,0.0,0.0,0.0,0.0,0.0,0.0,0.0,0.0,0.0,0.0,0.0,0.0,0.0,0.0,0.0,0.0,0.0,0.0,0.0,0.0,0.0,0.0,0.0,0.0,0.0,0.0,0.0,0.0,0.0,0.0,0.0,0.0,0.0,0.0,0.0,0.0,0.0,0.0,0.0,0.0,0.0,0.0,0.0,0.0,0.0,0.0,0.0,0.0,0.0,0.0,0.0,0.0,0.0,0.0,0.0,0.0,0.0,0.0,0.0,0.0,0.0,0.0,0.0,0.0,0.0,0.0,0.0,0.0,0.0,0.0,0.0,0.0,0.0,0.0,0.0,0.0,0.0,0.0,0.0,0.0,0.0,0.0,0.0,0.0,0.0,0.0,0.0,0.0,0.0,0.0,0.0,0.0,0.0,0.0,0.0,0.0,0.0,0.0,0.0,0.0,0.0,0.0,0.0,0.0,0.0,0.0,0.0,0.0,0.0,0.0,0.0,0.0,0.0,0.0,0.0,0.0,0.0,0.0,0.0,0.0,0.0,0.0,0.0,0.0,0.0,0.0,0.0,0.0,0.0,0.0,0.0,0.0,0.0,0.0,0.0,0.0,0.0,0.0,0.0,0.0,0.0,0.0,0.0,0.0,0.0,0.0,0.0,0.0,0.0,0.0,0.0,0.0,0.0,0.0,0.0,0.0,0.0,0.0,0.0,0.0,0.0,0.0,0.0,0.0,0.0,0.0,0.0,0.0,0.0,0.0,0.0,0.0,0.0,0.0,0.0,0.0,0.0,0.0,0.0,0.0,0.0,0.0,0.0,0.0,0.0,0.0,0.0,0.0,0.0,0.0,0.0,0.0,0.0,0.0,0.0,0.0,0.0,0.0,0.0,0.0,0.0,0.0,0.0,0.0,0.0,0.0,0.0,0.0,0.0,0.0,0.0,0.0,0.0,0.0,0.0,0.0,0.0,0.0,0.0,0.0,0.0,0.0,0.0,0.0,0.0,0.0,0.0,0.0,0.0,0.0,0.0,0.0,0.0,0.0,0.0,0.0,0.0,0.0,0.0,0.0,0.0,0.0,0.0,0.0,0.0,0.0,0.0,0.0,0.0,0.0,0.0,0.0,0.0,0.0,0.0,0.0,0.0,0.0,0.0,0.0,0.0,0.0,0.0,0.0,0.0,0.0,0.0,0.0,0.0,0.0,0.0,0.0,0.0,0.0,0.0,0.0,0.0,0.0,0.0,0.0,0.0,0.0,0.0,0.0,0.0,0.0,0.0,0.0,0.0,0.0,0.0,0.0,0.0,0.0,0.0,0.0,0.0,0.0,0.0,0.0,0.0,0.0,0.0,0.0,0.0,0.0,0.0,0.0,0.0,0.0,0.0,0.0,0.0,0.0,0.0,0.0,0.0,0.0,0.0,0.0,0.0,0.0,0.0,0.0,0.0,0.0,0.0,0.0,0.0,0.0,0.0,0.0,0.0,0.0,0.0,0.0,0.0,0.0,0.0,0.0,0.0,0.0,0.0,0.0,0.0,0.0,0.0,0.0,0.0,0.0,0.0,0.0,0.0,0.0,0.0,0.0,0.0,0.0,0.0,0.0,0.0,0.0,0.0,0.0,0.0,0.0,0.0,0.0,0.0,0.0,0.0,0.0,0.0,0.0,0.0,0.0,0.0,0.0,0.0,0.0,0.0,0.0,0.0,0.0,0.0,0.0,0.0,0.0,0.0,0.0,0.0,0.0,0.0,0.0,0.0,0.0,0.0,0.0,0.0,0.0,0.0,0.0,0.0,0.0,0.0,0.0,0.0,0.0,0.0,0.0,0.0,0.0,0.0,0.0,0.0,0.0,0.0,0.0,0.0,0.0,0.0,0.0,0.0,0.0,0.0,0.0,0.0,0.0,0.0,0.0,0.0,0.0,0.0,0.0,0.0,0.0,0.0,0.0,0.0,0.0,0.0,0.0,0.0,0.0,0.0,0.0,0.0,0.0,0.0,0.0,0.0,0.0,0.0,0.0,0.0,0.0,0.0,0.0,0.0,0.0,0.0,0.0,0.0,0.0,0.0,0.0,0.0,0.0,0.0,0.0,0.0,0.0,0.0,0.0,0.0,0.0,0.0,0.0,0.0,0.0,0.0,0.0,0.0,0.0,0.0,0.0,0.0,0.0,0.0,0.0,0.0,0.0,0.0,0.0,0.0,0.0,0.0,0.0,0.0,0.0,0.0,0.0,0.0,0.0,0.0,0.0,0.0,0.0,0.0,0.0,0.0,0.0,0.0,0.0,0.0,0.0,0.0,0.0,0.0,0.0,0.0,0.0,0.0,0.0,0.0,0.0,0.0,0.0,0.0,0.0]}]]]